GFSSGP_700_spd_021.txt.gz
Wind_Speed
10 6 2 3 5 5 9 3 3 2 3 3 2 3 4 6 4 4 8 6 4 3 2 1 2 6 9 11 12 11 11 9 9 8 7 7 7 6 6 5 6 5 3 1 1 1 2 3 3
6 6 7 5 6 11 3 3 3 2 3 6 7 7 6 5 12 9 8 6 6 6 3 2 2 6 9 10 11 11 11 9 8 7 7 6 5 5 4 4 5 6 6 4 3 1 0 1 2
3 4 4 4 8 11 7 7 5 4 9 8 6 11 5 5 12 13 9 7 7 9 7 3 3 6 9 9 10 10 10 9 8 6 6 5 4 3 3 2 4 5 4 4 5 4 3 2 1
3 4 7 7 13 11 7 9 6 7 10 11 7 8 15 14 17 16 12 10 9 10 11 7 6 7 10 11 11 10 10 9 8 6 5 4 2 2 1 1 2 2 2 3 4 4 3 3 3
5 6 8 14 13 13 13 12 10 10 10 9 10 9 12 18 19 17 16 14 13 13 15 12 10 10 12 12 12 11 11 10 9 7 5 4 1 1 3 3 1 0 2 2 2 2 2 1 0
8 9 13 15 14 12 12 12 10 11 11 12 13 12 13 20 19 16 16 15 14 16 17 14 13 13 15 14 14 14 12 11 10 9 7 5 2 2 5 6 5 3 3 3 3 3 3 4 4
12 10 15 17 17 15 14 14 11 13 13 15 18 11 14 22 16 14 14 15 14 16 16 17 15 17 18 17 17 16 15 13 12 11 9 7 5 3 5 7 8 8 7 7 5 4 5 6 7
14 17 17 16 17 16 12 14 14 14 15 19 22 15 11 17 20 18 17 16 15 16 15 17 18 18 20 20 19 18 17 16 15 14 12 10 8 7 7 8 9 10 10 10 9 7 7 8 9
17 18 18 16 17 18 14 17 12 19 20 18 21 19 19 21 19 20 17 17 17 17 17 18 19 17 22 23 22 21 19 18 18 16 15 14 13 11 11 10 10 10 11 12 12 11 10 10 11
17 15 15 15 19 19 19 16 19 19 19 17 20 17 21 19 20 20 18 17 17 18 19 20 21 20 22 24 23 24 23 22 21 20 19 18 16 15 14 13 14 12 12 13 13 13 13 13 13
17 20 15 21 23 22 25 23 21 22 24 18 18 18 22 26 21 22 21 17 18 18 21 21 24 24 24 26 25 27 25 25 24 23 22 21 19 19 18 17 16 15 14 14 14 15 15 15 15
19 18 20 22 23 24 24 25 24 24 24 21 18 23 20 29 26 25 23 21 20 22 22 23 26 29 27 29 29 31 28 29 28 26 25 24 22 22 21 20 18 17 16 16 16 16 16 16 16
22 20 23 24 24 24 26 27 27 30 24 19 19 21 19 22 26 26 25 26 26 26 23 24 25 30 31 32 32 33 32 32 31 30 29 27 25 25 24 23 21 19 18 18 18 18 17 17 17
23 25 25 26 25 25 28 28 28 29 25 20 20 22 23 23 24 25 28 27 27 27 27 28 28 28 33 34 36 35 35 36 36 34 32 31 29 28 27 26 24 22 20 19 19 20 19 18 18
21 26 27 26 21 20 23 29 26 20 18 22 21 23 25 25 27 29 29 31 30 31 31 33 33 30 34 36 38 39 39 39 40 37 36 35 33 31 30 28 26 25 23 21 21 21 21 20 20
21 21 17 14 20 21 24 31 22 22 27 28 27 26 26 28 28 29 29 31 33 34 33 35 37 33 34 37 40 41 43 42 41 40 40 39 37 35 33 30 29 27 25 24 23 22 22 22 21
13 16 17 19 20 20 21 32 27 20 28 34 31 30 27 28 26 29 29 32 31 31 31 33 38 36 35 37 42 42 42 44 45 44 44 42 40 39 36 33 32 30 28 26 25 24 24 23 22
17 21 24 25 19 24 29 37 38 35 32 33 32 30 27 26 24 22 26 28 32 34 33 32 37 39 36 38 42 43 44 45 46 46 46 44 42 41 38 35 34 33 30 28 26 26 24 25 23
19 20 24 25 24 25 26 29 39 38 33 30 26 21 18 16 15 15 18 22 25 35 32 33 35 38 41 39 42 44 43 44 45 45 45 45 42 41 39 37 37 35 33 30 28 27 26 25 24
14 19 24 25 19 26 29 37 35 14 12 14 13 8 9 9 6 13 17 19 19 21 25 30 35 39 41 45 41 43 41 43 44 45 44 44 42 41 40 39 38 36 34 32 29 28 27 27 24
19 22 25 25 27 29 22 27 11 14 12 9 2 6 9 13 18 22 22 21 22 27 27 28 29 32 38 46 44 44 46 48 47 43 42 44 43 42 41 39 38 38 36 34 31 29 28 27 25
19 17 22 23 21 16 18 16 21 4 5 9 6 11 12 13 11 19 24 23 22 24 24 21 25 28 34 41 48 50 48 51 46 41 39 40 42 43 41 39 39 39 37 34 31 30 29 28 27
18 19 22 22 23 26 21 13 3 10 6 3 6 13 11 15 16 17 23 23 24 27 26 28 28 29 29 33 45 50 51 52 49 47 44 43 44 44 41 41 40 41 37 34 33 31 30 28 28
14 16 25 23 17 12 12 15 8 3 3 5 6 17 21 26 26 27 28 32 33 34 39 41 40 41 41 42 42 48 48 45 53 53 51 48 47 46 43 42 43 42 37 36 34 31 30 28 28
9 20 12 8 7 8 1 14 18 16 15 8 13 19 22 30 32 35 38 40 44 48 42 39 39 42 40 43 48 48 49 46 49 54 56 54 51 47 44 43 43 39 37 37 35 32 30 29 28
19 9 9 8 9 18 30 16 14 8 4 9 19 24 31 37 40 45 46 44 44 50 50 43 36 33 31 31 39 47 52 51 50 53 58 57 54 47 43 42 41 39 40 38 35 32 30 29 28
5 12 11 17 29 28 19 22 23 16 24 30 37 37 38 40 40 39 38 52 56 58 61 59 49 45 36 32 34 35 47 52 55 54 55 58 54 49 46 44 42 41 40 37 34 32 30 29 28
10 11 9 11 7 11 16 29 31 23 33 42 45 48 45 45 51 51 40 36 34 41 47 50 51 49 48 37 37 36 36 46 52 55 53 59 56 51 48 46 44 43 40 36 34 32 30 28 28
21 23 14 16 17 9 16 21 17 38 34 38 40 38 38 36 41 38 36 36 36 33 32 33 35 33 44 46 38 38 34 39 46 52 52 58 56 54 50 46 45 42 39 36 33 31 28 28 28
14 11 7 7 16 28 32 53 43 22 40 37 39 37 35 37 38 37 39 38 35 32 33 33 33 30 32 44 41 37 36 33 38 45 47 51 54 53 50 47 44 42 38 35 33 29 28 28 28

GFSSGP_700_spd_024.txt.gz
Wind_Speed
6 2 4 9 7 4 9 7 4 4 3 8 6 4 5 6 5 5 10 11 6 4 3 2 2 3 5 7 8 9 8 8 7 6 5 5 5 5 5 5 6 5 4 2 2 2 4 5 6
4 5 6 8 8 7 9 7 5 3 2 9 7 8 7 7 13 9 8 10 8 7 3 1 1 4 5 6 7 7 7 6 5 4 4 4 3 4 4 5 5 5 5 5 3 1 1 2 4
1 3 5 5 11 7 8 9 6 4 9 6 8 14 3 6 14 17 9 10 9 9 4 3 1 4 6 7 7 7 6 5 4 3 2 2 2 3 4 4 4 4 5 6 5 4 2 1 2
3 4 5 6 9 15 2 5 8 6 11 13 4 6 12 13 16 20 14 12 12 11 6 6 4 4 8 8 8 7 6 6 4 3 1 1 2 3 4 4 4 4 3 4 4 4 3 2 2
3 6 6 12 14 13 8 7 14 8 10 10 10 5 13 17 17 21 15 14 13 13 10 10 8 7 10 11 10 9 8 7 6 4 4 3 2 3 5 4 3 4 4 3 3 3 3 2 3
5 6 6 13 17 13 13 17 9 7 9 11 16 10 13 17 19 20 15 14 15 16 16 12 12 12 13 13 12 12 10 9 8 7 6 5 4 4 5 6 5 5 6 5 4 4 5 4 2
7 7 12 12 14 15 12 12 9 10 9 11 14 13 16 19 18 18 17 16 14 17 16 17 15 15 17 16 16 15 13 12 11 10 9 9 7 6 6 8 8 8 7 7 6 6 6 6 5
10 12 15 12 15 16 14 14 15 12 13 9 16 14 11 17 17 23 22 16 17 17 18 19 17 17 19 20 19 18 16 15 14 14 12 12 11 9 8 9 10 11 10 9 9 8 9 9 8
15 16 19 14 16 17 14 14 12 12 20 15 10 20 19 24 23 19 21 16 18 17 19 18 21 17 20 22 22 21 20 19 17 17 16 15 14 13 12 11 10 12 12 11 11 11 11 11 11
16 19 18 11 18 21 20 21 20 18 16 17 16 14 24 24 20 22 23 20 18 18 16 19 23 22 19 22 23 24 24 22 21 21 20 19 17 16 16 15 14 13 13 13 13 13 13 14 14
17 18 17 18 22 23 21 21 20 18 19 19 15 10 15 23 25 26 21 22 22 19 19 16 20 24 25 22 22 24 25 26 25 24 24 23 20 20 18 18 17 17 16 14 15 15 15 15 16
20 18 19 23 23 23 24 25 24 23 23 19 17 13 20 27 29 26 23 23 23 24 23 17 19 24 27 26 26 25 28 29 28 27 28 26 25 24 22 21 21 19 19 17 15 17 17 17 17
21 20 19 22 24 25 26 26 26 26 21 18 16 18 17 16 23 26 23 22 22 26 27 23 20 23 27 29 31 30 32 32 32 31 31 29 29 28 27 25 24 23 22 20 18 18 18 19 19
21 24 25 25 26 25 26 25 23 22 20 19 14 16 18 18 19 21 27 25 26 26 29 30 26 23 27 30 32 33 34 35 35 34 35 33 33 33 31 30 28 26 25 23 21 20 20 20 20
23 29 27 22 17 14 23 28 26 14 19 21 21 18 16 20 21 23 23 24 26 27 26 31 35 31 27 30 34 34 34 36 37 38 37 36 37 38 35 34 31 29 28 27 25 23 22 22 22
23 20 16 13 15 19 24 35 24 11 21 25 26 24 20 20 17 19 24 26 30 27 28 27 36 39 34 30 34 38 35 36 36 40 39 39 41 40 39 38 35 33 31 30 28 26 25 24 23
11 15 15 18 14 20 24 39 32 33 34 31 29 24 20 21 20 18 17 23 27 31 30 28 31 39 41 35 34 39 39 36 36 40 40 42 42 43 43 40 39 36 34 33 31 29 27 26 25
19 21 25 25 24 20 26 35 36 29 29 28 25 22 16 12 16 23 26 24 22 21 25 27 29 34 40 44 39 40 41 37 36 37 40 40 42 43 44 43 42 39 36 36 33 31 29 28 26
24 23 23 23 22 23 23 30 36 13 11 10 10 10 15 20 21 23 22 29 24 21 26 25 29 27 34 39 48 42 41 40 39 35 37 39 40 41 43 43 42 40 38 37 35 34 31 29 28
15 20 25 26 21 26 30 25 13 17 15 13 15 16 19 23 27 27 27 27 30 29 30 29 30 32 31 33 43 48 46 44 43 42 40 39 38 37 41 43 42 41 38 38 37 35 33 31 28
18 20 24 25 29 26 15 16 6 5 17 17 19 21 23 24 27 26 29 27 28 31 31 32 32 34 38 38 36 46 51 54 50 48 41 39 39 36 40 42 42 41 39 39 38 36 34 32 30
20 12 20 26 22 8 17 10 20 14 17 15 13 12 17 21 21 23 25 26 30 33 32 30 30 28 29 40 43 37 45 53 52 50 45 43 44 40 38 42 43 42 40 40 38 36 35 34 31
20 17 19 22 24 22 25 10 5 17 7 1 1 7 14 19 23 24 25 26 24 29 34 27 27 28 27 27 43 49 46 47 49 49 46 48 47 46 42 42 42 42 41 40 39 38 34 33 33
16 15 27 13 16 10 16 18 5 11 13 7 1 8 14 21 29 33 34 36 37 37 39 42 39 37 36 34 36 36 46 53 51 49 52 48 49 50 48 45 43 43 41 41 41 38 35 34 33
10 19 8 2 5 5 5 7 4 9 7 3 7 12 18 22 33 42 43 43 47 49 50 53 56 57 55 47 39 37 39 40 57 53 55 55 50 50 53 48 46 43 42 41 42 39 37 36 34
21 6 6 5 4 10 33 5 8 10 10 7 17 21 31 38 38 41 44 44 48 48 51 52 56 58 59 55 49 43 36 34 36 56 58 60 57 53 50 53 49 45 43 42 42 40 38 37 35
6 7 11 11 20 19 11 12 10 15 16 24 31 36 40 40 37 40 40 46 41 34 33 30 32 40 46 48 42 46 46 39 33 37 49 61 60 58 55 52 50 48 44 42 41 40 40 37 35
9 11 4 4 5 5 7 17 15 30 37 41 42 43 44 47 45 47 51 42 39 39 37 30 35 41 42 40 37 38 39 38 35 38 42 51 57 56 59 54 48 48 46 42 42 41 39 36 34
12 17 16 18 17 4 5 10 9 25 35 39 43 39 37 35 36 41 43 44 43 38 31 35 37 36 40 39 33 37 36 30 29 35 38 44 50 50 57 60 50 45 46 43 42 40 38 35 34
16 13 12 9 7 13 12 44 41 26 34 43 39 38 35 33 38 39 41 43 44 34 35 38 42 37 34 39 38 37 39 39 34 32 32 42 49 45 53 59 53 44 46 44 42 39 37 35 33

GFSSGP_700_spd_027.txt.gz
Wind_Speed
3 2 7 11 5 8 11 6 6 3 2 12 9 8 8 5 7 7 15 12 6 6 4 3 2 1 3 5 6 5 4 4 5 4 5 5 6 7 7 7 7 7 7 4 2 4 5 6 7
1 3 6 10 8 9 10 8 2 4 4 14 13 11 8 8 11 12 13 11 7 6 5 3 2 2 3 4 6 4 3 2 2 2 4 5 6 7 7 5 6 7 8 7 5 4 4 4 5
2 3 6 6 3 3 9 4 4 7 9 14 10 10 8 13 14 13 14 11 9 5 6 4 3 4 4 5 5 5 3 2 1 0 2 4 6 7 7 7 6 5 6 6 6 6 5 4 2
2 3 6 4 8 16 9 3 6 10 11 16 11 7 13 16 19 19 18 11 11 7 6 8 4 4 6 7 7 5 4 3 2 2 2 3 5 6 7 7 7 5 5 4 4 5 5 5 3
2 4 3 7 13 10 6 11 11 11 7 15 16 14 13 17 18 22 22 17 12 10 8 9 7 7 8 9 9 8 6 6 4 4 4 4 4 5 6 6 6 6 5 5 4 4 3 3 3
3 5 3 7 11 7 10 9 6 3 3 12 12 13 10 16 19 18 17 21 15 11 7 11 12 12 12 12 12 11 9 8 7 6 6 5 5 5 6 7 7 7 6 5 6 6 5 3 4
5 7 8 10 10 8 12 15 17 18 16 11 8 10 15 15 18 18 20 23 19 13 11 10 15 16 16 15 14 14 12 11 11 10 9 8 7 6 7 8 9 9 9 8 7 7 7 6 6
9 10 13 13 11 13 12 8 8 12 14 8 13 11 18 21 25 27 24 23 21 15 14 14 13 18 19 19 18 17 16 15 14 13 12 11 10 9 8 9 10 11 11 10 9 9 9 8 9
11 12 16 15 10 16 14 18 17 17 16 19 10 17 21 22 22 22 19 21 24 22 18 16 15 13 18 20 20 20 19 19 18 17 16 15 13 13 12 12 11 11 11 12 12 12 11 11 12
12 15 15 11 16 20 18 19 19 20 16 14 14 14 17 15 20 23 24 22 22 22 21 19 15 16 14 18 20 22 23 22 21 20 19 18 16 17 16 15 15 13 13 13 12 13 14 13 14
14 15 14 14 16 18 19 19 20 22 19 14 15 9 18 21 22 24 28 26 25 25 22 20 17 16 17 15 18 20 22 24 24 24 23 22 20 20 20 19 19 17 16 15 15 14 14 15 15
16 15 16 17 19 21 21 22 22 22 20 17 16 17 18 21 24 25 29 29 24 25 24 22 18 19 20 17 17 17 21 23 25 26 27 26 25 25 24 23 23 22 20 18 18 17 16 17 17
18 18 19 22 23 24 25 25 24 19 15 14 15 16 16 18 25 27 26 28 24 24 24 27 28 23 24 23 20 21 20 23 25 26 29 29 29 28 29 27 27 26 24 23 20 19 19 18 19
19 21 21 24 23 21 20 18 16 17 14 15 10 9 9 11 14 18 20 21 25 27 25 27 32 32 30 29 26 25 24 22 26 27 29 32 31 32 31 31 30 30 28 27 25 22 22 20 21
20 25 21 10 13 18 22 20 20 20 22 17 11 12 12 12 11 19 22 20 22 22 21 24 29 33 34 35 32 30 30 28 27 27 28 31 31 33 34 34 33 33 32 30 28 26 25 24 22
18 16 11 12 8 15 18 31 27 28 21 19 19 20 21 20 24 24 24 23 22 21 20 22 28 28 31 35 38 37 34 32 30 29 29 29 31 33 34 36 35 35 34 33 31 30 28 27 25
5 9 14 17 17 22 21 36 32 30 29 28 20 11 18 21 24 28 29 30 27 26 25 27 27 30 29 32 38 41 42 41 36 33 32 30 30 32 34 36 36 37 36 35 34 32 32 29 28
14 20 24 27 21 18 20 31 28 25 24 19 16 20 27 29 30 31 31 29 29 25 29 29 28 31 30 29 27 39 41 43 43 38 33 32 31 32 34 34 36 36 36 36 35 34 35 32 30
20 23 24 22 21 24 24 30 28 12 12 16 17 21 29 33 33 30 28 30 33 31 24 31 33 34 36 35 28 32 38 43 44 46 40 34 32 32 34 34 34 35 35 35 37 36 36 33 33
20 20 26 26 16 22 25 15 18 16 17 16 20 22 23 27 29 29 29 31 30 34 32 30 36 36 37 36 34 37 43 43 47 46 47 44 37 34 34 36 36 35 34 35 36 36 36 35 34
19 17 23 25 28 23 12 8 12 10 8 16 20 22 26 29 30 32 31 29 29 31 34 32 35 36 38 41 41 43 41 48 47 50 51 51 45 41 38 39 40 37 36 35 35 36 36 35 34
24 17 20 23 19 7 16 8 12 11 13 16 20 23 27 31 32 34 32 31 30 33 34 36 36 36 35 40 44 47 50 44 44 51 51 48 50 45 42 41 42 41 37 35 34 35 35 36 34
18 17 22 21 23 21 6 8 9 14 12 9 14 18 21 26 30 30 30 29 30 30 30 30 35 36 34 32 31 36 50 46 43 47 54 56 52 48 45 41 43 44 42 37 35 36 35 36 35
17 21 29 10 6 4 7 17 16 10 10 11 11 13 17 22 28 32 34 35 39 41 44 48 48 48 48 47 46 43 38 42 51 54 56 62 59 58 52 47 42 45 46 42 38 36 36 36 36
12 22 7 3 1 6 5 6 9 16 14 9 11 16 23 29 34 40 43 45 46 51 53 54 57 60 61 63 63 62 62 59 51 49 50 51 58 57 59 55 48 43 44 45 42 38 37 36 36
8 8 2 4 3 5 21 8 14 20 11 9 16 25 32 38 41 44 44 40 42 45 43 44 45 48 46 43 44 44 51 54 52 46 50 49 47 54 58 58 57 51 44 44 46 42 38 36 36
8 5 6 8 15 9 8 4 20 13 14 21 25 33 43 43 45 45 43 42 40 38 38 41 36 41 45 42 41 40 39 43 37 31 45 47 48 45 53 56 58 58 52 46 46 46 39 37 35
7 8 4 3 3 5 9 12 17 19 24 28 38 46 46 39 42 42 43 47 40 41 38 35 36 38 40 37 34 38 42 38 39 33 40 44 46 44 45 51 53 56 55 49 44 47 42 38 35
9 11 8 8 10 6 4 7 20 26 31 42 46 55 47 39 42 45 46 42 46 48 38 35 38 37 41 35 35 37 41 37 38 36 33 39 40 39 46 48 45 49 52 48 44 44 44 39 35
11 9 12 7 6 12 9 29 32 34 33 46 38 35 36 30 41 43 43 45 49 45 38 42 40 41 44 36 36 32 38 38 35 37 36 37 39 31 43 46 40 48 52 48 44 42 43 40 35

GFSSGP_700_spd_033.txt.gz
Wind_Speed
3 7 7 7 5 6 5 3 2 4 9 12 16 15 13 9 9 4 12 14 11 10 9 6 4 3 2 0 1 2 3 4 5 6 7 8 9 9 8 7 8 8 8 5 4 3 5 5 6
2 5 7 7 9 11 6 3 2 5 7 13 16 15 15 14 13 10 13 14 11 9 10 7 5 2 2 1 0 0 1 2 3 5 6 7 8 9 9 8 7 8 8 8 7 6 5 4 4
3 5 7 5 11 15 9 5 4 6 8 10 14 13 12 13 13 15 14 14 12 8 9 8 7 4 3 2 1 1 1 1 2 3 4 6 7 8 9 8 8 7 8 7 8 8 7 6 4
2 5 5 6 11 13 11 2 2 6 8 9 13 13 13 12 12 17 19 21 13 9 8 7 8 7 5 5 4 3 3 2 2 2 2 3 5 7 8 8 7 6 6 6 6 7 7 7 6
1 5 5 2 4 8 6 4 2 3 7 12 17 16 14 12 14 17 19 21 16 15 11 9 9 9 7 7 7 7 7 6 4 4 3 3 3 4 6 7 7 7 6 5 5 5 6 6 6
2 4 5 5 5 4 4 1 3 8 12 16 18 16 15 13 17 18 19 18 17 13 13 10 11 13 12 10 10 10 10 9 8 7 6 4 4 4 3 4 6 7 7 6 6 6 6 6 6
3 5 6 6 7 9 5 5 7 12 14 19 21 19 19 14 19 20 18 16 18 16 14 7 9 13 15 15 15 14 14 12 11 10 9 8 7 6 6 5 5 6 7 8 7 6 6 7 6
5 7 7 8 11 9 6 9 13 16 17 19 22 14 21 18 17 18 19 15 15 16 14 9 9 9 11 14 17 18 17 16 15 14 13 12 12 10 9 9 7 8 8 9 8 8 8 8 7
6 8 9 10 10 9 10 10 12 14 15 15 17 20 21 22 21 20 21 19 15 16 17 16 14 11 10 11 13 15 18 19 19 17 16 15 15 14 14 13 12 11 10 10 10 9 9 10 10
8 10 9 10 11 13 14 14 15 17 15 17 14 16 20 20 20 21 22 22 19 19 21 21 17 13 10 8 9 11 15 19 21 21 20 18 17 18 17 17 16 15 13 12 12 11 11 11 11
11 12 11 10 13 14 16 16 18 18 16 17 17 17 20 19 18 16 16 16 15 16 18 16 16 15 13 11 10 11 11 15 18 20 22 21 20 19 20 20 19 19 18 16 15 14 13 12 12
14 11 12 12 13 17 19 19 18 7 13 12 15 17 17 19 20 20 17 17 19 18 16 12 12 13 14 15 16 17 17 15 16 17 18 20 22 22 23 23 23 22 21 20 19 17 15 15 14
13 12 14 15 17 17 15 7 9 7 15 17 15 17 19 19 18 18 18 19 19 21 22 19 17 14 11 14 16 18 20 18 17 19 18 18 19 20 23 26 25 24 24 23 22 20 18 17 16
14 17 16 16 9 9 10 8 6 5 14 14 13 13 15 16 17 18 20 22 23 25 27 25 23 22 21 21 19 19 19 17 17 19 21 20 19 19 20 21 25 27 26 26 25 23 21 19 19
15 18 16 9 5 12 15 9 5 12 19 18 22 21 22 22 24 24 25 26 27 29 31 30 29 29 29 28 28 28 26 26 23 20 19 16 20 21 21 20 22 24 27 28 27 26 24 23 22
17 18 9 9 12 14 16 16 10 18 20 25 26 26 26 27 28 30 31 33 35 35 32 31 31 32 34 34 35 34 34 33 33 31 28 25 19 17 20 23 21 22 24 25 26 27 26 26 25
13 11 11 11 15 15 19 22 19 18 24 26 28 30 31 33 33 31 30 30 30 29 29 30 32 34 35 38 40 39 38 36 36 36 34 32 29 22 20 22 24 22 21 23 25 27 28 28 27
9 13 14 16 17 20 18 16 24 26 23 19 19 21 23 24 25 27 28 29 30 30 29 30 32 34 35 37 41 45 44 43 41 39 40 41 38 31 29 26 26 24 23 23 24 25 27 29 30
10 15 19 18 19 13 19 22 23 22 17 15 16 17 19 20 21 23 24 25 25 25 26 27 29 29 31 33 35 39 44 46 43 42 42 43 44 44 35 35 35 30 30 25 27 27 28 28 30
14 16 19 14 9 16 17 19 16 16 17 18 17 19 20 20 21 22 22 23 24 24 25 27 28 28 28 30 33 37 39 41 42 43 42 42 46 46 46 42 39 39 34 39 35 32 30 29 30
15 14 13 15 18 16 10 8 13 17 18 19 20 21 21 23 24 25 26 26 26 28 28 28 28 29 30 30 26 26 30 34 35 38 39 41 43 41 46 46 46 43 40 42 36 41 32 31 32
12 13 16 17 17 5 9 6 18 21 20 20 23 24 26 26 27 28 29 31 30 31 32 33 34 36 37 37 37 37 37 37 37 37 38 39 41 47 48 48 48 45 49 46 47 44 40 33 33
13 17 19 22 24 21 17 10 9 20 22 21 22 23 25 28 30 32 34 36 38 38 39 40 42 44 47 49 51 51 51 51 51 50 49 48 46 43 45 47 48 50 51 48 49 48 43 40 35
16 17 21 11 7 4 5 10 11 18 21 24 21 22 23 26 30 32 34 37 39 43 46 49 52 52 52 52 54 55 57 58 58 58 58 57 55 53 48 45 49 52 53 53 50 46 47 44 41
12 14 6 3 2 5 7 9 17 19 21 21 22 24 24 28 31 34 40 47 50 49 48 48 51 53 53 51 49 48 45 45 45 46 48 51 50 48 50 50 48 50 54 54 53 49 47 50 47
10 8 2 4 3 6 14 8 7 12 19 23 25 26 28 31 37 42 48 50 47 45 48 49 50 50 48 47 46 42 41 37 39 39 41 44 46 44 43 46 46 47 47 53 54 54 49 50 52
6 5 7 6 9 4 6 9 16 17 23 25 28 29 32 35 41 48 49 46 47 50 50 50 52 53 47 44 42 43 38 36 39 39 41 42 44 46 45 44 43 45 44 43 50 53 54 51 52
8 7 4 5 3 5 7 10 18 18 22 25 29 32 35 40 47 49 46 47 50 50 52 54 54 52 44 40 42 45 42 42 39 43 44 46 47 47 48 47 45 44 43 43 43 47 50 51 52
9 7 5 5 6 4 4 7 15 24 20 23 25 31 44 48 46 45 48 49 50 51 48 47 44 45 45 48 46 44 45 43 43 43 43 45 44 45 47 49 49 44 42 41 42 42 42 49 49
11 12 12 7 5 9 5 24 19 15 19 28 28 45 46 45 46 47 46 49 50 50 48 50 50 51 52 53 44 44 44 45 43 41 40 37 39 42 44 49 47 44 41 40 41 39 38 44 49

GFSSGP_700_spd_036.txt.gz
Wind_Speed
5 7 7 8 7 6 8 4 4 7 9 14 16 15 17 17 18 5 15 16 12 9 9 9 7 5 4 5 5 6 6 6 7 8 8 9 10 10 10 9 10 10 10 9 7 5 6 6 6
5 7 8 11 10 11 8 6 5 7 9 11 13 15 12 15 15 16 17 21 16 10 8 7 6 5 3 3 4 4 4 5 5 6 7 8 9 9 9 8 8 9 9 10 9 8 6 5 5
4 8 5 5 13 14 6 5 5 5 8 11 13 16 11 13 11 17 18 21 17 14 9 8 7 5 3 2 2 3 3 3 3 4 4 6 7 7 8 7 7 7 7 7 8 8 7 6 6
3 6 5 7 10 10 8 2 2 3 7 11 15 10 11 12 10 15 18 18 16 13 10 6 6 7 5 3 2 1 1 1 1 1 2 3 4 5 6 6 6 5 5 5 5 5 5 6 6
3 5 5 3 5 4 3 2 3 5 8 12 17 15 11 11 11 11 15 16 18 14 13 8 6 7 7 6 5 5 4 3 3 2 2 1 1 2 4 5 5 4 3 3 3 3 3 3 3
2 4 4 3 3 4 3 3 4 6 10 13 16 16 13 9 9 11 15 14 14 15 14 12 9 9 10 11 9 9 8 7 6 6 6 5 3 2 1 1 3 3 4 3 2 2 2 3 2
3 5 4 4 4 6 4 7 8 11 13 15 17 16 9 9 13 14 12 12 11 13 13 11 11 9 9 11 14 14 12 11 10 10 9 9 8 7 6 5 3 2 3 3 3 3 2 3 4
5 6 6 6 8 7 4 7 11 12 13 13 14 11 17 17 15 16 15 13 12 12 13 13 14 11 8 7 8 10 13 15 15 14 13 12 11 11 10 10 8 6 5 4 4 4 3 3 4
6 8 8 9 8 8 11 12 12 11 12 14 14 19 21 19 17 14 14 11 11 10 10 12 12 13 10 9 8 8 9 10 14 17 17 15 15 14 14 13 13 12 10 8 7 6 6 5 5
8 9 8 8 10 11 14 14 15 15 12 14 11 15 20 21 21 20 17 15 13 11 10 8 5 6 7 8 9 12 16 15 13 14 17 19 18 16 16 16 16 16 15 13 11 10 8 7 6
10 11 10 10 12 14 16 17 18 14 12 12 13 13 14 15 18 21 21 19 17 15 14 13 9 6 5 4 6 9 13 16 17 15 13 12 16 19 19 19 19 19 18 17 16 14 13 11 9
12 12 11 12 13 16 18 16 8 9 9 10 12 13 15 16 17 18 20 20 19 19 17 16 13 13 10 9 5 5 7 8 10 12 13 12 11 12 14 19 21 22 21 20 20 18 17 15 13
13 12 11 14 16 18 12 6 9 10 10 11 14 16 17 19 18 17 18 19 19 20 21 22 21 18 16 17 12 12 13 12 10 11 11 13 14 12 12 13 16 20 22 23 22 21 20 19 16
13 14 14 13 16 11 7 9 9 12 14 16 17 20 19 20 21 21 21 22 22 22 23 24 25 26 25 23 23 20 18 18 16 18 17 15 12 11 12 14 14 15 18 21 23 23 23 23 21
13 14 16 14 11 13 11 13 15 15 15 18 25 23 27 25 23 24 26 27 30 30 30 30 30 27 26 27 28 29 27 26 25 24 25 25 22 18 15 10 12 16 16 18 20 23 24 24 23
17 17 10 10 12 15 15 14 13 14 23 25 25 31 28 27 27 27 28 29 30 30 30 30 27 25 27 27 29 30 33 34 32 29 30 31 31 29 24 21 15 14 16 17 17 19 21 23 24
14 10 9 10 13 15 14 19 21 18 20 23 24 24 23 23 22 22 22 22 24 27 28 29 30 30 29 29 31 32 33 35 37 37 34 34 35 36 34 33 26 26 23 19 19 19 19 21 24
8 10 10 11 15 20 18 14 18 22 20 18 18 18 18 18 19 19 20 21 22 23 26 27 27 27 27 30 31 32 33 34 35 37 39 39 41 40 39 39 34 30 30 29 26 24 24 22 22
8 11 14 14 19 15 16 20 18 20 18 16 16 17 18 19 19 19 20 20 21 22 24 25 27 27 27 26 26 28 30 33 36 37 38 39 41 43 44 43 42 38 39 34 31 31 30 27 27
12 13 15 9 7 18 18 19 18 17 17 17 17 17 17 19 20 21 23 24 25 26 27 28 29 29 29 29 28 28 29 30 32 36 37 38 40 41 41 43 45 43 41 42 39 37 35 34 36
12 12 8 11 15 19 13 17 16 15 17 18 19 19 19 20 22 24 24 25 27 28 29 31 33 34 36 37 37 37 36 35 32 32 33 35 37 40 40 43 41 45 42 36 45 42 41 38 34
10 7 14 17 15 6 9 9 18 20 22 21 21 23 24 25 26 27 29 30 32 34 36 39 41 43 44 45 46 48 48 49 49 48 44 43 40 38 39 43 47 49 49 54 51 47 46 46 47
10 13 17 20 21 18 15 9 10 14 19 21 22 24 26 27 29 29 31 34 36 38 40 42 45 47 50 52 53 54 56 57 56 54 54 53 49 48 47 46 46 47 49 48 49 48 49 46 50
12 14 19 11 7 4 2 9 8 11 14 19 22 24 26 27 29 31 32 35 39 43 48 51 55 57 57 56 56 55 52 47 46 46 46 45 45 44 43 44 44 45 47 49 50 49 50 50 51
9 11 5 4 3 5 4 8 19 17 18 19 21 24 26 29 31 33 37 41 45 48 52 55 56 56 55 53 49 48 45 44 40 40 42 42 42 39 37 35 36 39 42 43 47 51 52 53 52
10 7 2 4 3 6 14 9 6 11 14 18 21 24 28 30 34 36 40 44 48 51 51 51 53 55 55 55 52 48 44 41 37 40 42 43 43 43 42 39 39 37 36 38 40 41 46 52 55
5 5 6 5 8 4 6 9 15 19 17 16 20 25 29 32 36 39 44 48 50 49 50 52 54 55 54 54 53 51 49 48 47 45 44 45 43 44 44 44 44 42 41 38 36 37 38 41 48
7 9 4 5 3 5 6 11 17 14 14 17 20 24 29 33 37 45 46 44 46 49 53 52 53 54 53 53 54 53 52 51 50 45 41 44 46 45 44 45 45 44 43 42 40 37 37 39 39
10 11 6 6 7 4 3 8 14 24 20 16 20 25 28 41 43 44 45 46 50 51 52 54 54 55 54 54 53 50 48 46 44 43 41 43 44 44 43 43 43 44 43 42 41 39 37 39 40
15 17 15 8 6 9 5 22 14 12 21 20 20 33 41 44 44 45 49 52 54 55 56 56 56 53 52 51 53 53 52 51 48 44 42 44 44 42 41 42 43 43 41 43 44 41 36 38 40

GFSSGP_700_spd_039.txt.gz
Wind_Speed
7 7 5 6 5 7 11 7 8 9 11 15 16 14 15 18 20 7 16 19 15 9 8 7 7 5 5 6 8 8 9 9 8 8 8 9 9 9 8 8 9 9 10 8 7 6 6 6 6
6 6 8 7 8 10 10 10 9 8 9 11 12 13 13 13 14 15 17 20 14 12 6 5 5 5 4 5 6 7 6 6 6 6 6 7 8 8 7 7 7 8 9 9 8 6 6 6 5
5 5 4 4 11 9 6 7 6 6 8 10 12 9 12 12 10 13 16 19 17 11 9 5 4 4 3 2 3 5 5 5 4 4 5 5 6 6 6 5 5 6 6 6 7 6 6 5 5
4 5 7 7 7 9 7 4 3 4 5 9 12 7 8 8 7 9 13 16 16 15 10 5 4 4 3 1 2 2 3 4 3 2 2 3 4 4 4 4 4 3 3 3 4 4 3 4 4
3 4 4 5 4 3 3 2 1 3 5 8 11 9 4 2 2 4 10 13 14 15 13 9 4 3 5 4 3 4 5 5 4 3 3 2 2 2 2 2 2 2 1 1 1 1 1 1 1
2 4 3 2 3 1 0 0 2 4 8 10 8 9 9 4 3 4 8 10 11 12 12 12 11 8 5 7 8 7 6 7 7 6 6 5 5 4 3 2 1 0 1 0 1 2 2 3 3
2 5 4 4 3 3 2 4 6 9 11 11 9 8 7 4 7 9 6 6 6 8 8 9 10 9 8 6 7 8 10 9 10 10 9 8 8 7 7 6 5 4 3 2 2 3 4 5 4
2 4 5 5 6 3 1 6 8 8 11 13 13 8 10 11 12 11 7 5 6 7 7 8 7 6 4 5 5 5 5 7 10 10 11 12 11 10 10 10 9 8 7 6 6 4 5 6 6
4 5 6 7 5 5 8 10 9 8 11 12 14 14 15 13 13 13 13 10 9 9 8 8 6 4 2 3 3 6 8 7 4 5 10 12 14 13 13 12 12 12 12 11 10 9 7 7 8
6 7 7 7 10 10 12 13 12 12 11 9 10 14 13 12 13 13 14 14 12 11 12 11 10 7 3 4 2 1 4 8 9 9 7 9 14 16 15 15 15 15 15 15 14 13 12 10 9
8 8 9 10 12 14 14 16 15 14 11 9 6 6 10 12 11 12 13 14 14 13 14 14 12 11 11 9 7 4 2 1 4 6 10 8 8 12 18 19 19 19 18 18 18 17 16 15 13
10 11 11 11 12 17 17 15 10 9 9 10 10 8 11 15 16 16 14 12 12 13 14 15 13 12 12 13 14 13 10 9 7 7 7 8 12 12 12 15 19 22 22 21 20 20 19 18 17
13 12 9 11 14 17 12 6 8 11 11 11 12 14 15 17 19 20 18 16 15 16 16 16 16 16 17 18 18 16 17 16 15 13 13 13 11 12 16 16 16 17 19 23 24 23 22 21 21
11 10 11 11 14 13 10 11 12 12 14 16 15 15 20 20 24 23 20 20 20 20 22 22 22 21 22 22 22 23 22 20 21 20 19 20 20 18 16 18 22 20 19 19 21 24 24 23 23
10 10 14 15 13 11 12 13 13 15 17 16 18 22 21 23 23 21 21 22 23 23 21 20 20 19 17 19 22 24 26 27 27 26 26 27 26 26 26 25 23 25 23 21 19 20 23 26 26
13 15 13 11 12 13 14 17 16 15 16 21 20 21 22 19 17 16 17 17 17 19 20 20 18 17 18 19 21 23 25 28 30 32 33 33 34 33 34 32 31 28 30 27 24 23 22 24 26
13 11 11 12 13 15 14 18 20 18 16 18 19 17 15 13 12 13 14 15 16 17 19 21 23 25 25 22 20 22 25 28 30 32 34 36 38 39 38 37 36 36 35 32 30 28 25 24 25
10 11 11 10 14 16 18 18 15 19 18 17 14 13 13 13 13 13 14 15 16 18 19 21 21 23 25 28 30 30 28 27 28 31 33 33 34 38 42 43 41 41 41 40 35 33 30 28 27
8 9 12 13 17 16 10 17 19 18 18 15 12 12 13 13 13 14 15 17 19 21 23 24 25 25 25 25 23 21 23 27 30 33 34 35 37 37 38 40 44 45 45 45 43 40 38 35 32
9 11 13 11 10 16 16 21 20 20 18 15 14 13 14 14 15 17 18 19 21 23 25 26 28 29 30 31 32 33 34 35 36 35 35 35 35 36 40 41 41 42 47 46 47 46 43 41 36
9 12 8 10 16 20 18 19 13 14 17 16 15 15 15 16 16 18 20 23 26 28 30 32 34 35 37 39 40 41 41 40 41 40 41 41 41 40 38 38 39 41 43 44 46 50 48 45 44
10 8 11 15 15 6 11 8 16 15 16 16 16 15 16 18 21 25 27 30 32 33 35 37 39 41 44 47 48 49 49 50 50 49 47 46 46 46 41 41 42 43 45 44 48 50 47 49 48
8 11 15 17 17 16 12 7 8 11 12 11 13 15 17 21 25 27 29 30 32 35 38 40 42 46 48 49 49 50 50 51 52 50 50 48 44 39 39 41 42 44 47 49 50 51 52 53 55
9 12 16 10 6 3 2 8 8 8 11 12 14 16 18 21 25 27 29 32 34 37 40 44 47 47 47 49 49 50 51 49 49 48 46 46 45 43 37 34 37 41 42 44 48 50 52 53 53
6 7 3 1 1 2 2 8 12 16 18 14 16 16 18 22 27 29 32 34 38 42 46 47 48 49 49 51 51 51 52 53 53 51 48 46 44 43 43 40 34 36 38 38 40 41 43 46 50
6 2 1 4 3 4 11 8 6 9 12 14 13 15 18 24 28 30 33 37 43 44 45 48 50 52 52 52 52 53 53 53 53 53 53 52 51 46 42 43 42 37 37 39 38 36 35 37 41
3 2 4 5 3 3 5 10 16 20 12 13 14 15 23 26 29 32 37 43 42 45 47 49 51 53 53 54 55 54 53 53 53 53 52 52 53 50 48 43 41 40 38 37 38 38 36 36 36
6 5 3 2 1 3 6 12 19 17 14 15 14 22 24 28 32 39 42 43 44 49 49 51 52 53 53 52 51 50 50 49 50 50 53 53 51 47 46 46 42 39 39 37 36 37 37 36 33
8 7 4 2 3 3 3 8 18 28 22 13 22 24 26 31 39 45 44 45 50 50 52 54 54 55 55 53 51 48 46 46 47 47 48 49 51 47 46 45 43 39 37 37 35 34 34 33 32
12 14 12 6 6 9 5 22 11 15 12 24 28 28 31 35 44 44 45 51 52 53 55 57 58 58 56 52 50 49 48 45 44 45 45 43 43 46 48 45 42 40 37 36 36 35 34 34 32

GFSSGP_700_spd_045.txt.gz
Wind_Speed
4 4 5 6 5 8 13 8 8 9 8 10 10 10 12 15 10 5 10 16 12 8 4 4 4 2 3 4 5 5 5 4 3 3 3 4 4 3 3 4 4 3 3 2 3 3 4 3 4
4 5 6 7 2 10 11 7 8 8 7 8 8 6 8 15 12 8 9 12 12 9 4 2 2 2 1 4 5 5 5 4 3 2 1 2 2 3 3 3 3 3 3 3 2 1 2 2 3
5 4 5 2 5 14 10 5 5 6 9 8 5 6 2 6 4 4 5 9 12 11 8 3 2 2 1 2 4 5 6 5 4 3 2 1 0 1 1 1 1 1 1 0 0 0 1 1 2
5 6 6 3 8 8 7 6 6 3 5 9 6 8 6 1 1 2 6 10 14 12 11 7 3 3 3 4 6 7 8 7 7 6 5 4 3 2 1 1 2 2 2 3 3 3 3 3 3
5 5 2 4 7 8 6 4 5 5 3 6 7 2 4 2 3 4 7 8 12 11 10 8 6 5 7 7 7 9 9 9 9 9 8 7 6 6 5 4 3 3 4 6 6 5 6 5 5
4 2 2 5 6 6 5 4 4 4 4 5 2 1 10 3 5 5 7 7 10 11 11 10 8 7 6 7 10 11 11 11 12 12 11 11 11 10 9 8 7 6 6 7 7 7 8 7 8
3 1 1 3 5 4 1 0 2 3 2 6 1 2 6 4 7 7 9 10 9 11 12 11 9 8 8 7 6 8 11 14 14 14 15 15 15 15 14 13 12 11 10 10 9 8 9 10 10
0 1 2 2 4 4 3 2 5 3 10 7 4 6 12 9 11 12 9 10 11 10 11 4 6 8 7 8 8 7 8 9 12 15 17 18 19 19 18 18 17 17 16 15 13 12 12 12 13
2 1 2 1 3 3 3 1 9 8 12 11 9 6 7 7 7 7 5 6 10 11 7 7 6 6 11 12 11 9 10 9 10 11 13 16 19 21 21 21 21 21 21 21 20 17 17 16 15
3 4 2 4 4 3 8 7 10 6 12 13 9 6 5 5 4 4 6 10 13 16 16 15 15 12 12 11 15 9 14 12 13 14 15 14 15 17 21 23 24 24 24 25 25 25 22 22 20
5 3 8 9 8 10 10 12 11 11 15 12 10 8 6 5 4 4 5 9 13 16 19 18 18 17 17 16 13 14 15 14 13 12 14 19 18 18 18 20 22 25 27 27 28 28 29 27 26
4 10 11 13 13 13 12 13 12 11 10 10 11 12 11 10 10 8 9 10 13 14 16 17 18 18 20 20 19 19 19 19 19 19 20 20 20 22 21 21 22 22 23 24 29 30 31 32 31
4 15 15 15 13 14 14 14 13 13 12 12 13 14 15 15 13 14 14 15 16 17 17 17 18 19 20 23 23 24 25 25 23 25 25 25 24 24 24 26 27 27 26 26 26 26 29 32 34
15 16 15 15 15 15 16 17 16 15 13 14 16 17 17 16 19 16 16 17 16 17 18 18 20 21 22 23 24 25 26 28 30 31 31 31 31 30 30 30 30 30 31 32 31 30 30 29 29
14 9 13 15 17 17 15 18 18 14 14 17 18 18 19 20 18 17 15 13 13 14 14 14 13 14 16 18 20 21 22 22 24 28 33 35 36 36 36 36 35 35 36 37 37 37 35 33 31
11 11 11 14 14 17 14 11 19 18 16 17 20 23 18 18 16 13 11 11 11 11 11 11 11 12 13 14 15 17 19 21 23 25 27 28 29 31 35 40 42 41 43 41 40 39 38 38 37
11 13 10 12 17 15 16 11 23 19 20 22 20 20 19 16 14 12 11 10 10 10 11 13 14 15 17 19 20 20 21 22 23 25 26 28 30 30 32 33 35 37 42 47 47 47 47 45 42
11 10 12 12 14 14 14 17 28 23 20 19 20 19 18 16 13 12 11 10 11 12 13 15 16 18 20 22 23 24 26 28 30 31 32 33 35 35 37 38 39 39 39 39 42 46 48 51 49
18 14 15 12 20 18 18 19 25 21 21 21 19 18 16 15 13 13 12 12 13 14 15 17 19 20 22 23 25 27 29 31 32 34 34 35 37 38 39 40 43 45 46 46 44 44 45 46 49
12 11 11 13 20 16 12 20 18 27 22 21 19 17 16 16 14 13 13 14 15 17 18 20 23 25 28 28 29 30 31 31 33 34 34 34 35 36 38 40 42 44 46 48 51 51 50 49 47
9 11 11 12 14 18 18 21 15 21 16 15 16 16 17 14 13 14 15 17 16 18 22 26 29 31 34 36 37 37 39 40 41 41 42 43 43 43 43 43 42 42 44 47 49 52 54 55 51
10 15 14 10 9 9 10 9 10 15 13 12 12 15 14 14 14 15 16 17 19 24 28 30 32 35 38 38 40 42 43 43 43 43 44 46 48 50 50 49 49 47 45 45 46 50 52 54 58
9 14 13 13 13 15 15 7 7 12 12 10 11 11 12 14 15 16 15 19 24 26 27 30 35 38 38 40 43 45 46 47 48 48 49 51 51 50 51 51 51 51 51 48 46 46 50 53 54
15 12 13 10 7 9 11 9 5 6 8 9 11 12 14 14 15 14 18 25 29 31 32 34 39 40 42 44 45 47 48 49 51 52 53 53 53 53 52 52 52 53 52 49 48 46 46 49 52
11 5 5 7 5 2 5 7 12 8 11 10 10 11 11 15 14 15 25 30 30 32 35 39 42 44 45 47 48 49 50 51 53 54 55 54 54 54 52 51 51 52 51 52 51 46 46 44 48
6 7 9 6 6 7 5 8 5 9 8 9 12 12 16 17 17 23 30 31 33 36 39 42 46 47 49 50 50 51 52 53 54 53 53 52 51 51 51 51 51 52 52 52 52 50 47 46 44
5 4 9 8 12 7 8 6 13 11 3 14 12 15 19 18 19 31 31 33 35 38 42 46 48 50 51 50 51 52 53 53 53 52 50 50 49 48 48 49 51 51 51 51 47 47 48 43 44
13 9 5 5 5 8 7 11 14 12 12 15 16 18 19 18 29 30 32 34 38 42 45 49 50 51 51 51 53 54 54 53 52 51 49 48 49 49 50 51 52 50 51 50 45 43 43 41 43
7 7 7 8 8 7 10 7 8 8 13 13 17 18 20 25 31 30 31 36 40 44 48 49 51 51 51 52 54 55 54 52 50 49 48 48 49 49 49 49 50 49 46 44 41 34 37 38 38
14 11 10 9 7 11 10 24 15 13 15 18 22 14 16 21 28 31 36 39 43 47 48 50 51 51 52 54 55 55 53 50 48 47 47 46 47 47 48 47 47 42 41 45 39 33 37 38 35

GFSSGP_700_spd_051.txt.gz
Wind_Speed
7 5 2 5 9 13 16 16 9 12 14 7 4 7 8 2 10 4 7 13 11 8 4 4 4 3 2 2 3 3 2 1 1 2 2 3 3 2 2 2 2 2 3 4 4 5 5 3 4
5 6 6 9 15 24 18 9 11 7 15 7 7 8 11 9 10 8 9 10 10 8 6 5 4 4 4 4 4 4 4 3 2 3 3 3 3 3 3 2 2 2 2 2 2 3 4 4 3
6 5 12 17 13 11 16 10 7 4 6 5 5 6 9 6 6 6 8 10 11 11 9 7 6 5 5 5 5 5 6 6 5 5 5 4 4 4 4 4 4 3 3 3 2 2 2 2 2
6 8 10 18 19 11 10 8 6 4 2 3 5 5 7 8 4 4 8 9 10 11 11 10 8 7 6 6 6 6 7 8 8 7 7 6 6 6 5 6 6 6 6 5 5 5 4 3 2
5 4 8 13 13 9 8 7 4 2 1 5 2 2 4 9 4 3 8 12 11 10 10 9 9 6 5 6 7 8 7 8 9 9 9 9 9 9 8 8 7 7 7 7 7 6 6 7 6
3 4 3 19 14 9 8 7 6 4 1 3 5 3 6 6 3 3 7 12 12 9 9 8 5 6 6 6 6 6 8 10 10 11 11 12 12 12 12 11 11 10 10 8 8 9 8 9 9
1 5 14 14 12 8 4 4 7 5 3 4 11 6 6 4 4 6 5 13 14 12 11 4 9 5 6 7 5 8 7 7 8 11 13 14 13 14 14 15 15 15 14 13 12 11 10 10 10
1 2 4 11 13 7 6 7 5 6 7 3 7 9 8 6 8 9 6 10 7 13 9 3 5 9 5 8 7 10 11 9 8 9 9 11 12 14 14 17 19 19 18 18 17 16 15 15 14
4 3 4 8 7 5 7 11 11 8 9 9 8 11 12 13 14 15 15 15 14 10 11 11 15 13 9 9 10 8 11 13 12 12 13 10 12 12 14 14 17 19 21 22 21 20 20 20 19
5 4 3 3 5 8 9 11 14 15 13 9 10 9 10 12 14 16 16 14 13 12 13 15 18 18 20 13 13 13 15 15 15 15 13 13 19 14 14 12 16 16 17 20 22 24 24 24 23
5 5 6 7 8 10 13 13 13 16 16 13 11 10 9 9 11 14 15 15 13 14 15 17 18 20 21 23 21 18 17 17 17 18 19 20 21 19 18 22 20 14 20 22 21 21 21 22 24
5 6 8 9 11 13 17 16 14 14 15 14 14 13 12 11 11 13 17 19 17 17 18 17 18 21 22 23 23 23 23 23 23 23 23 24 23 23 23 24 28 27 25 21 20 23 21 22 24
6 8 9 12 15 17 17 16 13 15 16 15 16 16 14 13 15 17 19 19 20 20 20 21 20 19 20 22 23 24 24 26 27 28 27 28 28 29 30 31 30 31 33 34 30 27 29 28 26
9 11 14 16 17 15 14 15 16 15 17 17 17 17 16 16 18 19 20 22 19 18 20 20 19 19 21 22 23 25 24 24 25 26 26 27 29 30 32 34 35 36 36 39 39 39 37 35 35
10 13 17 17 13 13 12 16 15 17 15 14 17 17 18 19 18 20 21 20 17 16 16 16 17 17 17 17 18 19 21 21 22 23 23 24 26 27 29 30 32 33 35 36 37 40 42 43 42
12 14 17 13 14 15 14 20 21 17 15 16 19 19 18 20 20 19 18 18 14 11 12 13 13 14 15 16 17 17 19 20 21 22 24 25 26 27 28 29 32 33 34 35 36 37 37 39 40
10 12 16 18 18 20 18 22 22 21 20 19 21 23 23 22 18 16 16 15 14 13 11 12 12 12 15 16 18 19 20 20 21 22 23 24 26 27 28 28 30 33 35 36 37 39 40 40 40
9 9 11 10 14 17 21 25 25 26 25 23 25 25 26 22 19 17 15 14 14 14 13 12 13 16 17 19 19 20 21 23 24 25 26 27 28 29 30 30 31 33 34 35 37 38 39 40 42
13 18 19 19 17 21 23 27 26 30 27 27 26 28 29 25 22 15 14 13 14 13 13 14 15 18 21 22 21 22 22 23 23 26 29 31 32 34 34 34 34 35 36 36 38 39 40 41 43
16 20 21 16 12 16 20 28 29 29 30 24 24 25 25 26 22 14 11 13 14 13 13 14 19 22 25 25 26 28 29 31 32 34 35 37 38 38 39 40 41 41 41 41 43 44 44 43 42
18 16 15 14 19 22 26 33 12 12 15 23 24 22 22 23 18 14 13 13 11 13 15 17 23 25 26 28 30 33 34 35 37 38 38 37 38 39 39 39 41 42 44 45 45 45 46 48 46
15 18 17 16 19 15 13 10 24 21 15 13 19 18 15 17 16 14 15 15 14 17 18 24 27 26 28 31 35 38 41 43 43 43 42 40 39 40 42 43 43 44 44 46 46 46 47 47 46
15 14 13 15 17 19 23 12 12 11 10 9 11 12 10 11 12 15 17 18 19 18 21 28 28 28 30 34 38 43 46 47 46 43 43 43 44 44 44 46 47 47 47 47 46 45 45 46 47
12 15 14 12 10 4 9 14 6 6 9 7 11 7 5 7 12 10 15 19 21 21 26 29 29 31 34 39 43 47 48 46 45 45 46 46 47 48 48 49 49 50 50 49 48 47 46 46 47
13 10 2 1 1 6 3 8 11 14 13 12 7 6 6 7 7 12 19 22 22 24 31 31 32 35 39 43 46 47 46 45 46 48 49 51 52 51 51 51 51 51 50 50 49 47 46 46 47
6 7 3 4 3 4 7 7 5 11 11 11 8 7 6 7 9 17 21 24 24 29 31 33 37 40 44 46 47 46 46 47 47 50 51 52 53 53 54 54 53 52 51 50 49 49 48 46 48
7 9 7 5 13 5 6 5 4 6 10 11 12 14 11 12 19 24 26 25 26 29 32 36 41 44 46 47 47 46 47 48 51 52 52 53 54 55 55 54 54 52 51 50 49 50 49 49 49
13 5 4 6 2 4 4 1 2 10 14 13 14 14 12 17 22 28 27 26 28 30 35 40 44 46 47 46 46 47 48 51 52 53 54 55 55 55 55 54 52 52 51 50 49 51 50 49 51
7 13 9 6 6 5 1 3 7 15 14 11 14 17 22 27 29 29 29 29 29 34 39 42 44 46 46 46 47 49 51 52 52 54 55 56 56 55 55 53 52 53 54 53 53 52 53 52 52
9 7 8 6 3 3 3 7 7 9 9 7 13 18 27 30 24 28 27 28 34 39 40 41 45 45 46 47 49 51 53 53 54 55 55 56 56 53 53 53 54 53 53 52 52 49 48 47 48

GFSSGP_700_spd_054.txt.gz
Wind_Speed
7 4 4 8 7 14 18 13 9 5 4 9 5 5 9 5 3 3 4 10 9 6 5 4 5 4 3 3 3 3 2 2 2 3 4 5 5 5 4 4 4 4 4 3 4 4 4 2 3
6 6 4 6 16 18 14 10 7 9 9 2 5 6 7 4 5 6 8 9 7 7 5 5 4 4 4 4 3 3 4 4 4 4 4 4 4 5 5 5 5 4 4 5 5 4 5 5 2
8 9 11 16 15 16 13 10 3 7 11 5 5 6 8 6 5 4 7 7 7 8 7 6 5 4 4 4 4 4 4 5 5 5 5 5 4 4 5 5 5 5 5 4 4 4 3 2 4
6 7 9 9 12 11 12 9 9 6 6 3 5 9 4 8 4 5 4 5 6 6 5 6 6 6 5 4 4 5 6 7 7 7 7 7 7 6 6 6 6 6 6 6 5 5 5 5 6
3 8 16 16 13 12 11 7 4 6 7 8 10 8 7 7 6 8 8 8 7 7 6 6 5 3 2 3 3 5 7 8 9 10 10 9 9 8 8 8 8 8 7 7 7 7 7 7 8
2 7 13 15 13 10 8 9 8 6 5 6 7 9 7 4 5 10 11 12 8 9 10 9 6 4 4 3 4 2 4 8 11 12 12 13 13 12 11 11 10 10 10 9 9 9 8 9 9
2 3 15 14 11 8 5 4 7 6 7 10 9 9 8 6 5 7 5 13 18 13 9 10 6 3 6 6 6 7 7 6 8 8 9 10 12 14 15 15 14 14 13 13 13 12 11 11 10
5 7 16 13 12 7 7 6 7 7 7 9 10 6 9 9 9 12 14 18 18 16 9 7 8 7 5 5 6 9 7 8 7 9 9 11 9 9 10 12 14 15 16 16 16 16 16 16 15
6 3 13 12 13 10 7 9 11 10 9 9 10 13 14 13 14 15 18 18 19 15 15 14 12 12 10 10 10 12 12 14 12 13 12 11 12 10 11 13 14 14 13 14 16 18 19 19 19
9 6 5 6 4 6 9 13 14 15 13 12 10 12 14 13 15 17 18 17 15 17 16 18 20 20 17 12 13 14 14 16 16 17 16 16 17 18 18 18 15 15 14 12 15 17 16 17 19
8 7 7 6 9 10 13 16 18 18 16 13 12 12 12 14 15 15 16 17 17 19 22 21 21 23 22 21 20 20 19 19 19 20 20 21 22 22 23 21 23 20 18 21 20 18 17 18 17
8 8 8 9 10 13 16 18 20 19 16 15 15 13 13 14 15 15 16 17 19 21 22 23 22 21 22 23 23 23 23 23 23 24 24 25 27 28 28 27 27 28 29 30 25 22 23 23 21
9 9 10 11 13 17 20 20 18 17 17 18 18 16 14 15 17 17 18 19 21 22 22 23 22 22 21 21 21 22 23 25 26 26 26 25 25 27 29 30 31 33 34 34 33 33 32 29 29
9 9 11 14 17 19 19 18 17 14 17 20 19 17 15 17 18 19 19 19 21 22 21 20 20 18 18 19 20 21 21 20 20 22 23 24 26 26 27 28 29 30 31 32 33 34 35 36 36
11 12 15 17 18 17 16 17 13 13 17 19 17 17 16 18 20 20 20 20 19 19 17 16 14 14 14 14 16 17 19 20 22 24 25 26 26 27 29 30 31 32 34 34 35 36 37 37 37
12 14 17 15 11 16 16 19 14 17 17 16 17 17 17 18 20 23 22 18 17 16 14 12 12 12 13 15 16 18 18 19 21 22 23 25 26 27 29 30 32 34 35 36 37 39 39 40 41
15 15 13 13 13 14 16 21 19 21 21 21 20 19 19 19 20 21 21 18 15 13 11 9 10 12 13 14 17 18 18 19 20 22 24 25 27 28 29 30 31 33 34 36 37 37 39 38 40
14 17 11 12 15 20 21 24 20 21 24 24 24 21 21 21 20 18 18 20 16 12 9 8 10 12 13 16 18 19 19 22 24 25 27 29 30 31 32 32 33 35 35 36 37 39 40 42 42
13 14 17 18 22 23 23 23 20 20 28 30 28 23 22 21 21 18 17 15 14 12 9 8 10 12 16 19 20 21 22 24 26 28 30 32 34 35 36 36 36 36 37 37 38 40 40 41 43
11 15 20 23 22 21 19 27 25 26 33 24 23 21 20 21 22 15 12 13 13 11 9 9 11 17 21 23 23 24 26 28 31 34 36 39 39 39 39 39 39 38 40 41 41 43 44 45 44
16 19 21 22 20 21 25 31 23 12 14 21 18 18 19 19 17 12 10 10 10 11 12 14 16 22 25 25 27 29 31 33 36 37 38 39 39 39 39 39 40 40 41 42 43 44 47 48 47
18 19 18 17 15 13 15 9 27 22 14 8 7 11 15 16 11 8 8 9 9 13 16 18 20 25 27 28 30 34 37 40 41 42 42 41 40 41 42 42 43 43 44 45 46 46 47 49 50
16 14 14 15 17 18 21 9 14 13 4 2 3 6 12 11 9 9 7 7 11 16 19 20 23 27 28 30 34 38 42 45 46 45 44 42 42 42 43 45 47 48 49 49 50 49 49 49 50
13 13 14 17 13 5 5 8 4 2 4 6 5 8 8 7 7 6 7 12 16 19 20 19 27 29 31 34 38 43 45 46 47 45 45 45 45 46 47 49 50 51 51 52 52 52 52 51 50
14 12 4 2 1 6 3 6 10 10 13 10 7 2 3 3 4 5 11 18 20 21 20 24 30 31 34 38 42 44 46 46 46 47 48 49 50 51 51 52 52 53 53 54 54 53 52 52 52
6 8 5 5 3 4 4 6 5 8 6 6 5 5 5 9 5 9 17 20 20 21 22 29 33 34 39 42 43 46 46 47 48 49 51 53 54 55 56 56 56 55 55 55 54 54 53 52 52
6 8 8 5 7 3 5 6 5 1 3 6 4 6 8 9 14 18 20 21 22 23 26 31 34 40 41 42 46 47 48 49 50 51 53 56 57 57 58 58 58 57 56 55 53 52 50 49 51
14 7 4 6 2 4 5 4 4 3 8 5 6 12 13 14 18 23 22 21 26 27 29 34 40 40 41 46 49 50 51 51 52 54 56 57 57 58 58 58 58 58 56 53 52 51 51 50 49
9 15 10 6 5 5 2 2 4 3 2 7 11 15 19 22 22 19 21 24 28 29 34 39 38 39 43 48 51 52 52 52 54 56 57 59 59 59 60 59 58 55 53 52 51 49 47 47 46
8 7 9 6 4 5 3 7 10 7 7 12 24 27 25 20 21 19 21 24 27 33 36 37 37 42 46 52 53 52 52 53 55 57 58 58 58 58 57 55 54 53 51 47 45 45 44 44 43

GFSSGP_700_spd_057.txt.gz
Wind_Speed
7 7 4 11 6 8 13 8 7 5 6 6 5 5 9 5 2 0 1 3 5 6 5 4 5 5 4 3 4 4 3 3 4 5 5 6 6 6 7 7 7 7 7 6 6 5 4 4 4
5 4 4 6 15 14 9 6 4 6 6 2 5 6 9 5 5 5 2 6 8 8 6 6 5 4 3 3 3 3 3 3 3 4 5 5 5 5 6 6 6 6 6 6 6 6 6 5 6
6 6 7 9 9 11 8 5 2 3 3 2 3 7 7 5 2 3 3 4 6 6 4 4 3 2 1 1 1 3 4 4 5 5 6 6 6 5 6 6 6 6 6 5 5 5 6 6 6
5 8 7 6 13 12 10 5 1 3 4 4 4 7 7 8 6 4 1 2 2 3 4 4 5 5 5 4 4 4 4 5 6 7 8 8 8 7 6 6 6 6 6 6 6 6 6 8 8
3 7 6 16 12 11 10 5 1 5 8 10 10 11 10 9 8 6 4 4 4 7 10 9 8 6 6 5 6 6 5 6 7 9 10 11 10 10 10 9 8 7 6 6 6 6 7 8 9
3 8 11 13 10 9 8 9 9 9 8 8 9 11 10 12 11 10 10 9 7 10 12 11 9 6 6 8 7 7 8 7 7 7 8 10 12 12 12 12 12 11 10 9 9 8 8 8 10
2 5 15 13 10 8 7 3 4 7 9 9 12 12 11 12 13 14 14 14 13 12 11 9 7 3 4 5 7 8 8 7 8 8 8 9 9 9 11 12 13 14 15 13 12 11 11 11 10
6 5 14 13 11 7 7 5 5 8 10 11 11 10 13 15 15 16 16 13 14 13 11 6 7 6 6 6 8 9 8 10 12 11 10 11 12 12 11 12 11 11 12 14 15 15 15 14 14
8 7 12 13 12 10 7 7 8 9 11 13 13 13 14 16 17 17 16 16 18 16 11 11 11 11 12 11 11 11 13 13 13 14 15 14 13 15 17 17 18 16 13 14 12 11 12 15 17
9 7 8 11 12 8 8 10 12 13 13 15 14 13 14 15 16 17 17 16 16 17 16 17 18 18 18 16 14 14 15 15 16 17 17 17 19 20 21 22 20 17 18 16 14 15 15 14 14
12 10 9 7 7 9 11 15 17 17 17 16 15 15 14 14 16 18 19 18 16 17 18 20 23 23 24 21 19 18 18 19 18 18 19 20 22 23 24 25 24 23 23 22 22 21 21 17 17
12 10 10 10 11 12 14 17 19 20 19 16 16 15 15 15 16 18 20 20 19 19 20 22 25 25 25 23 21 19 19 20 21 22 24 23 24 25 26 26 27 27 27 28 29 29 26 26 25
12 11 11 12 13 15 17 20 22 22 19 16 17 18 17 16 16 17 19 21 22 22 23 24 24 24 23 22 20 20 20 21 22 22 22 22 23 24 25 26 27 27 28 28 30 30 30 30 31
13 13 13 13 15 19 22 22 21 18 16 14 18 18 17 15 15 16 18 20 22 23 24 25 23 21 19 18 18 18 18 18 20 21 22 23 25 26 28 29 30 31 31 32 32 32 33 34 34
14 14 16 16 18 21 22 23 16 14 12 15 16 15 15 16 16 16 18 19 20 21 22 21 17 14 12 12 13 15 17 19 21 22 23 24 24 25 26 27 30 32 34 35 35 36 37 37 37
16 17 18 18 18 15 15 23 16 16 17 18 19 15 15 16 16 16 17 18 17 18 17 15 13 12 11 12 13 15 17 18 20 20 22 23 24 25 27 28 30 31 33 34 35 36 37 38 39
17 18 20 20 17 15 14 19 16 18 19 19 18 17 16 17 17 16 16 15 14 14 13 12 10 10 10 12 14 15 17 18 20 21 24 26 28 30 31 32 33 35 35 37 38 38 41 40 41
20 20 21 20 15 17 21 24 21 21 22 21 21 21 19 16 17 18 17 13 12 10 9 9 9 8 9 11 14 16 18 20 22 23 26 28 30 32 34 35 36 37 38 38 40 41 41 42 43
18 15 16 17 18 22 26 29 23 19 25 25 24 26 21 15 17 17 16 13 9 6 6 7 8 8 11 13 16 17 18 20 23 26 30 33 35 37 37 37 36 37 37 37 39 41 42 41 43
14 15 17 17 19 23 27 31 29 25 26 28 26 21 15 15 15 14 12 9 5 5 4 7 9 12 15 18 20 21 22 25 28 31 35 39 40 41 41 41 40 39 40 40 40 42 44 43 43
14 16 18 20 22 22 26 32 20 14 17 17 16 20 18 13 12 11 8 5 3 3 4 8 13 16 19 22 24 25 28 30 34 37 39 41 42 43 43 42 42 42 43 43 43 44 46 48 45
16 16 16 16 15 8 13 10 29 18 11 11 8 7 8 8 8 6 3 2 3 6 9 12 17 20 22 25 27 29 32 36 39 43 42 42 42 41 42 43 44 45 46 47 48 48 49 50 51
13 15 16 15 15 18 21 9 12 11 1 1 2 1 2 4 3 1 3 2 5 10 12 16 19 20 25 28 30 33 36 41 44 45 46 43 42 42 43 45 47 48 49 50 51 51 52 53 55
14 15 14 16 16 5 8 8 5 1 1 4 4 4 2 0 2 3 3 3 9 13 15 19 20 22 27 30 33 37 43 45 46 46 46 46 46 46 47 49 50 51 52 53 54 54 55 54 55
12 10 5 2 0 6 2 5 10 10 9 4 4 3 2 1 3 3 3 11 13 13 17 21 23 25 31 34 37 42 45 46 47 48 50 51 52 52 52 53 53 54 54 55 56 57 57 56 56
5 8 5 4 2 4 5 6 3 5 4 3 3 3 2 6 4 4 11 14 14 17 20 24 26 28 33 38 41 43 46 48 50 52 54 56 57 57 57 57 57 57 58 58 58 58 58 57 56
4 7 7 4 5 3 6 5 5 0 3 3 1 2 4 8 8 12 15 14 15 19 23 27 29 32 39 41 42 45 48 51 54 55 56 57 58 59 59 60 61 61 61 61 60 60 58 55 53
12 7 4 5 2 4 4 5 3 1 2 1 1 4 7 10 13 16 15 15 18 22 28 31 33 38 41 43 44 46 51 53 57 57 59 59 59 60 61 62 62 62 62 61 59 58 55 54 53
9 13 8 4 4 4 2 2 2 3 3 4 7 15 19 18 13 13 15 19 23 28 31 32 38 42 42 43 45 49 55 57 59 61 61 60 60 60 61 61 62 61 60 57 55 53 51 50 48
8 8 10 7 4 5 3 6 12 10 10 10 16 24 21 14 12 12 15 19 24 28 31 38 44 40 41 45 49 54 57 59 60 59 58 58 59 60 61 61 61 59 56 52 49 46 45 44 45

GFSSGP_700_spd_060.txt.gz
Wind_Speed
8 6 4 8 3 3 9 6 5 4 6 7 7 5 9 8 2 1 3 6 4 4 5 3 3 4 2 1 1 1 2 2 3 4 6 7 7 7 7 7 8 8 8 7 7 6 7 7 6
6 5 6 8 4 12 8 7 7 6 3 4 5 6 9 6 3 2 4 5 5 6 5 5 4 3 3 2 2 1 1 1 2 3 4 5 6 6 6 6 6 6 5 6 6 6 7 6 7
5 4 5 5 9 7 6 6 2 2 3 3 3 7 6 6 4 3 3 5 6 6 8 8 7 4 4 4 3 3 2 2 3 3 4 5 6 6 5 5 5 5 4 4 5 5 6 6 7
6 5 3 4 9 7 5 5 2 3 5 7 7 7 9 7 5 3 4 5 7 7 7 8 8 7 6 6 6 5 5 5 5 5 5 6 6 7 7 7 6 5 4 4 4 5 5 6 7
7 7 5 8 9 7 5 3 1 3 7 9 8 9 9 8 6 6 7 7 7 8 10 8 7 6 7 8 7 8 8 7 6 6 6 7 8 8 8 8 9 9 8 6 6 6 6 6 7
6 6 6 10 10 8 6 3 3 7 9 9 10 12 13 11 9 9 8 8 6 8 10 9 6 5 5 7 8 9 9 8 8 8 8 8 8 8 9 9 10 10 11 10 10 9 8 8 8
4 7 8 9 8 6 6 5 4 6 9 11 12 13 14 13 13 13 11 11 9 9 9 6 6 5 5 5 7 9 9 8 9 9 8 9 11 12 8 9 9 9 10 11 12 13 12 12 12
6 5 11 13 11 7 5 5 5 7 9 12 13 11 15 15 15 14 12 11 10 8 9 7 5 5 6 7 9 11 10 12 12 11 12 11 10 8 12 12 12 13 12 11 10 10 11 12 14
8 7 9 11 11 10 6 5 7 9 11 13 16 16 17 16 15 14 13 13 13 10 9 9 10 10 9 9 12 12 12 13 14 15 14 14 14 15 16 17 18 19 15 14 13 10 9 10 11
10 10 8 9 9 11 9 8 10 12 14 16 17 17 17 17 16 15 14 12 12 13 13 13 15 15 12 15 15 15 15 16 16 16 16 16 16 17 20 21 21 22 20 18 18 17 16 17 15
11 10 6 7 8 8 10 11 13 14 16 17 18 17 16 16 16 16 16 15 13 14 15 16 18 19 22 22 19 18 17 16 16 16 16 17 18 20 20 21 22 23 22 23 24 24 23 21 20
13 12 10 8 10 12 12 14 16 18 19 19 18 17 17 18 17 16 16 16 15 16 17 18 20 23 24 22 20 18 17 16 17 18 18 17 16 17 19 19 20 21 21 22 23 25 25 26 25
14 13 12 12 12 13 15 18 20 20 21 18 15 15 18 18 17 16 16 16 17 18 19 20 23 23 24 22 19 17 16 16 15 16 17 18 19 21 21 22 23 24 24 25 26 26 26 27 27
14 13 12 14 13 15 18 21 23 22 17 14 12 13 16 16 15 15 16 16 17 18 19 20 21 22 20 16 15 14 13 14 16 17 18 19 20 21 22 23 25 26 27 28 28 29 29 30 31
16 13 14 15 15 19 22 26 20 14 11 10 13 15 14 14 15 15 15 16 18 19 20 20 19 16 13 12 11 12 13 15 17 18 18 19 20 21 23 24 26 28 29 30 31 33 34 34 34
17 16 17 17 18 21 21 25 14 13 13 15 17 17 13 13 13 13 13 15 17 18 18 15 13 11 10 10 10 12 14 15 17 18 20 21 22 24 26 28 30 31 32 34 34 36 36 37 38
18 17 18 20 22 22 20 22 15 18 19 19 20 19 17 13 12 11 12 14 16 14 13 12 11 10 9 10 11 13 15 17 19 20 21 23 25 27 29 31 34 35 35 37 37 37 39 38 39
19 19 21 23 21 18 20 25 20 22 23 22 22 22 20 17 13 13 12 13 12 12 11 10 10 9 10 10 12 13 16 17 19 21 22 25 28 31 33 36 37 37 37 37 39 39 39 40 40
19 17 19 19 17 20 23 27 23 24 26 25 24 23 22 20 17 14 11 11 9 7 9 10 10 9 11 12 13 15 17 19 21 24 26 29 32 35 38 38 38 39 38 38 39 40 40 39 42
19 19 19 17 16 20 24 30 28 27 23 22 23 24 23 20 16 12 10 9 6 6 7 9 10 11 13 15 16 17 19 21 24 28 31 35 38 40 40 40 38 38 38 38 39 41 43 42 42
15 15 15 16 19 22 26 31 18 18 23 21 18 14 16 18 14 9 9 7 5 4 4 6 9 13 17 19 20 21 23 26 29 32 35 40 42 43 43 42 41 40 42 42 43 44 46 48 45
13 13 14 15 16 9 16 10 29 11 10 7 8 10 13 13 11 9 7 5 5 3 2 6 11 15 20 23 24 25 27 30 33 37 40 43 44 43 43 43 44 45 46 47 48 49 49 51 52
12 12 14 16 15 17 19 8 9 11 2 4 3 1 2 7 7 6 6 6 4 3 7 10 14 18 22 25 26 28 31 35 40 44 45 46 45 45 45 46 47 49 50 50 51 50 51 52 53
11 13 14 16 16 4 5 6 3 3 5 7 4 3 3 7 7 5 6 5 4 8 11 14 18 22 25 27 29 32 36 41 45 47 49 49 50 50 49 50 51 52 52 52 52 52 53 53 54
11 9 4 3 1 5 3 5 7 8 4 3 2 3 4 6 1 4 5 3 7 11 14 17 21 24 27 28 30 36 41 45 48 51 53 54 56 56 56 56 54 53 53 54 54 55 55 55 56
6 7 4 4 2 4 6 5 2 4 3 3 3 6 3 2 3 6 7 9 11 15 17 20 24 26 28 31 36 41 46 49 50 52 55 58 60 61 61 58 57 57 57 56 57 58 59 59 59
6 7 6 4 4 2 4 3 2 1 3 2 2 1 2 2 5 8 13 15 15 16 19 23 25 29 34 37 41 46 49 49 51 54 57 61 63 61 58 57 58 58 58 59 60 60 60 59 58
11 6 3 5 2 3 4 4 4 4 4 5 5 5 6 9 11 12 14 15 16 19 22 26 30 35 39 41 46 47 48 50 55 58 61 61 57 57 58 58 59 59 60 60 60 60 58 55 52
10 11 8 5 4 4 2 2 3 5 8 8 11 12 15 19 16 14 16 17 19 23 27 30 34 38 43 48 51 49 50 54 57 59 56 56 57 57 57 59 60 60 60 59 58 56 53 51 48
9 9 10 6 4 6 2 5 11 10 11 12 14 19 23 24 16 15 17 22 25 26 29 31 37 47 46 46 47 50 52 54 53 54 54 54 55 56 58 59 59 59 58 55 52 49 48 46 45

GFSSGP_700_spd_063.txt.gz
Wind_Speed
6 4 3 5 1 3 6 5 6 6 5 6 5 5 7 7 3 2 3 6 5 3 3 4 3 3 2 4 2 1 1 1 2 3 4 5 6 6 6 6 6 6 6 6 5 5 6 7 7
6 7 4 7 2 5 6 7 5 3 4 5 4 6 8 7 5 3 4 4 6 6 8 7 5 2 2 1 1 1 0 0 0 1 2 3 4 4 4 4 4 4 4 4 4 4 5 5 6
5 4 5 3 5 4 6 6 3 3 4 4 4 6 6 6 5 4 5 5 6 6 6 6 5 3 3 3 2 2 2 2 2 2 2 3 3 3 3 4 4 4 3 3 2 3 3 4 4
7 6 4 2 4 4 5 5 3 2 4 6 5 4 6 8 7 7 7 8 6 6 5 3 5 5 5 6 6 5 3 3 3 3 3 3 4 4 4 4 4 4 5 5 5 4 4 4 4
9 8 5 4 7 5 4 4 2 1 4 7 6 7 7 7 7 7 7 7 6 6 7 6 5 6 6 7 7 6 6 6 6 5 3 3 4 5 6 6 6 6 6 6 7 7 7 6 6
9 9 7 8 9 5 5 4 3 4 5 7 9 10 10 7 6 7 5 5 5 6 7 6 5 4 4 4 5 8 7 6 6 5 5 5 6 5 5 5 5 6 7 9 9 9 10 10 9
9 9 7 8 8 7 6 5 2 2 5 7 10 11 10 11 8 8 8 7 5 5 6 5 4 2 3 5 6 7 7 6 7 6 7 8 8 6 5 5 5 6 7 7 8 11 12 12 12
9 8 9 10 10 8 6 5 5 5 6 9 10 11 13 13 11 10 10 9 4 5 5 4 2 4 5 4 7 10 9 10 10 10 10 9 11 9 9 10 10 12 11 10 9 9 9 10 11
10 8 8 12 12 10 8 5 6 8 9 11 12 13 14 13 12 11 12 10 7 5 5 4 4 6 6 7 9 11 12 14 14 16 14 13 13 15 14 15 15 17 17 14 13 13 11 11 11
12 11 7 8 11 10 9 8 8 11 12 14 14 15 15 14 12 12 12 10 9 9 6 5 9 11 11 11 13 13 14 15 16 15 14 13 14 14 16 18 18 18 18 17 18 17 18 17 18
14 12 8 7 10 10 9 10 12 13 14 16 17 17 15 13 12 13 12 11 11 11 11 10 12 14 15 17 18 17 15 15 13 13 13 13 13 13 13 14 15 15 16 16 17 17 18 18 21
15 13 9 7 8 9 11 12 14 16 17 19 20 17 13 12 13 13 12 12 11 12 12 14 15 16 18 19 18 17 14 12 12 12 11 11 12 13 14 15 16 17 18 18 19 19 20 20 20
16 15 12 10 10 11 13 15 17 18 20 20 17 13 11 12 13 11 10 11 12 14 15 16 17 18 18 19 16 13 10 10 10 11 12 13 14 14 15 16 17 18 19 20 21 22 22 22 22
18 15 14 13 11 12 14 18 19 21 22 17 13 10 11 14 13 10 10 11 13 14 15 16 17 18 17 14 11 9 9 9 10 11 11 12 13 14 15 17 19 21 22 23 25 25 26 28 28
13 14 15 15 13 13 16 21 21 17 15 12 11 13 14 14 11 10 11 11 13 15 15 16 17 15 12 10 9 9 9 10 11 11 13 14 15 16 17 19 20 22 24 26 27 29 30 30 31
21 17 15 13 15 18 18 24 21 16 12 13 15 16 16 13 11 10 11 12 13 14 16 15 13 11 9 9 8 9 9 11 12 14 15 16 17 19 22 24 26 27 29 30 30 31 31 33 34
15 16 16 16 18 21 23 25 19 15 18 19 18 18 19 16 11 10 11 13 14 15 14 12 11 10 9 8 8 9 10 13 14 15 17 18 20 22 25 28 30 32 34 36 35 35 36 35 36
17 16 17 19 21 22 23 25 20 21 23 23 23 21 21 17 13 12 14 14 13 13 12 12 11 9 9 9 9 11 13 15 17 18 19 21 23 26 29 32 34 35 35 36 36 35 35 36 37
16 18 20 19 18 19 22 26 22 21 26 28 26 24 21 18 17 15 14 14 13 12 11 11 10 10 10 11 12 14 16 18 19 22 24 26 28 31 33 35 37 36 35 35 36 36 36 36 39
19 20 21 20 19 17 20 26 24 23 17 17 19 22 22 21 20 14 13 12 12 10 9 10 10 11 12 14 15 17 18 20 22 25 28 31 33 36 39 40 39 39 38 38 39 42 43 43 42
18 18 15 14 16 18 22 25 12 19 20 14 16 18 17 20 18 13 11 11 11 8 8 8 9 11 14 17 21 23 24 23 25 29 33 35 38 41 43 44 44 43 43 43 43 44 47 49 46
14 14 13 13 14 8 15 8 25 10 9 8 7 6 12 15 16 16 14 10 9 10 8 7 8 11 16 19 22 25 26 27 31 34 36 39 43 45 46 48 48 47 48 48 48 48 48 49 50
11 11 12 13 14 14 15 5 3 3 3 3 3 1 1 6 14 14 11 12 13 11 9 8 12 15 19 21 23 25 28 31 34 37 40 44 47 50 51 51 51 52 52 52 50 49 48 49 51
10 9 11 14 11 3 4 4 2 2 4 3 2 1 2 7 11 14 15 14 12 10 10 13 16 19 22 23 25 28 30 33 38 42 46 49 51 51 51 53 54 55 52 50 48 48 49 49 50
10 9 4 2 0 3 2 5 4 4 3 2 2 4 6 8 9 11 12 13 12 13 15 18 20 23 25 26 29 32 35 39 43 46 50 53 53 53 55 56 55 51 49 48 48 49 50 50 52
7 8 4 3 2 2 4 5 2 2 1 3 5 7 8 5 6 7 9 10 12 16 20 22 23 24 27 30 33 37 40 44 48 51 54 54 55 57 57 55 52 50 49 49 50 51 52 54 54
7 8 7 3 2 2 4 3 4 3 4 5 6 6 6 6 6 9 11 15 20 23 22 22 24 27 30 34 37 40 44 49 52 54 53 54 56 56 54 53 52 52 53 54 56 56 55 55 55
9 5 3 4 2 3 4 5 6 10 9 7 7 8 7 7 9 13 17 18 20 20 22 24 27 31 34 36 39 44 50 50 50 51 52 53 52 52 53 53 53 55 56 57 57 57 56 56 53
10 11 8 5 4 3 2 3 8 11 11 11 11 11 13 16 19 17 15 16 17 19 24 26 29 33 37 40 45 49 46 46 47 49 49 50 51 52 52 54 55 55 56 56 56 54 52 49 47
9 9 9 6 5 6 2 6 10 9 10 11 13 16 19 23 19 13 14 18 20 22 28 34 36 38 42 46 44 42 42 44 45 47 49 50 50 51 53 53 54 54 54 53 51 48 46 45 44

GFSSGP_700_spd_069.txt.gz
Wind_Speed
8 5 2 1 1 1 3 2 4 3 3 3 4 6 6 5 2 1 3 2 3 2 1 1 1 4 7 7 8 4 3 2 1 1 0 0 1 1 2 2 2 2 2 2 2 2 2 3 3
9 6 3 2 4 6 5 4 5 3 3 2 4 7 5 6 5 1 2 3 3 2 1 1 4 3 4 5 4 3 3 3 3 3 3 2 2 1 1 2 1 2 2 3 3 3 3 3 3
8 7 4 3 4 3 4 5 5 3 3 3 4 4 4 5 3 3 4 4 3 2 3 1 5 5 4 3 3 2 2 3 4 5 5 5 5 4 4 4 3 3 3 3 4 5 5 5 5
8 7 5 6 6 1 3 7 4 4 3 4 2 1 2 5 5 6 5 4 4 3 4 3 3 3 2 2 2 2 1 1 3 4 5 6 6 7 7 7 7 6 6 5 5 6 6 7 6
10 10 8 9 4 4 5 9 6 5 2 1 5 5 4 5 5 6 5 4 3 2 3 2 3 3 3 4 3 2 2 2 2 2 2 3 4 4 5 7 8 8 9 8 8 9 9 9 9
13 11 12 12 8 7 7 9 8 5 3 1 4 2 4 8 8 8 7 5 3 3 4 3 3 3 3 2 1 1 1 2 2 2 3 4 5 5 5 5 4 4 5 6 7 8 9 11 11
14 11 13 11 6 9 8 9 7 5 3 2 1 1 8 10 10 9 8 4 3 4 1 3 4 4 4 4 3 2 3 4 5 5 6 8 8 7 7 7 8 7 8 10 11 11 11 10 9
15 11 14 11 10 10 10 10 11 7 6 4 3 3 8 11 11 10 7 3 4 4 3 7 4 6 3 4 6 6 7 8 10 11 12 13 13 12 12 12 14 15 13 14 14 14 14 13 11
16 12 14 13 11 10 11 10 10 7 7 6 7 7 8 14 12 9 6 6 7 6 5 11 4 8 10 11 10 10 11 11 11 12 14 14 13 13 13 13 13 14 15 14 14 15 15 15 14
19 15 14 11 11 12 9 10 10 8 7 9 11 12 13 14 14 11 10 7 8 8 8 12 11 11 12 12 10 12 12 12 13 13 13 12 12 13 12 13 12 12 12 11 11 11 12 13 15
20 16 15 13 12 12 11 12 11 9 9 8 12 17 16 16 14 11 10 9 9 12 15 7 13 13 13 12 13 13 13 13 12 11 11 12 11 11 11 11 11 11 11 11 11 11 11 12 13
17 18 15 14 14 14 13 12 11 10 10 11 14 19 19 16 13 10 10 12 15 20 13 13 14 15 15 14 15 14 14 13 11 11 10 10 10 10 10 10 9 10 10 11 12 13 14 15 15
22 12 22 18 14 14 13 11 10 10 13 13 16 19 18 15 12 11 14 16 18 16 15 17 16 16 16 16 16 16 14 13 11 10 10 10 9 9 9 10 11 12 13 14 15 16 18 19 19
15 15 19 18 17 15 13 13 12 12 13 15 16 15 13 14 13 14 15 16 17 18 18 18 17 18 18 18 17 15 14 12 12 11 10 9 9 10 11 12 13 15 16 18 20 21 22 23 24
17 15 17 18 19 17 15 15 17 14 13 16 15 13 14 14 16 16 17 18 19 20 19 19 18 19 20 18 16 14 13 12 11 11 10 10 11 12 13 15 17 19 21 23 25 27 27 28 28
22 16 9 9 16 18 14 13 11 14 17 17 14 14 15 16 18 20 19 19 20 21 20 18 18 19 20 18 15 14 13 13 12 11 11 12 14 15 17 19 21 24 27 29 30 31 31 30 29
18 18 20 18 12 17 17 13 16 19 20 17 17 19 21 20 20 21 22 20 21 20 21 19 19 20 19 17 16 15 14 13 13 13 14 15 17 20 22 24 27 29 32 34 34 34 34 33 32
21 21 18 19 21 20 19 19 16 21 18 21 22 21 22 23 21 23 23 22 22 21 21 19 19 19 18 17 16 16 15 14 14 15 17 19 21 23 26 28 31 33 35 35 37 37 36 37 37
13 17 21 20 13 20 16 19 17 15 21 21 24 25 23 26 23 26 24 24 22 20 20 20 20 19 18 17 17 16 16 16 17 19 21 24 27 29 31 33 35 37 37 38 39 39 38 37 38
15 14 14 14 20 22 25 23 24 20 24 24 20 19 20 21 20 27 25 23 21 20 20 20 19 18 17 17 17 17 17 18 21 23 26 28 30 32 34 36 38 39 41 41 42 42 42 41 40
16 16 14 12 11 15 20 26 17 19 15 18 22 17 16 18 20 24 24 22 21 20 20 18 18 17 17 18 18 17 19 22 24 27 28 29 31 34 36 38 40 43 45 45 44 44 45 45 42
18 15 18 11 8 10 11 13 11 11 6 5 10 12 11 12 17 22 22 22 19 19 19 18 16 16 16 16 17 19 21 24 27 30 32 33 36 37 39 41 44 47 48 47 46 46 46 45 45
13 14 9 9 10 11 16 8 8 11 4 6 11 10 10 10 13 17 19 19 19 20 19 18 17 16 16 17 19 22 25 27 30 32 35 37 40 43 44 46 49 52 50 48 48 46 44 44 45
12 9 7 8 8 11 15 12 5 3 10 10 12 12 12 10 10 15 19 22 20 20 19 17 18 18 20 22 25 28 29 30 33 37 39 41 44 46 49 51 55 54 52 50 48 47 46 46 45
10 7 7 7 6 5 3 5 5 8 9 9 8 8 8 7 6 9 13 16 19 20 20 19 20 22 25 29 31 32 34 34 37 40 43 45 47 49 52 54 57 53 51 50 49 48 47 47 48
9 9 11 6 6 1 3 7 4 10 8 7 7 6 5 3 3 6 11 14 17 19 20 21 24 27 30 32 33 34 36 38 40 43 45 48 51 53 56 59 54 52 50 49 48 48 49 49 50
8 9 10 8 11 11 13 4 9 11 8 7 6 5 4 4 4 5 8 11 13 16 19 25 28 29 29 30 31 33 37 42 45 47 50 53 55 57 57 54 52 51 50 48 48 49 49 50 50
10 8 3 6 4 7 7 6 4 7 6 7 7 8 6 6 6 8 10 14 19 24 25 26 27 29 30 31 34 37 44 48 50 51 52 52 53 51 52 51 51 49 49 49 50 51 50 51 51
10 8 7 6 5 5 6 4 4 9 8 8 11 10 11 13 15 18 21 24 26 23 24 26 29 33 38 39 41 47 48 45 45 47 48 49 49 49 50 49 49 50 51 50 50 50 50 50 50
13 8 10 9 6 7 5 5 4 9 10 11 13 14 16 18 22 24 26 23 21 24 27 30 33 36 41 43 46 43 42 42 43 45 45 46 48 48 48 49 50 51 50 50 50 50 49 48 48

GFSSGP_700_spd_072.txt.gz
Wind_Speed
7 5 3 2 0 0 6 4 4 4 2 4 5 7 5 2 5 3 4 4 4 4 2 1 2 3 5 6 8 7 4 3 2 1 2 2 2 2 2 2 2 2 3 3 3 4 4 5 6
8 5 2 3 3 0 5 6 8 5 5 3 8 6 1 7 4 0 2 4 4 5 3 2 2 3 4 6 6 5 3 3 3 3 2 3 3 3 3 3 3 3 3 3 3 4 5 5 6
8 6 4 4 8 11 9 8 9 6 3 6 5 7 2 4 5 7 5 5 5 6 5 3 4 5 6 6 4 3 3 3 3 3 4 4 5 5 5 5 4 4 4 4 5 5 5 5 5
8 9 5 10 12 3 6 9 5 6 5 8 6 2 3 5 6 5 5 5 5 7 4 4 4 4 4 2 1 2 2 1 2 3 3 4 5 6 7 7 7 7 7 6 6 6 7 7 6
9 9 9 13 5 5 6 8 6 7 2 5 11 5 4 4 8 7 7 7 6 8 5 3 2 3 2 0 2 2 2 2 2 2 3 3 4 4 4 5 6 6 7 7 8 9 9 9 9
12 10 10 17 10 3 6 8 7 3 3 3 5 5 0 6 8 7 7 6 6 9 1 2 3 3 3 2 1 1 1 2 1 2 3 4 5 5 5 5 5 4 4 4 5 7 7 9 10
14 11 15 17 11 8 8 8 8 7 4 3 5 6 10 12 9 9 7 6 8 8 4 3 4 5 5 5 5 4 4 6 7 7 7 8 8 8 7 8 8 9 10 11 11 12 11 9 9
15 13 13 17 12 15 13 12 13 9 10 6 1 2 13 13 12 11 7 7 7 6 7 7 7 7 5 5 6 8 9 9 10 11 13 12 12 13 12 13 14 13 14 15 15 15 14 13 11
17 16 12 13 12 10 14 11 12 10 9 7 5 7 11 13 13 12 7 3 5 5 9 16 10 8 6 9 10 12 13 14 14 14 15 14 13 12 13 13 13 13 14 14 14 13 13 14 13
20 19 16 10 11 7 12 11 11 10 9 8 9 9 11 13 14 11 6 13 11 12 13 15 13 13 14 10 12 13 15 16 15 15 14 13 12 12 11 12 11 11 11 11 11 12 11 12 13
20 22 14 13 9 12 11 12 13 9 9 7 12 15 13 14 15 13 14 9 6 13 13 21 11 14 15 14 15 15 16 14 14 14 13 12 11 10 10 9 10 9 9 9 9 9 10 11 11
24 12 18 12 18 14 14 12 14 10 10 10 11 18 19 18 18 13 11 8 13 20 23 21 15 20 17 16 17 17 16 15 14 12 11 11 10 10 9 9 8 8 8 9 11 11 13 14 15
23 20 10 16 13 15 14 15 11 11 12 11 14 18 18 18 14 10 8 12 21 29 31 25 20 20 20 19 18 18 18 16 14 13 11 10 10 9 9 8 9 10 11 12 13 15 17 18 19
14 21 11 17 18 16 15 16 13 12 14 11 14 16 18 15 11 12 19 27 30 28 22 21 20 21 20 19 18 18 19 17 14 13 12 10 9 9 9 10 11 13 15 16 18 20 22 23 24
18 18 16 19 14 13 17 13 14 11 13 11 15 17 16 13 13 16 19 20 24 24 20 19 20 21 22 19 18 19 17 15 14 13 12 11 11 11 12 13 15 17 19 20 23 25 26 27 27
23 17 7 13 16 16 13 8 7 13 12 16 18 18 15 15 16 19 21 22 21 25 19 18 18 21 21 18 20 18 16 15 14 13 12 12 13 14 15 17 18 21 23 25 28 29 30 29 29
18 15 19 11 14 15 14 8 9 11 18 18 19 15 20 20 19 20 22 23 24 25 21 16 18 21 21 19 19 17 16 15 15 14 14 14 15 16 18 21 23 25 28 30 33 34 33 32 31
16 21 20 25 25 21 21 28 19 17 24 23 20 18 17 24 23 21 24 25 25 24 22 17 19 22 20 20 18 17 16 16 16 15 16 16 17 21 24 26 28 30 32 34 36 37 35 35 35
18 18 17 21 13 14 13 20 16 14 19 25 22 20 18 22 25 23 27 27 25 24 23 20 20 21 20 19 18 17 18 18 17 18 19 21 23 25 27 29 31 33 35 37 38 40 39 36 37
20 13 15 10 16 13 15 21 24 21 20 26 30 28 18 18 25 28 30 26 26 23 22 22 21 20 20 19 17 18 20 19 19 20 22 24 26 28 30 32 34 36 38 38 40 42 43 40 37
19 13 11 13 8 9 15 21 16 14 22 25 23 21 20 18 22 27 29 26 24 21 21 22 22 19 21 17 18 18 20 20 21 25 27 27 28 31 34 35 37 39 41 43 44 45 44 43 40
15 15 14 9 10 11 8 5 10 9 21 13 19 16 7 7 20 24 27 26 19 19 21 19 21 22 19 18 17 17 19 21 24 29 32 33 35 37 39 40 42 44 45 47 48 48 45 45 44
12 13 14 15 13 11 13 6 4 12 9 14 22 10 8 7 9 22 26 26 19 20 20 18 20 21 20 17 17 20 22 25 27 30 34 36 38 41 44 46 48 49 50 51 52 51 47 45 45
14 11 10 9 8 9 24 19 2 13 18 21 18 13 11 9 6 18 22 21 18 18 18 18 18 19 20 22 24 26 28 30 33 35 39 41 42 44 47 49 51 52 54 55 55 51 49 46 45
11 10 6 3 5 3 9 12 1 13 12 14 13 11 8 6 4 10 13 15 14 16 16 19 21 21 24 26 29 32 34 36 35 36 39 42 43 46 48 50 52 54 55 56 52 51 50 48 47
16 14 7 3 3 4 7 6 9 11 9 9 10 9 7 5 4 6 7 9 12 15 18 21 23 24 26 30 33 35 35 36 36 38 39 43 47 50 51 52 54 54 53 52 51 51 49 48 48
12 11 10 2 12 4 7 7 6 10 9 9 9 8 7 6 6 6 8 10 12 14 16 20 23 27 29 31 31 33 36 39 42 44 46 49 49 49 50 50 51 51 51 50 49 49 48 48 48
11 11 4 5 2 4 12 9 9 13 8 8 8 8 8 7 8 9 10 12 15 18 23 26 27 28 28 29 33 37 41 44 47 50 51 49 48 48 50 50 50 50 50 48 48 48 49 49 48
14 12 7 5 2 1 4 5 6 7 7 7 8 7 9 11 13 15 16 19 23 26 25 24 25 28 32 37 38 42 45 46 46 45 45 46 47 48 48 48 49 48 48 48 49 48 48 48 48
13 10 9 4 4 5 2 1 8 11 9 10 9 9 12 16 18 19 22 25 27 25 24 28 31 34 37 42 43 42 41 41 42 43 43 43 45 46 47 47 47 47 47 47 47 48 47 47 47

GFSSGP_700_spd_075.txt.gz
Wind_Speed
7 5 4 4 1 2 8 6 4 7 7 4 5 2 5 5 7 4 4 6 5 5 3 2 2 2 3 5 7 6 4 4 2 1 1 2 2 2 2 2 2 2 3 3 3 4 4 5 6
8 7 6 3 1 1 5 11 7 7 5 7 1 3 3 3 4 1 4 5 7 3 3 3 2 2 4 6 6 5 5 4 4 3 3 3 3 2 3 3 2 3 3 4 4 4 5 5 5
9 9 5 2 2 5 5 11 9 4 6 7 4 2 5 6 6 4 5 7 8 2 3 3 3 4 5 5 4 4 4 3 3 3 4 4 5 4 5 5 5 4 4 4 4 5 4 4 4
9 10 7 7 5 2 9 12 8 5 6 8 4 1 4 6 7 6 7 8 8 6 5 4 4 4 3 2 1 0 1 1 1 2 2 3 3 4 5 6 6 7 7 6 6 6 6 6 5
11 12 11 9 4 6 9 6 5 6 5 10 6 3 3 6 6 6 8 8 8 4 4 4 3 3 1 1 0 0 1 1 1 2 2 2 3 3 4 4 4 5 5 6 6 7 7 8 8
12 13 11 9 3 6 9 7 2 3 2 5 2 2 2 10 9 9 11 11 11 7 6 4 3 2 2 3 3 3 4 3 4 3 4 4 5 5 6 5 4 4 4 4 5 6 7 7 7
15 14 17 10 7 11 9 8 8 8 3 3 2 5 6 10 9 11 11 12 11 7 5 5 4 3 4 6 7 5 5 6 8 10 10 10 10 10 10 9 9 9 10 11 12 13 12 10 10
17 15 19 15 10 11 15 13 14 12 9 4 7 6 8 10 10 12 12 12 11 10 5 4 2 6 9 8 6 7 9 12 12 12 12 13 14 14 14 14 13 13 13 13 14 14 13 11 11
20 17 20 14 10 12 21 19 18 15 12 11 11 8 10 11 12 13 13 11 11 14 12 5 5 8 9 8 10 12 13 14 15 16 15 15 15 15 13 12 12 12 12 13 13 12 12 10 10
23 21 21 14 10 9 24 17 10 14 13 9 10 9 11 13 13 14 13 9 10 13 18 14 9 9 11 16 15 14 14 16 18 17 15 14 12 11 11 11 11 11 10 10 10 10 10 10 11
25 24 20 12 2 10 16 17 11 12 12 10 9 11 12 13 14 16 9 12 10 15 16 17 16 16 12 15 17 16 16 17 16 16 15 12 10 9 8 9 9 8 8 7 7 8 9 10 11
26 25 22 17 14 8 15 17 16 12 11 10 8 12 13 14 16 15 11 15 13 13 16 19 25 23 19 21 18 18 15 15 17 15 13 11 10 9 8 7 6 6 6 7 8 10 11 12 14
22 28 18 4 13 20 12 16 17 12 12 11 9 11 14 15 16 12 8 13 17 24 23 25 31 26 26 21 19 19 17 16 17 14 13 11 10 9 7 6 7 7 8 10 11 13 14 16 18
23 26 22 13 13 15 15 19 17 13 10 10 11 11 13 15 13 11 15 17 20 24 29 31 33 31 24 19 19 19 18 18 16 14 13 11 10 8 8 8 8 10 11 13 15 17 19 21 22
20 14 23 25 21 15 20 18 16 9 8 10 11 14 15 15 12 10 17 22 26 29 33 33 33 27 22 17 18 20 19 18 15 14 13 12 11 10 9 10 11 13 15 18 19 22 24 26 26
21 18 23 19 20 17 20 15 17 17 15 12 10 15 15 12 12 17 22 28 32 29 27 25 25 23 19 17 19 19 19 17 15 15 14 13 12 11 12 13 15 17 20 22 25 27 28 29 30
24 21 20 17 19 23 20 20 18 18 15 5 9 18 15 16 17 18 23 29 32 29 25 19 23 21 18 17 19 19 18 16 16 15 15 14 14 14 15 17 19 22 24 26 29 31 32 32 30
22 23 21 21 20 18 21 26 25 23 20 12 11 16 20 20 23 24 24 26 31 28 23 19 23 20 18 18 18 18 17 17 16 15 15 15 16 17 20 22 23 25 28 30 33 34 33 34 33
21 19 21 25 26 20 24 24 22 27 31 24 26 18 19 23 23 27 29 29 27 28 25 21 23 20 18 18 19 19 17 17 16 16 17 18 18 20 22 25 27 31 32 34 36 38 37 35 38
22 26 24 20 23 21 13 16 18 14 20 18 18 14 22 23 24 25 29 30 29 27 25 23 22 19 17 19 19 18 17 16 17 18 20 21 22 24 27 30 32 34 35 37 39 40 41 41 40
25 24 23 21 20 16 13 17 14 16 21 24 22 21 23 26 29 28 28 30 29 26 25 24 21 18 17 18 19 18 18 19 18 20 22 23 25 28 32 34 35 35 38 40 42 44 45 45 41
31 19 15 14 16 10 14 5 5 9 17 25 28 20 13 12 27 26 26 27 26 24 24 23 19 18 17 18 19 18 18 20 21 24 27 30 32 34 36 37 38 39 42 43 45 48 48 48 46
28 18 18 11 12 9 10 7 8 10 21 24 23 11 7 9 19 21 23 24 26 24 21 19 19 18 19 20 19 19 20 22 24 27 32 35 38 39 40 41 43 44 46 49 50 51 50 49 48
18 18 21 10 10 4 19 19 10 15 19 20 16 11 12 12 12 18 22 24 24 20 16 15 17 19 21 22 22 23 24 26 29 31 35 38 40 40 40 42 45 47 49 50 51 51 51 49 47
21 20 5 1 3 6 5 17 10 21 21 19 15 16 11 7 7 11 17 17 16 14 11 13 16 19 22 24 27 29 31 32 33 35 36 37 39 40 42 45 47 49 51 51 51 50 49 48 47
19 18 7 6 5 4 9 6 9 17 17 15 11 8 8 7 6 7 11 13 14 14 14 16 19 21 24 27 30 32 34 34 35 36 37 39 42 44 46 47 48 49 49 49 49 49 48 48 47
20 19 11 2 5 4 6 8 12 15 15 14 9 6 5 6 6 8 10 12 13 14 15 16 19 22 26 28 29 30 32 35 39 41 44 45 45 46 47 46 46 47 47 48 48 48 47 46 46
14 19 8 6 2 3 5 8 6 18 17 9 5 6 6 7 9 10 12 13 14 16 19 22 26 27 26 26 28 30 34 39 43 45 46 45 46 46 46 46 46 47 47 47 47 48 47 47 45
13 13 7 6 4 4 1 3 6 7 7 4 6 6 7 9 11 13 16 17 19 22 25 26 25 25 28 31 33 36 41 43 43 42 43 44 44 44 45 46 47 47 47 46 46 46 46 45 44
13 15 14 6 4 4 1 4 8 6 8 8 6 8 11 12 16 17 20 23 27 25 24 24 26 30 33 35 39 42 42 40 40 41 40 41 42 41 42 42 43 44 45 45 46 46 44 43 44

GFSSGP_700_spd_078.txt.gz
Wind_Speed
10 8 5 6 4 4 8 7 7 9 8 8 5 9 10 10 7 3 1 2 4 3 3 2 1 1 2 4 5 5 3 4 4 3 2 1 0 1 1 1 1 2 2 2 2 3 3 5 6
11 9 7 6 4 4 7 10 7 6 6 6 5 7 5 4 4 2 2 5 4 4 2 2 1 1 3 5 5 4 3 4 5 5 4 4 3 2 3 2 2 3 3 3 3 4 4 5 5
11 11 8 5 5 6 8 13 8 5 6 4 2 5 4 5 4 4 6 6 4 4 3 2 3 3 4 4 4 3 3 4 5 5 5 5 5 5 6 5 5 5 5 4 4 4 4 5 6
12 12 10 9 8 3 8 13 10 6 9 8 4 1 4 5 7 8 7 7 5 4 3 3 3 2 2 2 1 1 1 1 1 2 3 3 4 4 5 5 7 7 8 7 7 7 7 6 7
13 12 13 6 5 6 8 10 8 8 6 5 3 1 2 7 9 9 8 8 7 6 6 4 3 2 2 1 1 1 1 1 2 3 4 4 4 4 4 4 5 5 5 5 5 5 6 6 7
14 15 12 12 9 5 7 9 7 6 5 3 2 1 1 8 9 9 10 9 7 8 6 5 4 3 2 2 2 3 4 4 5 5 5 4 5 6 8 6 6 6 6 6 6 7 9 9 8
17 17 16 11 7 10 12 11 11 8 4 5 3 2 3 6 7 8 10 10 9 9 7 5 3 2 3 5 6 6 5 5 5 8 10 12 12 13 13 12 11 11 11 12 13 13 12 12 12
20 19 19 17 12 11 9 14 11 8 10 6 4 2 5 6 9 9 10 11 11 8 5 6 3 2 7 7 8 7 9 10 13 13 13 14 15 15 15 14 13 14 13 13 13 13 12 11 11
24 21 23 19 11 8 18 20 19 15 15 11 7 6 6 8 10 10 11 13 14 10 5 5 8 3 10 8 8 13 14 14 13 14 15 16 16 15 14 13 12 12 12 11 11 10 10 9 9
27 26 24 9 10 6 16 27 20 20 19 14 10 8 7 8 13 14 14 15 14 9 9 5 8 7 12 11 10 16 16 17 16 15 14 14 13 13 11 10 10 9 8 8 8 8 8 8 8
29 29 26 19 9 10 17 26 21 22 20 16 10 8 7 9 11 16 16 16 12 11 10 7 12 13 14 15 15 20 17 18 17 15 14 12 10 9 9 8 7 7 6 6 6 7 8 9 10
29 28 29 25 18 10 23 24 23 20 16 15 11 8 8 10 12 14 16 14 11 12 10 10 12 20 21 19 21 21 17 18 16 15 13 11 8 8 8 7 6 6 6 6 6 7 9 10 12
32 29 30 24 20 17 17 23 23 21 17 16 9 8 9 10 11 14 13 12 14 14 15 18 17 22 25 24 24 20 18 18 16 16 13 10 8 8 8 7 7 7 7 7 9 10 11 13 16
30 28 29 25 18 22 19 21 24 20 16 16 10 8 8 11 11 13 14 15 16 18 20 18 19 23 27 28 25 20 18 17 17 16 14 11 9 9 9 9 8 9 9 11 12 14 16 18 20
21 28 28 27 19 13 23 21 23 14 13 14 11 10 9 12 12 13 14 15 18 20 23 21 20 24 28 30 22 20 19 18 18 15 13 12 11 11 10 10 11 11 13 14 16 19 21 23 24
23 23 22 28 28 21 22 21 26 22 19 17 12 12 8 12 13 14 15 17 20 22 25 24 25 30 31 24 20 19 18 18 17 15 14 13 13 13 12 13 14 14 16 19 21 23 25 28 28
27 23 25 20 27 29 22 25 24 23 23 22 15 8 6 8 15 16 16 19 22 25 29 32 33 32 26 21 19 19 19 18 17 15 15 14 15 15 15 15 16 18 20 22 25 28 30 31 31
29 23 26 26 24 22 22 23 25 25 23 23 22 23 16 16 21 18 18 19 21 21 25 31 32 27 23 19 19 18 19 18 16 15 15 15 16 17 18 18 20 21 24 27 30 32 33 35 35
23 26 20 20 21 22 20 19 26 24 21 27 33 29 29 26 21 21 22 24 23 23 22 23 21 23 21 19 18 19 19 17 15 14 15 17 19 19 20 22 23 25 28 31 34 36 37 36 37
23 24 24 27 24 21 20 23 19 20 22 22 23 22 17 22 22 25 26 29 26 23 23 23 21 21 20 19 18 18 18 16 16 16 17 19 20 21 22 24 27 30 32 34 36 39 40 39 39
26 27 25 23 21 22 19 20 19 18 21 20 24 23 23 22 25 26 28 29 25 22 21 23 23 21 18 19 18 17 16 16 17 18 19 21 22 23 26 30 33 36 36 37 38 42 44 44 43
30 30 26 18 21 18 19 5 15 16 18 23 22 24 26 25 25 24 25 27 23 19 20 21 24 17 18 18 17 17 16 17 18 20 22 24 27 30 33 36 38 38 39 40 41 44 46 48 48
27 20 22 21 25 19 18 7 15 18 19 21 20 21 22 22 17 15 15 20 19 20 21 23 22 16 17 18 17 17 18 20 23 25 28 30 33 36 39 40 41 42 44 45 47 49 50 51 51
21 18 21 19 21 5 14 21 10 19 18 15 18 18 17 15 15 13 17 18 19 22 23 21 17 16 18 19 20 21 22 23 26 28 31 34 37 39 40 41 42 44 47 50 52 53 53 53 51
25 25 6 3 4 5 12 16 23 14 13 15 14 14 14 15 11 11 17 20 22 22 19 16 16 18 20 22 24 25 27 29 31 33 35 35 36 37 41 44 47 49 51 52 53 53 52 51 51
25 26 10 6 5 4 8 10 9 26 19 17 17 16 13 10 9 9 13 17 18 16 16 16 16 19 21 24 27 30 31 33 32 32 35 37 39 42 45 48 50 50 50 50 51 52 52 51 50
19 15 13 3 2 3 6 9 9 18 23 20 17 15 11 9 8 9 10 12 15 16 16 17 18 20 23 26 28 29 29 31 34 37 40 43 45 46 45 45 45 47 48 49 50 50 50 49 49
12 16 7 5 3 3 4 7 11 18 24 20 14 12 11 10 9 9 12 14 15 16 18 19 21 24 28 29 29 29 31 34 37 41 44 45 45 44 45 46 46 47 47 48 48 48 48 48 47
10 17 10 6 4 4 2 6 12 14 11 10 10 10 9 9 11 12 13 15 18 20 21 24 27 27 27 27 28 31 34 38 43 44 43 42 42 44 45 45 45 45 45 45 47 47 47 47 46
16 11 14 6 4 4 1 4 6 7 8 9 7 7 8 11 12 13 18 19 20 22 24 25 26 26 28 31 34 36 40 44 42 40 40 41 41 40 40 41 43 44 46 46 47 47 46 46 46

GFSSGP_700_spd_084.txt.gz
Wind_Speed
11 12 10 9 6 7 9 8 11 8 8 9 9 9 7 10 8 6 6 4 4 2 1 1 1 2 2 1 2 2 1 1 1 1 1 1 1 2 3 3 4 5 5 6 7 7 7 8 8
15 12 12 9 8 10 12 12 10 7 7 6 8 8 8 8 8 3 3 4 4 3 3 2 1 1 1 1 2 2 1 0 1 2 2 2 3 4 4 4 5 5 5 6 6 7 7 8 8
15 14 13 9 13 14 11 12 9 8 7 6 5 4 4 4 3 2 3 4 4 5 5 3 2 2 2 2 2 1 1 2 2 2 3 3 3 4 5 5 6 6 7 7 7 8 8 9 9
16 15 14 14 13 12 10 9 11 9 6 6 5 5 6 5 3 3 3 4 5 5 4 3 2 2 2 3 4 4 5 6 6 5 5 4 4 3 4 5 5 6 6 6 6 6 6 7 8
18 18 16 15 19 16 10 10 11 9 8 6 8 5 5 4 3 3 3 4 4 5 4 2 1 1 3 4 3 4 4 4 4 5 5 5 4 3 5 6 7 7 7 6 6 6 7 8 9
21 20 17 21 20 14 12 13 13 12 8 7 7 6 6 1 2 3 5 6 6 5 3 2 2 2 4 4 4 4 4 5 5 5 4 7 9 10 11 11 10 10 10 10 10 10 11 11 11
25 24 23 22 20 20 13 12 16 11 7 9 7 6 5 2 2 3 5 6 6 7 4 2 2 5 5 3 2 2 3 5 7 9 11 12 12 13 13 13 13 12 12 12 12 12 12 11 11
27 26 27 25 21 19 14 15 14 13 10 10 9 5 4 1 3 5 5 6 6 5 3 4 5 10 10 5 4 4 8 10 10 11 12 13 13 13 14 13 12 11 11 11 11 10 9 9 8
30 30 31 28 23 21 14 14 17 16 16 13 9 7 5 1 3 4 5 5 5 3 1 4 7 6 8 9 5 5 10 10 10 11 12 11 11 11 11 9 9 8 8 7 7 7 5 4 5
34 37 35 29 25 22 21 16 20 20 20 18 14 10 7 3 3 4 5 6 6 2 1 9 7 7 8 9 7 7 11 12 12 12 11 11 11 10 9 8 7 6 6 5 4 4 3 3 4
38 41 34 31 27 24 22 18 25 25 24 14 9 8 8 7 5 4 4 5 4 1 3 7 6 5 5 9 11 11 14 14 12 12 12 11 10 8 7 6 6 5 5 4 3 3 4 5 6
38 38 34 32 30 22 27 20 23 29 26 16 14 13 11 10 6 4 3 5 5 3 1 2 2 4 6 8 11 13 18 16 14 13 13 11 9 7 6 6 6 5 4 3 3 3 5 6 8
39 37 34 33 32 30 21 17 20 23 26 25 18 19 17 12 8 6 5 5 6 5 3 2 3 7 8 7 12 18 22 16 14 14 13 11 9 7 6 7 6 6 5 5 5 6 7 8 10
37 34 34 34 34 31 28 23 20 23 23 26 23 17 18 13 11 8 6 6 6 7 5 6 8 11 10 10 10 16 22 16 14 13 12 11 9 7 7 7 7 8 8 8 8 9 9 11 12
34 25 32 36 35 32 30 30 26 26 25 28 22 18 19 16 16 11 8 6 6 6 8 10 13 12 11 12 18 21 24 16 15 15 13 11 9 8 8 9 9 10 10 11 11 12 13 13 15
31 30 27 37 31 25 25 35 29 23 27 28 23 20 21 19 17 12 7 6 6 6 7 13 15 13 13 15 20 21 21 16 16 15 14 12 10 10 10 11 12 13 13 14 15 16 16 17 19
27 29 40 31 33 29 25 24 26 30 25 27 24 21 22 20 17 11 10 9 7 6 7 15 15 13 13 19 21 21 17 15 15 16 14 12 12 12 13 14 14 15 17 18 19 19 21 22 24
25 32 22 32 30 32 28 29 25 25 26 24 27 23 23 20 17 19 22 14 12 11 11 15 14 11 13 20 17 17 15 15 16 16 15 14 14 14 15 15 16 18 20 21 22 23 26 29 30
24 24 19 20 22 26 30 27 28 25 29 28 25 26 26 25 23 23 19 22 19 11 14 15 15 13 15 16 16 16 15 15 16 17 16 15 15 16 16 18 19 21 23 24 25 28 31 33 36
14 16 22 18 20 22 24 26 26 22 19 24 25 23 25 25 27 21 21 25 16 11 17 16 14 14 17 16 18 17 15 15 16 17 16 16 17 19 19 20 22 24 25 27 31 33 36 39 41
28 23 24 22 18 18 20 22 23 21 19 20 21 25 28 28 26 24 19 16 15 14 15 14 15 17 18 18 20 18 15 15 16 17 17 18 19 20 21 23 25 27 30 33 36 39 41 42 42
26 27 18 17 19 17 14 6 21 23 24 24 24 28 30 29 25 19 18 17 17 13 14 15 18 18 18 20 22 19 16 17 18 18 18 19 20 22 24 27 29 32 35 38 40 42 43 45 46
27 24 22 21 19 17 15 9 21 23 23 25 29 30 27 26 23 21 22 20 17 12 17 20 20 19 20 21 23 18 18 19 20 20 21 23 24 27 29 32 35 37 39 40 42 45 47 49 51
24 20 17 16 14 5 18 16 13 20 22 21 25 25 26 23 21 18 17 18 18 17 20 21 21 20 20 22 21 18 19 21 22 24 25 27 30 33 35 36 37 37 40 43 46 49 52 53 54
22 15 2 2 2 5 6 15 25 10 14 16 16 16 16 16 15 14 16 19 18 19 20 21 21 20 22 22 20 20 22 24 27 29 32 34 36 37 36 36 39 42 44 48 50 52 52 52 53
19 19 5 5 4 4 9 9 15 18 26 25 16 15 15 14 13 14 14 14 15 16 18 21 21 22 23 24 24 25 27 29 32 34 35 36 35 35 38 41 44 47 49 51 51 51 50 51 51
13 19 15 0 2 0 6 10 9 12 17 19 20 16 14 13 13 12 11 11 11 14 17 20 22 24 25 26 27 28 30 33 35 34 33 34 37 40 44 46 49 50 49 49 49 49 48 48 47
5 15 11 4 2 2 3 6 15 10 22 15 14 18 14 12 11 10 10 9 10 14 18 20 22 24 26 27 29 32 33 32 32 34 36 39 42 45 48 49 49 48 47 46 45 45 44 46 46
7 13 5 7 2 2 2 2 2 9 11 9 10 14 14 12 10 9 8 9 12 14 16 20 24 26 27 29 30 31 32 33 34 37 39 43 48 48 48 47 46 44 43 43 44 44 45 46 46
6 7 8 8 8 8 2 6 7 4 4 9 10 11 11 10 9 9 10 12 13 15 19 22 24 26 28 30 31 32 32 34 37 40 45 50 49 48 46 45 43 43 42 43 44 43 44 46 45

GFSSGP_700_spd_087.txt.gz
Wind_Speed
12 11 12 10 7 7 10 7 10 6 7 8 7 6 7 6 5 4 5 4 4 3 2 2 1 2 1 1 2 2 2 2 2 1 0 0 0 1 2 3 4 5 6 6 6 7 6 7 7
15 13 12 11 9 11 12 10 9 7 6 5 7 8 6 5 4 2 1 4 4 3 2 2 2 2 1 1 1 2 2 1 1 1 1 2 2 2 3 3 4 5 6 6 6 6 6 6 6
19 15 13 11 14 17 12 9 10 9 6 6 5 4 3 4 4 3 3 3 3 2 2 2 2 2 2 2 3 3 3 3 2 1 1 0 1 1 2 2 3 5 5 6 7 7 7 6 6
18 17 15 15 15 12 15 11 11 10 7 5 5 4 5 4 4 3 2 2 2 1 1 1 2 3 4 5 6 6 7 7 5 4 3 2 2 5 6 5 5 6 6 6 6 6 6 6 7
20 19 17 16 18 19 13 10 9 9 7 5 7 6 6 5 3 2 2 3 3 3 1 1 4 5 7 7 7 6 6 4 3 4 5 6 4 3 5 6 7 6 7 6 6 6 7 8 8
23 22 19 22 22 18 16 16 12 12 9 7 8 8 8 4 3 2 2 2 2 2 0 2 4 6 7 8 8 7 5 4 3 2 1 5 8 9 9 8 8 9 10 10 10 9 9 10 10
27 26 26 25 22 20 16 15 12 11 10 8 9 9 8 4 2 2 1 1 2 1 1 4 6 7 7 7 7 5 3 2 2 4 6 7 9 10 10 11 11 12 12 12 11 10 9 9 8
29 28 26 28 25 21 18 18 14 15 12 10 12 9 7 5 2 0 1 2 3 1 3 6 10 9 8 8 8 4 2 4 4 6 8 9 10 10 11 11 11 11 10 9 9 8 7 6 5
32 32 30 31 27 22 21 18 18 20 17 14 13 10 8 4 2 1 3 2 3 1 3 6 10 7 9 9 7 2 4 5 5 6 6 7 9 9 10 9 9 8 7 6 6 5 4 3 2
35 40 39 32 28 25 22 20 17 21 20 19 16 13 10 7 4 2 3 3 2 2 4 12 12 9 7 6 4 4 5 7 7 8 8 8 9 9 8 7 6 6 5 5 4 3 2 2 2
40 45 38 34 29 27 25 22 23 24 24 20 11 14 13 10 6 4 3 5 3 3 4 11 10 7 4 4 6 8 10 10 9 9 9 9 8 8 7 6 5 5 5 4 3 2 2 1 2
40 42 38 35 32 30 28 26 25 24 26 21 22 17 12 12 9 6 5 5 4 3 6 10 8 6 3 4 8 8 13 13 11 10 10 10 9 7 6 6 6 5 5 4 4 4 3 3 4
40 41 38 35 34 33 27 24 28 30 24 27 24 25 18 14 13 11 8 6 6 4 5 7 7 5 4 8 6 11 13 16 12 11 11 10 8 7 7 7 6 6 6 6 6 5 6 6 7
30 38 39 35 35 35 32 29 24 26 25 29 31 25 20 19 16 14 9 6 7 6 5 7 4 4 6 9 5 11 13 15 12 11 11 10 9 8 7 7 7 7 7 7 8 8 9 10 10
36 30 25 39 36 33 32 32 35 25 21 23 26 24 20 22 21 14 11 7 7 6 6 5 7 7 8 10 8 11 15 17 12 11 11 10 9 9 8 9 9 10 10 10 11 11 12 13 14
24 32 30 34 35 32 32 37 30 29 22 22 23 26 23 23 20 17 11 10 9 6 6 7 8 10 11 11 10 15 18 16 11 11 11 11 10 10 10 10 11 12 13 13 14 15 16 16 17
24 27 33 24 34 26 27 27 28 31 27 26 25 27 25 24 19 12 10 8 19 17 14 12 12 14 11 12 11 16 16 13 12 11 11 12 12 12 12 13 14 15 16 17 18 18 19 20 21
20 24 23 31 26 33 26 21 17 23 28 29 27 26 26 23 21 24 26 17 9 12 9 13 15 15 13 12 14 17 15 13 12 11 12 12 13 13 15 16 17 18 19 20 21 22 23 25 26
18 21 24 23 27 29 29 31 25 26 26 23 25 23 23 22 20 19 15 11 13 11 12 16 15 15 14 11 16 16 16 14 13 13 13 13 14 15 16 17 19 20 21 23 25 26 28 30 32
28 20 20 18 22 25 28 27 28 29 28 25 21 23 22 23 23 21 17 13 14 14 14 17 18 16 15 15 17 16 16 14 14 14 14 15 16 16 17 19 20 22 24 26 28 30 32 35 37
33 25 21 21 16 20 21 24 26 25 21 21 22 24 28 28 29 24 18 17 15 13 15 19 19 19 17 17 18 17 18 16 15 15 15 16 16 18 19 21 23 25 27 30 33 35 37 40 41
29 26 17 17 24 14 18 6 22 22 22 22 21 21 23 21 24 23 21 17 16 14 16 22 20 18 19 19 17 18 19 15 15 15 15 16 18 20 22 24 26 29 32 35 37 39 40 41 42
24 29 16 15 13 15 11 6 17 19 20 21 22 23 24 22 21 23 21 19 17 18 18 20 20 20 20 18 18 19 18 16 16 17 18 20 21 23 25 28 31 34 37 38 39 40 42 44 46
20 17 12 13 12 6 16 13 11 18 21 22 21 24 25 24 23 21 20 21 21 21 22 22 21 22 21 19 19 19 17 17 18 20 22 24 26 28 30 33 35 36 36 38 40 43 46 49 51
16 15 0 3 4 3 8 12 19 7 8 17 19 16 17 17 20 21 20 20 19 19 21 22 22 21 20 20 19 19 18 20 22 24 25 27 30 33 35 36 36 37 40 43 46 48 50 52 52
13 17 4 3 4 4 11 6 8 14 22 12 10 11 13 15 17 18 17 17 18 18 18 19 19 20 20 20 21 21 22 23 25 27 29 32 34 35 35 36 38 41 45 48 49 50 50 49 49
9 11 9 2 2 1 3 7 13 5 13 15 18 16 15 16 16 15 14 15 14 13 15 17 19 21 21 22 23 24 25 26 29 31 32 33 33 34 36 38 42 46 48 48 47 46 45 45 44
6 12 6 4 1 1 2 5 12 6 8 13 9 11 15 15 15 14 13 12 11 12 14 16 19 21 22 23 25 26 27 29 31 32 33 33 34 37 40 44 48 47 45 44 43 42 42 43 43
4 7 5 8 1 1 3 2 7 4 7 6 7 12 15 14 13 13 12 11 11 12 13 16 18 21 23 25 27 29 30 31 32 31 32 35 39 42 45 47 45 43 42 41 41 41 41 42 41
2 1 6 3 4 5 2 6 10 5 7 4 5 11 13 13 12 13 12 10 10 12 14 16 19 23 25 27 28 30 30 30 32 35 38 41 44 46 46 43 42 41 40 39 40 39 39 41 42

GFSSGP_700_spd_090.txt.gz
Wind_Speed
13 11 12 10 6 7 11 7 8 7 6 8 7 6 4 6 4 3 3 1 2 3 3 4 5 5 4 4 3 3 3 3 3 2 2 2 2 2 2 2 3 4 4 5 5 5 5 5 6
17 15 12 11 9 13 11 9 9 7 8 5 6 6 6 6 4 4 3 2 2 3 4 5 5 5 4 3 3 4 4 4 3 2 2 2 3 3 2 3 4 4 5 5 5 5 5 4 4
18 19 15 12 14 16 11 6 7 11 8 6 6 5 4 4 5 3 2 1 0 0 2 3 4 5 4 4 4 4 4 4 3 3 2 1 1 1 0 2 3 4 5 5 5 5 5 5 6
17 18 19 15 16 12 15 10 10 11 9 6 5 4 5 5 5 5 3 2 1 1 2 3 5 5 5 6 6 6 6 6 5 3 2 1 2 5 5 4 3 3 3 4 4 5 5 5 6
19 20 15 17 20 18 13 12 10 10 9 6 6 5 6 6 5 4 4 3 2 3 4 5 6 7 8 8 8 8 6 5 3 3 5 8 5 1 4 5 5 5 4 5 6 7 8 8 8
23 22 17 22 20 16 15 18 15 12 13 9 9 9 8 7 5 4 3 3 2 3 4 6 7 8 9 10 9 8 6 4 3 3 3 4 6 7 8 8 8 9 8 8 9 10 10 9 9
26 24 24 22 20 18 16 17 17 12 16 12 10 11 11 7 5 4 2 1 1 2 4 6 8 9 10 10 10 7 5 2 3 4 5 7 8 8 9 10 10 10 10 10 9 9 9 8 7
29 26 23 25 23 22 16 19 18 13 15 14 12 11 11 9 6 4 3 2 2 2 4 6 8 9 10 10 9 6 3 3 3 4 5 7 7 8 8 9 9 9 8 7 7 7 6 5 4
31 26 29 27 23 22 20 19 19 21 20 17 16 14 13 11 7 4 3 2 2 3 5 8 11 8 10 11 8 4 1 2 2 3 4 5 6 7 8 8 7 7 6 6 5 4 3 2 1
35 30 31 24 23 19 20 22 20 22 23 22 18 16 15 12 8 5 3 3 3 4 5 8 10 10 11 9 4 2 1 2 3 4 4 5 6 7 7 6 6 5 5 4 3 3 2 2 1
37 39 25 23 27 30 24 26 22 23 26 25 21 20 17 13 11 8 7 5 4 4 6 11 11 8 7 9 6 5 4 4 4 5 5 6 6 7 6 6 5 5 4 4 3 3 3 3 2
36 33 29 24 27 32 31 27 26 25 24 27 24 23 22 16 13 10 10 7 5 5 7 13 12 9 6 6 2 1 5 7 5 6 7 8 7 7 6 6 6 5 5 5 5 5 4 4 3
34 30 25 28 32 35 31 29 26 29 26 29 26 27 23 21 17 15 14 12 9 8 8 14 13 10 8 9 9 3 5 10 9 6 7 8 7 6 6 6 6 6 6 7 7 7 7 6 6
20 19 30 28 31 35 35 27 29 29 29 31 29 28 25 25 19 20 17 12 11 11 10 11 13 11 10 11 11 6 5 10 11 9 8 8 8 7 7 7 8 8 9 9 10 10 10 10 10
29 32 25 26 32 31 31 31 36 27 25 25 28 30 29 27 24 21 17 13 11 10 10 9 14 12 10 10 14 7 10 14 16 12 9 9 9 8 8 9 10 10 11 12 12 13 13 13 14
21 21 29 28 23 31 29 41 30 31 34 27 24 25 36 28 27 25 20 15 14 9 5 9 10 13 12 12 13 8 9 16 14 11 10 10 10 9 9 10 11 13 14 14 15 15 16 17 18
19 26 25 25 24 26 33 36 27 29 31 31 22 21 20 26 27 26 22 16 13 11 13 15 16 15 15 15 16 15 9 14 14 12 11 11 11 10 10 12 13 14 15 16 17 18 19 20 21
21 25 27 26 28 24 29 29 29 28 32 31 26 23 22 26 25 26 24 22 24 22 20 19 19 19 17 16 13 12 12 13 13 13 13 12 12 12 12 13 14 16 17 18 20 22 22 24 24
22 23 27 26 23 26 31 29 22 25 23 30 31 26 24 23 28 34 34 35 21 22 20 22 21 18 17 16 12 12 13 15 14 14 13 13 13 13 14 15 16 18 20 22 24 25 26 27 27
20 23 24 23 22 25 28 28 29 28 23 23 23 25 25 25 34 29 33 26 22 20 21 22 22 20 19 16 17 14 15 16 15 14 14 14 14 15 16 17 18 20 22 24 26 27 29 31 32
22 23 25 23 19 24 22 28 29 29 29 28 26 24 22 22 26 30 31 25 21 23 23 21 20 20 19 19 20 17 16 17 16 15 16 17 16 16 17 19 20 22 24 26 28 31 33 36 40
24 21 26 23 17 21 23 18 27 27 26 26 24 26 28 29 29 29 31 23 20 22 22 22 20 21 22 22 20 19 18 19 18 16 18 18 18 18 19 21 23 25 27 30 33 36 38 40 40
23 15 22 21 18 22 15 17 13 20 26 27 26 26 24 22 21 26 30 25 22 22 22 24 23 24 24 22 21 21 21 19 17 17 19 19 19 21 22 24 27 29 32 35 38 39 38 39 41
11 13 16 10 10 10 19 18 17 15 17 17 22 22 21 21 19 20 23 24 21 23 23 25 26 25 24 23 23 23 20 19 18 18 20 21 22 24 26 28 31 34 35 36 36 38 40 44 46
9 12 5 6 5 4 11 11 12 5 14 22 24 24 22 23 23 23 23 22 22 23 23 24 25 24 23 24 23 22 21 20 20 20 22 23 25 28 31 32 33 34 35 37 39 42 45 48 50
9 12 2 3 5 7 7 8 6 14 17 10 15 16 15 19 22 23 23 23 23 22 22 22 26 24 25 24 23 22 21 20 21 22 24 27 29 31 32 32 34 36 38 41 44 47 49 49 48
6 5 9 9 3 3 6 8 9 2 9 17 17 14 13 14 18 20 21 21 21 21 21 23 22 26 24 23 23 22 22 23 25 26 28 30 31 31 32 34 36 39 42 45 48 47 45 45 44
1 10 2 9 2 3 5 1 3 2 6 7 11 14 14 16 17 18 19 19 18 18 20 19 22 24 23 22 23 24 25 27 28 29 29 30 31 32 35 38 41 43 45 46 45 43 42 41 41
4 5 6 3 3 4 3 8 11 8 1 5 9 11 14 17 18 17 16 16 16 16 16 16 20 21 21 23 25 27 28 28 28 29 30 31 34 37 40 42 44 45 43 42 41 40 39 40 39
2 3 4 4 2 0 2 4 11 12 10 5 4 9 14 15 15 14 14 14 14 13 13 15 18 20 22 24 26 27 27 28 29 30 33 36 39 41 43 44 43 41 40 38 37 37 37 38 38

GFSSGP_700_spd_093.txt.gz
Wind_Speed
14 10 9 9 6 8 12 10 8 5 3 5 4 4 3 5 5 5 5 4 3 3 4 6 6 6 6 5 4 5 5 6 6 5 4 2 2 2 2 3 3 4 5 5 5 6 6 7 7
17 14 11 7 11 16 13 9 9 7 7 6 5 4 2 5 10 8 6 4 3 3 3 5 5 6 6 5 4 4 5 5 5 4 4 4 3 3 3 3 3 3 4 4 5 5 5 6 6
16 18 13 10 18 19 13 5 8 9 9 5 4 4 5 8 7 6 5 4 4 4 5 5 6 6 6 5 5 5 5 5 4 3 3 3 2 2 1 1 3 4 4 4 5 6 6 6 6
17 17 17 18 19 15 15 11 8 8 8 7 5 3 8 5 6 6 5 5 5 5 5 5 7 7 6 6 6 6 6 6 5 3 1 2 3 5 5 3 2 2 2 3 3 4 5 5 6
19 17 18 22 24 20 14 12 5 10 10 7 6 8 8 9 7 6 6 5 5 5 5 6 6 6 7 7 7 7 7 5 4 3 4 7 6 3 2 4 5 4 4 5 6 7 7 6 6
21 19 21 24 24 18 17 13 12 10 11 8 8 9 10 9 8 6 6 5 4 4 5 6 7 7 8 8 9 8 6 5 5 5 5 3 4 6 7 7 8 8 8 9 9 9 8 7 6
27 19 25 24 22 19 17 14 15 13 13 14 6 10 12 11 8 7 5 4 3 4 5 6 7 7 8 9 9 8 6 4 4 6 7 8 8 8 8 8 8 8 8 8 7 7 6 7 6
26 23 27 27 26 24 16 15 13 14 13 13 13 14 15 14 10 7 5 4 4 4 5 6 7 9 10 10 8 7 5 4 4 5 7 8 8 8 8 7 7 6 6 5 5 4 4 3 2
29 24 32 29 25 24 17 13 16 14 15 18 15 10 15 15 12 9 6 5 4 4 5 7 7 9 10 10 9 7 4 4 4 4 5 6 7 7 7 6 6 5 4 4 3 2 2 1 1
33 28 34 24 23 24 21 20 16 20 20 22 18 21 19 14 13 9 7 6 4 4 6 7 9 9 10 9 8 4 2 2 1 2 4 5 6 6 6 5 5 4 4 3 2 2 2 2 2
24 39 25 25 24 24 22 21 16 18 17 21 21 21 21 18 15 12 9 7 5 5 7 8 10 10 11 11 8 5 0 1 2 3 4 6 7 7 6 5 4 4 4 3 3 2 3 3 3
27 27 25 29 22 24 25 20 22 21 17 17 26 17 24 20 16 13 12 10 7 7 8 10 13 10 10 11 7 5 2 2 4 5 6 6 6 6 6 6 5 5 5 4 5 5 5 5 5
24 25 26 25 28 26 23 24 25 24 20 27 30 22 26 24 20 17 15 14 13 11 11 14 14 12 9 13 10 7 7 3 6 7 8 8 7 7 7 6 6 6 6 6 7 7 7 7 7
14 14 21 26 27 25 30 29 25 27 24 25 30 25 27 24 25 22 20 19 17 13 12 13 15 14 14 13 12 12 9 5 7 12 10 9 8 7 8 8 7 8 8 8 9 9 10 10 11
18 24 25 29 24 32 22 31 38 28 21 24 29 26 25 28 27 25 21 20 17 13 13 11 13 15 15 14 16 15 11 8 9 12 10 10 9 9 8 9 9 9 9 10 11 12 13 13 14
21 22 27 24 26 25 27 44 32 28 27 22 25 22 25 31 31 29 22 21 18 16 15 16 13 16 15 17 16 16 15 10 7 12 12 11 10 10 9 10 10 10 12 12 13 14 15 16 17
17 25 25 25 23 24 28 44 30 24 31 29 24 27 23 26 35 29 32 24 20 19 18 16 12 16 22 18 19 20 22 22 19 13 13 12 11 11 11 11 11 12 13 14 15 16 17 19 20
20 23 25 24 23 23 31 34 28 26 26 27 25 24 25 24 27 41 37 28 25 23 18 15 25 25 21 20 21 16 15 13 11 12 13 13 12 12 12 13 13 14 15 16 16 18 19 20 22
24 26 29 27 21 28 32 30 28 27 27 27 25 24 29 21 25 32 28 30 31 30 19 25 24 29 24 20 17 16 14 12 13 13 13 14 14 15 15 15 15 16 17 18 19 21 22 24 25
23 25 28 27 24 25 30 32 29 31 30 28 29 26 26 24 24 29 30 37 36 30 29 21 24 28 24 21 16 18 18 14 15 15 15 16 17 17 16 16 17 17 19 20 21 23 25 27 30
21 22 24 24 22 27 26 33 30 32 25 22 22 23 25 25 24 28 35 39 34 30 23 26 25 27 24 21 20 22 21 18 17 18 19 19 19 18 18 18 18 19 20 22 25 26 28 30 32
21 18 20 21 22 27 26 23 32 31 31 26 24 25 25 29 32 29 35 36 34 31 28 28 25 27 23 22 22 23 20 23 20 20 20 19 19 19 19 19 20 22 24 25 29 32 34 36 37
20 18 17 20 24 26 26 28 29 33 35 26 27 27 28 27 27 30 30 32 32 30 26 29 27 30 25 25 24 24 25 24 22 21 20 19 19 20 21 22 24 25 27 30 32 36 38 39 39
14 14 14 16 23 18 35 18 32 33 31 30 26 24 24 26 28 32 33 31 33 32 27 27 30 30 28 25 24 25 25 26 23 21 20 19 21 22 23 24 26 29 32 35 36 37 38 40 42
6 9 4 5 5 6 17 17 6 15 16 19 23 22 25 22 23 21 22 26 34 34 28 27 28 29 26 27 26 25 26 25 22 21 22 21 24 25 26 28 31 34 34 36 38 39 41 43 45
9 7 5 4 2 4 5 9 15 7 9 19 19 24 22 20 21 23 23 25 27 28 26 26 26 26 27 27 24 27 26 22 22 23 23 25 26 29 30 31 33 35 37 37 39 41 44 46 48
7 6 12 15 12 4 8 6 5 3 6 14 13 18 18 19 22 24 25 26 26 24 24 25 24 24 27 22 27 24 24 23 24 25 25 27 29 31 31 33 34 35 37 40 42 45 46 49 48
5 2 3 6 3 2 11 26 10 9 2 6 13 18 15 11 14 18 21 22 22 22 21 22 22 24 22 27 26 24 23 24 26 27 28 30 30 31 32 33 35 38 41 44 46 47 45 44 43
7 5 6 10 3 4 4 11 13 13 5 4 8 13 13 14 15 17 18 18 17 18 20 20 22 23 23 27 23 22 25 26 28 29 29 30 31 32 34 37 40 43 45 44 44 43 42 41 39
7 8 10 6 11 10 3 8 13 18 13 6 3 6 9 11 13 14 14 14 15 16 16 16 17 19 22 20 24 25 27 29 29 29 30 32 34 37 38 40 43 43 43 42 39 37 36 37 38

GFSSGP_700_spd_096.txt.gz
Wind_Speed
13 12 9 9 7 6 12 17 7 4 4 8 7 7 4 6 7 5 4 7 5 3 4 5 6 6 5 4 4 4 5 5 5 5 4 4 3 1 1 2 3 4 4 5 5 6 7 7 7
17 14 12 7 10 14 23 14 13 7 11 8 6 7 3 11 10 13 10 5 5 3 4 5 6 5 6 5 5 4 5 6 5 5 4 4 3 1 1 1 2 3 4 5 6 7 8 8 8
16 16 14 11 15 21 22 6 7 11 11 9 4 7 7 11 6 11 7 6 6 4 3 5 6 6 6 6 5 5 5 5 5 4 4 3 2 0 1 2 4 4 4 5 6 6 6 6 7
18 17 18 19 23 18 17 15 13 12 14 8 5 4 9 9 6 5 6 6 7 5 4 5 6 6 6 6 5 5 6 5 5 4 3 3 3 4 4 3 2 2 2 3 3 4 4 5 5
20 20 19 17 24 23 21 20 11 13 13 12 11 8 11 12 5 5 5 6 5 2 4 5 5 6 6 6 7 7 7 6 5 3 3 6 7 5 2 3 5 5 5 5 6 6 6 5 5
22 22 18 23 25 22 22 21 24 10 12 9 12 12 15 10 7 6 6 5 5 2 4 5 6 6 6 7 7 7 7 6 6 6 7 8 2 4 5 7 7 8 9 8 8 8 6 5 4
26 23 21 22 25 25 24 22 13 10 12 13 12 14 14 11 9 7 7 6 5 2 4 5 6 7 7 7 7 7 6 5 6 6 7 8 8 8 7 8 8 8 8 8 7 6 5 4 3
27 26 29 25 27 31 22 20 36 8 12 12 15 17 18 11 10 9 8 6 5 2 3 4 6 7 8 8 8 7 6 6 5 6 7 8 9 7 7 7 6 6 6 6 4 3 3 2 1
24 29 33 33 25 25 22 24 14 16 11 19 12 11 13 14 12 11 9 7 5 4 3 3 5 6 7 8 8 7 5 4 4 5 5 6 5 6 6 6 5 4 4 3 3 2 1 1 1
31 34 40 23 22 25 28 26 23 19 14 16 15 16 18 12 14 12 9 7 6 5 4 3 5 6 9 9 8 7 5 3 3 4 4 5 4 4 5 5 5 4 3 2 1 1 1 1 1
28 38 33 22 26 26 27 30 17 25 8 15 19 22 22 15 14 14 11 9 7 6 6 4 4 2 10 12 9 7 4 4 1 2 5 6 7 6 5 4 4 3 3 2 2 2 2 2 2
26 27 24 25 28 26 27 30 29 19 21 16 18 24 22 18 17 16 14 12 10 9 9 8 8 7 9 6 11 8 3 2 1 4 6 6 6 6 6 5 4 4 3 3 3 3 3 4 5
23 23 24 25 26 30 31 32 34 24 15 25 20 21 16 17 19 19 18 15 13 12 12 13 13 13 14 8 9 9 5 4 2 4 7 8 8 7 7 6 5 5 4 4 4 5 5 6 7
18 15 19 24 28 29 24 33 30 39 24 24 24 23 24 22 19 21 20 21 18 16 14 15 15 12 17 13 13 13 12 8 6 6 7 7 9 8 8 7 6 6 5 6 7 7 8 9 10
16 22 24 28 27 28 27 33 44 39 26 24 25 23 27 27 28 25 24 25 23 19 15 15 17 14 13 17 16 14 13 13 12 8 6 7 9 9 9 8 7 7 7 8 9 10 10 11 12
22 22 26 24 19 20 21 45 38 29 26 28 23 22 22 26 29 27 33 25 23 21 18 16 17 22 18 17 15 14 14 17 18 11 18 16 11 11 10 9 9 9 10 11 11 12 12 13 13
12 23 21 22 17 20 26 38 32 28 24 31 32 32 28 29 29 29 30 31 25 21 20 18 19 21 20 14 16 16 16 17 20 18 13 12 10 11 12 11 11 12 12 12 13 13 15 15 15
20 23 25 25 18 18 25 36 27 24 29 33 30 31 23 27 32 34 33 35 31 19 23 26 17 14 19 19 22 19 18 16 16 12 9 9 10 13 14 13 12 14 13 14 15 15 15 16 18
21 22 27 29 27 26 26 26 28 25 28 34 28 39 31 32 30 34 36 41 46 30 38 30 19 15 22 24 24 22 18 16 16 12 11 10 12 15 15 15 14 14 14 15 15 16 18 19 21
21 26 27 28 23 23 28 31 28 27 30 29 27 30 34 30 27 28 27 31 31 37 31 22 25 24 32 28 24 20 18 19 18 14 13 14 14 16 17 16 17 16 16 17 18 19 20 22 25
21 24 25 26 23 24 24 30 27 29 28 31 31 29 29 25 30 30 27 28 31 36 32 31 21 22 25 25 24 19 21 21 18 15 16 16 16 16 17 17 18 19 18 19 21 22 23 25 26
20 17 21 22 21 18 20 19 30 27 31 34 33 35 31 28 28 30 30 31 33 33 32 29 23 23 26 25 23 22 23 20 19 19 18 18 18 17 17 19 20 22 22 21 23 26 29 31 32
24 22 21 18 23 23 26 21 28 30 34 38 30 32 35 30 33 31 26 28 30 33 36 31 26 27 30 28 23 24 22 24 23 20 20 19 19 18 19 21 22 22 23 26 29 31 34 37 38
18 17 17 20 17 15 25 16 15 21 27 36 30 28 28 28 30 32 29 26 28 35 36 33 32 30 29 27 24 25 26 25 21 22 24 19 20 19 20 21 23 26 28 30 33 35 35 37 40
13 8 7 4 2 5 7 11 27 9 7 29 41 30 32 33 30 32 33 32 32 30 29 31 31 28 27 23 25 26 27 24 24 23 25 20 22 21 22 24 27 31 32 35 36 37 38 39 41
15 9 2 4 2 3 9 8 7 3 6 12 31 39 36 26 24 27 31 31 32 32 29 26 29 29 24 24 27 25 24 22 25 26 24 23 25 26 26 28 32 35 35 35 37 38 39 41 44
13 12 15 5 10 4 6 6 2 10 3 9 21 23 28 22 19 19 19 22 22 22 26 31 30 27 24 25 24 23 23 24 29 24 21 25 26 30 32 32 33 34 36 37 38 41 43 45 47
14 14 10 7 4 5 7 22 16 12 8 4 7 10 13 14 14 16 19 22 24 24 25 27 23 23 21 21 23 23 24 30 22 25 26 27 29 32 32 33 34 35 37 39 42 45 46 45 44
13 15 12 15 9 3 3 12 16 14 7 7 10 14 13 11 11 13 15 17 16 16 16 18 19 19 21 22 25 22 29 24 25 26 28 31 33 32 33 35 35 38 41 43 43 43 41 40 39
16 16 13 8 6 12 4 14 20 12 7 9 6 5 6 7 8 9 9 10 11 13 14 17 17 16 17 21 22 27 21 24 27 30 32 31 33 34 35 37 39 42 42 41 38 37 37 36 35

GFSSGP_700_spd_102.txt.gz
Wind_Speed
17 15 14 14 9 10 14 9 14 6 7 12 13 14 15 14 14 7 3 3 6 5 6 8 9 9 7 7 6 6 6 7 6 6 5 5 4 3 1 1 2 3 4 5 7 7 7 8 9
19 18 16 15 13 16 17 12 6 9 10 12 13 14 14 16 19 14 11 8 7 6 6 7 8 7 7 6 5 6 6 6 7 6 5 5 3 3 2 1 2 5 5 5 6 6 6 7 8
21 20 19 17 21 28 20 7 4 5 10 17 16 16 15 16 18 21 20 20 12 7 7 8 9 8 7 7 6 6 6 6 6 6 5 4 3 1 1 2 4 3 3 3 3 4 5 5 5
24 22 22 24 26 20 19 15 10 3 4 8 10 14 15 15 13 14 11 11 11 8 8 8 9 8 7 7 6 6 6 6 5 5 4 3 3 3 3 3 1 1 1 2 3 6 8 7 5
26 26 26 26 31 29 21 17 18 13 11 19 13 12 15 11 8 10 8 8 9 7 7 8 8 8 7 6 6 6 6 6 5 4 4 4 4 4 3 1 3 5 6 6 7 8 10 8 5
27 28 26 32 33 27 21 19 17 17 17 21 17 15 15 15 10 9 9 8 8 8 8 9 9 8 8 7 6 6 6 6 5 5 6 8 6 2 3 5 6 7 8 8 8 8 7 6 3
31 30 34 35 32 28 21 19 15 15 11 22 26 21 15 18 13 12 10 10 10 9 9 9 8 8 8 7 6 6 6 5 4 7 8 6 4 7 8 8 8 8 8 7 6 5 5 4 3
29 31 35 35 33 32 21 18 10 10 15 19 23 23 25 19 14 14 13 12 12 10 10 9 8 8 7 7 7 6 6 5 4 5 5 7 8 7 6 6 6 6 6 4 4 2 1 1 3
28 33 39 38 33 30 20 22 19 17 12 16 10 26 26 21 18 16 15 15 14 12 11 10 9 8 8 7 7 7 6 6 5 4 6 6 5 5 5 4 4 4 3 3 2 1 1 2 3
28 35 37 37 31 29 29 27 24 18 14 14 12 28 25 22 19 22 17 14 13 11 11 11 10 9 8 8 7 7 6 5 3 5 4 3 3 3 3 3 3 3 2 2 2 2 3 4 3
26 35 33 33 28 25 28 28 24 19 17 14 9 16 23 31 25 24 20 15 12 12 12 11 12 11 9 7 7 7 6 4 4 3 1 1 2 2 2 2 2 2 3 3 3 4 3 4 3
23 27 28 30 28 28 31 29 28 20 16 11 11 11 21 20 27 29 26 19 17 13 12 12 12 11 10 8 8 9 6 5 5 2 2 3 4 3 2 2 2 2 3 4 4 4 3 3 2
20 22 22 23 24 25 26 30 30 28 17 14 18 14 21 27 26 28 26 21 20 19 15 13 12 12 11 10 10 10 7 5 5 3 2 4 5 4 3 3 3 4 4 5 5 4 4 3 3
17 21 22 23 25 27 28 27 29 24 13 15 16 16 17 23 31 27 26 25 23 21 17 14 13 13 13 12 12 11 7 7 5 1 3 4 5 6 6 4 4 4 4 5 6 5 5 5 5
14 21 18 12 12 18 22 28 29 30 27 22 20 20 18 24 27 22 18 25 26 22 20 16 14 16 13 11 8 10 10 8 4 2 4 4 7 9 8 6 5 5 5 5 6 6 7 8 8
17 11 20 13 13 11 13 26 17 12 18 23 25 27 24 21 27 22 21 26 34 28 22 16 17 17 13 8 6 6 10 6 6 7 7 8 7 8 9 9 6 5 6 5 7 8 9 10 11
18 22 25 25 16 19 19 25 20 14 15 15 26 29 30 26 25 28 26 31 34 30 22 20 17 17 13 9 10 9 9 9 8 8 10 10 7 6 7 11 7 6 8 7 9 9 10 11 12
22 24 26 28 26 25 29 33 25 21 21 22 18 25 33 31 29 29 32 33 35 29 26 20 16 11 8 11 13 13 10 14 13 11 12 9 7 6 4 7 8 8 10 9 11 11 12 12 13
25 25 28 26 24 24 28 35 31 28 23 25 26 21 31 34 29 29 34 33 33 30 30 24 15 11 21 27 21 16 15 13 10 6 13 10 9 7 5 7 9 10 12 12 12 13 14 15 16
17 21 26 29 24 22 26 31 25 24 31 24 28 25 27 32 32 36 37 35 34 32 30 28 24 21 16 23 21 19 19 16 16 13 16 13 11 9 7 8 11 12 13 14 15 15 17 18 19
20 24 23 26 26 25 26 36 32 29 27 31 25 27 25 25 31 38 39 38 35 34 31 32 24 32 20 23 24 22 22 23 26 14 20 14 14 11 9 10 12 14 15 16 17 19 19 21 22
28 21 24 28 26 18 16 20 34 26 21 28 28 26 24 24 33 35 36 44 34 28 32 35 32 33 23 23 25 19 18 17 14 12 12 17 17 14 13 13 14 14 15 18 20 20 20 22 25
27 25 28 33 26 23 22 12 23 18 17 15 27 27 25 22 23 33 34 27 28 33 40 32 37 37 33 23 25 20 17 15 12 14 16 18 17 17 16 18 14 15 16 20 21 22 23 26 28
27 26 36 10 6 3 12 10 5 9 8 13 18 27 25 19 21 24 24 27 31 25 26 32 33 36 33 30 32 23 25 16 13 15 17 20 17 19 18 19 17 17 19 21 24 26 28 31 34
27 31 7 5 5 3 10 8 6 11 12 13 19 23 26 22 25 25 27 26 23 27 26 29 30 34 34 36 38 23 19 23 11 18 21 21 15 17 21 21 18 20 21 23 28 28 32 34 36
20 23 7 3 5 5 14 7 7 7 10 12 9 14 19 24 25 27 22 21 24 26 25 24 29 26 26 23 18 13 23 24 20 19 20 17 15 20 20 22 23 23 25 26 32 31 34 35 36
21 20 15 3 5 5 14 17 31 18 10 4 12 15 16 25 22 22 19 19 19 20 21 22 21 20 24 18 16 16 20 18 16 18 16 12 19 18 21 21 26 26 26 30 33 34 35 37 39
20 18 11 7 5 5 10 12 14 16 21 3 7 8 19 24 22 22 18 16 16 18 17 18 19 18 18 18 17 16 15 13 9 11 13 15 21 24 21 23 28 29 31 34 35 36 38 41 43
20 18 11 9 5 3 4 6 16 21 16 12 7 4 14 13 10 12 15 19 20 21 22 21 24 19 15 15 13 10 7 6 10 12 14 20 23 26 24 29 28 32 34 35 37 40 42 44 44
14 17 14 8 8 2 1 6 14 19 16 14 6 8 10 8 6 5 8 9 11 13 14 14 15 14 13 12 9 7 8 9 14 14 20 21 26 27 28 29 32 34 36 39 41 42 42 42 39

GFSSGP_700_spd_105.txt.gz
Wind_Speed
19 18 16 15 9 10 15 10 13 6 2 10 12 13 13 15 15 9 8 4 5 6 6 7 9 8 7 6 6 7 7 7 6 6 5 4 3 2 1 2 2 3 5 7 8 9 9 9 10
21 21 19 16 14 17 17 12 11 7 13 9 14 16 13 14 16 18 16 10 8 8 7 8 8 9 8 7 6 6 6 6 6 5 5 4 3 2 1 0 3 4 5 5 6 7 7 8 8
23 22 21 17 22 29 19 7 7 3 1 14 16 17 13 14 13 16 18 18 18 14 8 8 8 7 7 7 6 6 5 6 6 5 5 4 3 2 2 4 4 4 2 2 3 5 6 7 5
25 24 24 25 26 22 21 19 8 6 1 2 9 14 14 13 14 14 14 18 15 16 10 9 8 8 7 6 6 5 5 5 5 5 4 3 2 2 3 3 2 2 1 1 5 6 7 6 3
27 28 27 27 34 31 25 20 19 16 15 10 13 13 9 10 10 10 10 8 9 11 10 10 9 8 8 7 5 5 5 5 5 5 4 4 3 3 3 1 3 5 6 7 8 8 7 5 3
28 30 27 31 36 29 25 20 20 18 16 15 16 18 19 14 11 7 6 9 10 10 10 9 9 8 7 6 5 5 5 5 5 4 4 6 7 3 3 5 6 7 8 9 8 7 5 3 2
29 30 34 36 33 27 23 20 17 15 16 14 16 18 18 17 12 12 10 11 11 11 10 9 9 8 7 6 6 6 6 5 5 6 7 7 2 5 8 8 8 8 8 7 6 4 2 1 1
28 28 34 34 32 32 26 21 14 11 8 11 10 19 23 25 24 18 15 12 12 11 11 10 10 9 8 8 8 8 7 8 8 7 8 7 7 8 8 7 7 6 6 4 3 2 1 2 3
25 29 36 34 28 29 21 19 19 15 10 11 10 14 20 23 30 23 18 14 14 12 11 11 11 10 10 10 9 10 8 7 5 5 7 7 7 6 5 5 4 5 4 3 1 2 2 3 4
23 31 32 32 24 24 29 28 27 25 20 14 11 17 22 20 20 18 18 15 14 12 11 12 12 11 10 9 9 8 6 5 5 6 5 5 5 4 3 3 3 3 2 2 2 3 3 4 4
23 30 28 28 25 20 25 31 29 27 25 17 11 15 22 20 19 20 20 16 14 14 14 12 12 11 11 9 9 8 7 6 6 4 3 2 3 3 4 3 2 2 2 2 3 3 3 3 3
19 22 25 28 28 30 30 31 32 28 27 16 13 16 16 23 28 25 31 21 19 15 15 15 16 14 13 12 11 9 8 7 6 4 3 2 3 4 4 4 3 2 2 2 2 3 3 3 2
16 18 20 20 22 24 26 27 30 32 28 18 17 18 17 21 27 28 31 23 21 19 19 18 18 16 15 14 12 10 10 9 7 5 4 3 4 4 3 3 3 3 3 3 3 4 3 3 3
12 15 16 15 15 20 25 24 24 27 13 19 22 19 19 21 20 19 31 31 25 21 20 19 18 16 15 13 13 12 12 11 9 7 5 3 4 4 2 3 4 3 3 3 4 5 5 4 4
16 18 12 5 5 9 12 20 24 22 17 19 18 21 20 21 25 22 26 28 27 26 19 20 20 18 16 15 14 13 14 11 10 9 7 5 4 5 4 4 4 3 3 4 5 4 5 5 5
15 9 19 15 15 12 13 21 14 8 12 18 26 26 23 23 23 25 29 18 21 28 27 24 22 20 18 18 15 13 14 13 12 11 8 7 5 4 4 6 5 5 5 5 6 6 6 7 7
15 21 24 21 17 18 17 24 22 14 17 20 23 28 26 27 26 28 32 24 22 32 28 26 25 19 18 15 10 12 14 13 11 10 10 7 5 4 5 7 6 6 5 5 6 7 8 9 9
22 27 27 28 26 21 23 27 25 25 24 22 22 28 31 30 31 28 30 27 27 33 34 28 27 19 15 19 19 19 18 17 16 13 13 11 7 6 5 6 6 6 6 6 8 9 9 10 11
22 25 26 26 23 26 27 29 24 21 29 28 25 26 27 33 30 29 30 30 33 29 37 33 31 21 23 23 18 24 20 17 16 11 12 13 10 7 6 5 6 8 9 9 10 11 11 11 12
19 26 25 25 24 24 28 31 28 20 22 28 29 28 29 28 31 36 33 33 34 30 33 30 22 21 22 24 23 20 18 21 16 18 15 15 13 12 8 6 6 7 9 10 12 13 13 14 15
27 23 32 33 34 33 27 24 23 18 20 23 23 32 30 29 29 38 38 33 34 34 32 28 26 30 21 24 19 21 22 24 22 25 20 16 16 13 11 9 7 7 8 10 12 15 16 17 18
32 31 33 36 30 17 23 7 21 15 8 9 18 31 31 30 29 33 30 32 31 30 30 29 33 34 32 27 23 22 22 24 27 27 23 21 18 16 14 11 10 11 8 10 12 16 18 20 22
28 32 35 25 16 12 12 4 11 12 11 12 9 20 29 28 26 28 27 25 27 29 29 26 32 37 36 34 31 25 24 21 16 12 14 22 17 18 18 13 13 14 14 12 15 17 20 22 24
28 34 8 9 10 3 11 10 7 19 14 4 4 15 26 22 22 24 22 22 23 25 26 27 28 43 40 39 37 31 18 20 23 10 8 14 20 19 21 16 16 16 17 17 18 20 22 25 28
28 32 8 7 7 6 21 3 9 18 14 11 5 12 21 19 15 22 20 22 23 21 20 20 19 28 38 44 34 33 19 25 3 7 7 15 21 20 18 17 19 16 19 20 23 26 26 29 31
25 21 6 3 5 6 18 14 12 26 15 12 5 6 10 13 11 17 17 20 20 20 17 18 25 26 34 33 25 23 10 14 6 16 15 19 18 21 18 19 19 18 24 24 28 28 31 33 33
21 20 14 3 6 4 4 16 12 27 17 16 9 6 6 9 10 14 13 15 18 18 19 20 23 27 27 26 15 14 6 8 17 13 16 17 18 14 17 19 21 24 25 28 32 32 33 36 37
17 19 9 7 5 5 10 6 18 31 23 15 9 7 9 10 13 14 14 15 16 15 18 16 13 16 19 10 15 9 8 12 11 9 9 11 12 14 17 21 27 27 29 32 34 32 37 37 39
18 20 10 6 4 2 5 6 22 23 22 19 14 2 7 9 17 12 12 10 8 8 15 16 16 13 13 15 13 8 8 7 7 10 9 12 14 17 20 25 29 29 31 33 33 36 40 41 44
12 16 17 6 2 4 4 6 21 21 18 16 15 19 7 5 6 7 6 12 7 17 21 17 13 7 7 7 5 2 3 4 4 6 13 15 19 23 25 29 30 32 34 35 38 40 42 44 45

GFSSGP_700_spd_108.txt.gz
Wind_Speed
19 18 16 15 9 10 13 9 8 8 8 3 6 12 11 9 11 10 9 7 7 7 5 6 9 9 8 8 6 6 6 7 7 5 5 3 2 3 2 2 3 4 7 8 8 10 10 10 9
20 20 20 17 14 17 16 11 10 7 8 9 13 15 15 12 11 12 13 13 11 9 8 6 7 9 7 6 6 5 5 5 6 4 4 3 2 2 2 2 4 6 6 6 7 8 8 6 4
23 21 21 18 21 28 21 11 8 3 5 4 10 15 17 14 11 12 12 12 12 13 13 8 7 7 6 6 5 4 4 5 4 4 3 3 2 1 1 3 4 3 3 4 4 6 6 6 4
25 23 24 25 25 20 19 18 13 11 11 7 4 7 14 15 12 11 12 11 11 12 11 10 8 8 7 6 5 4 4 4 4 4 4 3 3 4 3 3 4 1 3 3 6 6 6 5 3
25 27 27 26 32 31 26 21 15 20 19 15 12 9 10 9 9 8 10 10 7 8 10 10 9 8 7 6 5 5 5 4 4 3 4 4 3 3 3 2 1 4 6 7 8 7 6 4 2
26 27 24 27 35 29 27 23 20 19 19 17 16 11 14 15 11 9 8 7 8 9 9 9 9 8 8 7 6 6 5 5 4 4 4 6 6 5 2 4 6 7 8 8 7 5 4 2 1
24 28 33 34 33 28 22 23 22 18 16 15 23 15 14 15 17 16 11 9 9 10 10 9 9 9 8 8 7 7 6 6 5 7 6 8 5 3 6 7 8 8 7 6 5 3 1 1 2
22 24 31 33 33 32 27 25 21 21 16 11 7 14 19 14 17 18 14 12 12 12 11 11 10 9 9 8 8 7 7 6 9 10 10 8 5 7 7 7 7 6 5 4 2 1 1 3 4
18 24 31 31 27 29 20 17 20 20 21 12 12 10 16 15 19 24 26 17 16 13 12 12 12 11 10 10 9 9 9 10 8 8 8 7 7 6 6 5 5 3 2 1 0 1 2 3 4
17 23 25 26 23 27 27 29 29 27 24 22 14 12 12 22 17 16 20 19 19 15 13 13 14 13 12 11 9 11 12 11 9 8 6 5 5 4 4 3 2 1 1 2 2 3 4 4 4
15 20 22 23 23 23 26 29 31 30 32 28 22 15 15 17 19 16 14 13 15 15 15 14 14 15 14 12 12 11 11 10 8 6 5 5 3 2 2 2 1 1 2 2 3 3 4 4 3
13 15 18 21 23 25 28 28 32 32 29 25 22 21 20 18 19 19 12 13 16 18 16 15 16 16 15 15 13 13 11 10 9 8 7 5 4 3 3 2 2 2 3 4 4 5 5 4 3
9 10 12 15 17 20 21 23 25 30 26 25 24 24 20 21 18 23 22 18 24 23 18 19 18 17 17 16 16 14 12 11 10 9 6 5 5 4 4 3 3 3 3 4 4 4 5 4 4
12 15 14 12 11 19 21 23 23 25 21 15 23 26 23 22 18 23 24 22 23 18 21 23 19 18 18 17 16 15 14 13 11 9 7 6 5 5 5 4 4 4 5 5 5 5 5 5 4
15 16 7 4 10 11 16 20 19 20 22 19 18 28 26 23 24 23 19 21 30 23 21 23 19 21 21 19 18 17 15 15 12 10 9 8 6 7 7 7 6 6 6 7 6 6 6 6 6
15 6 19 13 12 11 15 25 16 13 13 15 24 26 30 26 25 22 23 19 26 29 26 27 24 22 22 20 20 19 18 16 14 13 12 11 8 6 7 7 6 7 7 7 7 7 6 6 6
9 22 24 20 17 15 16 25 22 20 19 17 20 32 29 28 28 27 26 25 26 26 27 33 28 24 20 21 21 19 20 19 16 16 16 14 9 7 7 9 9 8 8 7 7 7 7 7 7
20 24 24 24 22 19 21 25 23 23 26 27 21 22 31 35 31 29 27 28 32 24 30 36 32 24 20 20 22 20 20 14 19 20 18 16 12 9 8 8 9 10 10 9 9 8 7 7 7
19 23 24 24 18 26 28 29 24 19 23 26 26 24 24 33 34 31 30 30 36 32 29 34 33 29 22 21 25 22 20 21 22 23 22 20 15 10 9 8 8 9 9 8 8 8 8 8 9
24 22 27 24 31 28 27 28 21 18 21 20 22 26 28 30 35 34 33 33 36 35 29 31 38 32 29 32 30 31 28 25 27 26 26 21 17 15 11 9 8 7 8 8 9 9 10 10 11
23 25 31 29 27 16 16 13 11 10 9 14 20 26 31 30 30 35 38 36 33 34 30 29 33 37 25 21 32 32 35 34 30 30 30 30 25 20 15 9 11 10 8 9 10 10 11 12 14
24 30 24 18 24 10 19 6 13 19 5 9 15 23 27 31 29 30 30 38 34 29 26 29 27 40 23 23 23 35 30 36 32 31 33 36 31 28 21 18 15 12 10 11 12 11 13 16 18
25 29 8 17 20 14 23 5 9 21 14 9 15 16 22 29 26 25 26 26 32 28 22 23 25 26 23 27 33 33 28 38 31 36 33 25 24 27 21 13 15 15 14 17 17 17 18 20 22
27 25 3 8 10 4 18 6 8 28 22 13 8 14 13 21 18 15 18 21 22 24 18 19 18 23 26 29 35 36 36 44 31 37 29 12 13 18 23 23 21 19 20 20 20 21 22 23 25
27 29 11 6 7 3 19 9 11 27 20 17 2 4 8 11 13 14 19 18 19 23 24 19 18 22 22 25 30 32 38 22 12 17 7 2 8 20 21 23 21 20 21 21 22 23 25 27 28
23 21 5 2 5 6 6 11 17 30 20 18 7 6 7 10 11 12 16 14 17 19 17 15 14 18 23 26 26 32 22 20 12 9 7 11 15 19 24 22 24 22 23 25 25 28 29 30 30
15 18 13 2 6 4 5 11 18 35 11 15 16 9 7 7 9 8 10 14 16 20 16 15 15 19 20 25 24 11 5 2 7 8 9 16 19 21 22 24 24 23 24 26 30 29 32 32 37
15 21 8 7 5 6 7 4 19 38 25 18 13 14 10 7 6 6 7 9 12 12 14 15 18 16 12 11 13 8 2 7 8 9 14 12 14 16 20 18 22 24 26 29 33 36 36 37 38
14 17 13 6 2 1 6 3 26 24 25 19 12 16 14 7 6 7 5 4 6 10 12 9 6 10 6 17 2 3 8 9 9 10 9 12 13 14 16 20 23 27 28 31 34 33 36 37 38
8 14 18 5 6 5 3 5 23 22 23 25 21 16 11 11 9 5 4 7 2 4 4 6 6 11 8 6 6 9 10 10 10 9 7 10 14 16 20 23 25 27 32 33 35 37 39 40 43

GFSSGP_700_spd_111.txt.gz
Wind_Speed
17 17 16 15 10 9 12 9 9 4 5 5 7 7 10 15 7 3 7 7 4 4 5 2 6 10 10 9 9 8 9 8 6 5 4 2 1 1 1 3 4 7 7 8 9 8 7 7 7
20 19 18 18 14 16 15 11 7 10 4 3 8 10 13 13 12 9 8 9 9 6 5 3 4 8 9 8 7 7 7 8 8 4 4 3 1 1 1 4 7 9 6 6 7 6 5 4 3
23 21 19 17 23 28 20 14 5 9 1 5 3 6 10 15 12 11 8 9 9 7 6 6 5 7 8 8 7 7 7 6 5 5 4 3 2 1 3 5 5 6 4 3 4 4 4 3 1
24 24 23 23 24 18 17 16 20 12 12 10 8 6 9 13 13 10 9 9 10 9 8 8 8 9 8 7 7 6 5 6 5 4 4 3 3 4 4 5 4 3 2 1 4 4 4 3 1
24 26 26 26 30 32 25 22 17 15 19 17 10 10 9 7 9 7 7 9 10 8 9 10 10 10 9 8 8 7 6 7 6 6 5 5 6 5 5 4 1 2 5 7 7 6 4 2 1
22 25 24 30 35 32 26 24 22 20 18 18 16 12 11 11 9 6 5 7 7 8 9 10 10 12 10 10 8 7 7 7 6 7 7 8 8 8 6 3 5 5 6 6 5 4 3 1 2
19 23 27 29 25 22 15 17 17 20 19 15 14 18 16 9 10 11 7 10 8 9 10 11 11 11 11 10 8 8 8 8 8 8 9 10 9 5 4 5 7 6 5 4 3 1 1 2 3
16 21 21 26 22 27 23 23 22 18 19 16 12 13 18 21 12 11 12 11 11 11 12 13 13 13 11 10 10 10 10 9 8 11 9 10 6 5 6 6 6 5 4 3 2 2 3 5 5
12 18 22 25 21 22 18 14 20 19 19 18 17 12 11 17 18 13 15 14 19 13 14 15 15 14 13 12 12 12 12 11 13 12 10 9 7 6 5 5 4 4 3 2 2 3 5 6 7
12 17 18 20 21 22 23 24 28 25 19 23 20 11 14 16 19 6 11 18 19 18 16 16 16 15 15 14 13 13 14 16 13 12 11 9 8 5 4 3 3 4 3 3 3 4 5 6 7
10 13 14 15 19 21 22 23 23 32 33 29 26 20 16 17 17 24 16 14 11 14 16 15 15 16 17 15 15 15 15 16 14 11 10 9 7 5 4 4 4 4 4 4 4 5 5 6 6
10 10 12 14 15 18 20 22 26 28 32 24 24 30 24 22 18 18 20 17 15 16 16 16 17 17 17 17 17 16 16 16 13 11 10 8 6 5 5 4 5 5 5 5 5 5 5 5 4
7 12 13 14 13 17 20 21 22 25 23 21 22 26 29 25 23 20 21 20 17 13 15 16 17 18 19 19 18 18 17 16 14 12 10 8 7 7 6 6 6 6 6 7 7 7 7 6 5
14 16 15 15 14 16 18 18 20 19 19 15 18 26 30 28 24 23 22 23 16 17 17 16 15 16 18 19 19 19 19 17 15 13 11 9 8 7 7 7 7 8 8 9 9 9 7 6 5
12 13 8 10 12 15 19 20 18 12 10 15 20 23 30 32 30 27 19 20 21 18 17 18 17 14 16 18 20 22 20 18 16 14 12 11 9 8 8 9 9 10 10 10 10 9 8 7 6
8 6 18 13 8 10 15 25 20 16 18 14 18 25 27 35 33 27 24 22 25 27 23 20 17 19 14 18 22 21 21 19 18 15 14 13 10 8 10 10 11 11 11 11 11 10 9 8 7
13 19 20 16 12 13 14 23 17 17 22 23 18 26 28 35 35 33 28 23 24 27 27 25 19 20 23 26 25 23 23 21 20 18 16 16 13 11 12 13 13 13 12 12 12 10 9 8 7
17 20 21 20 21 16 19 27 24 20 21 22 24 24 27 32 34 31 31 25 27 26 31 31 25 23 21 18 25 27 25 25 24 21 20 20 18 15 14 13 14 14 13 12 12 11 9 8 8
20 19 21 21 15 22 21 23 22 16 23 23 21 22 27 28 31 33 32 30 30 30 30 28 27 29 28 25 27 29 27 26 25 23 25 25 24 22 17 15 15 14 13 13 13 12 11 10 10
15 18 23 19 19 13 21 17 8 12 10 16 21 22 28 32 28 33 33 32 30 32 33 29 29 30 30 24 27 29 26 27 26 26 28 31 30 27 24 18 16 15 14 13 13 13 13 12 12
17 18 25 17 18 11 25 11 12 14 8 9 14 21 23 29 30 30 37 32 31 32 34 32 29 30 30 33 31 30 31 31 32 35 36 38 39 34 27 21 19 17 15 15 15 15 14 14 13
20 27 17 8 12 11 23 4 12 24 8 6 10 17 21 22 29 27 27 35 32 30 31 35 25 23 27 40 32 34 34 39 40 42 43 43 42 37 37 30 27 18 16 15 16 17 16 16 15
25 26 6 6 8 19 22 4 5 35 24 12 10 15 15 18 21 27 22 22 29 30 22 21 25 28 29 30 27 21 26 38 40 41 43 49 41 34 31 31 26 21 19 22 21 20 19 19 19
26 21 1 4 8 6 12 11 10 30 30 19 9 8 9 9 14 21 20 17 18 24 28 21 22 26 27 24 24 23 27 29 41 45 53 48 24 21 28 23 20 22 24 24 22 22 22 23 23
23 22 7 5 7 3 13 8 13 30 17 20 13 5 1 8 16 15 15 13 15 17 23 23 19 20 18 23 24 24 33 38 33 32 38 30 5 12 19 21 24 21 24 23 22 23 25 26 27
21 19 6 1 3 7 7 13 22 37 19 17 11 8 10 11 12 12 14 17 19 17 19 19 17 15 15 12 16 20 22 2 6 1 13 13 14 18 19 23 25 30 28 23 25 25 28 28 30
12 15 12 0 2 4 5 9 15 32 15 19 15 14 15 12 11 11 12 13 14 16 16 15 13 12 10 12 11 13 3 17 18 13 12 3 15 23 24 25 31 31 31 23 27 27 29 30 35
13 19 7 7 5 5 7 6 21 35 22 18 17 16 15 14 10 8 7 10 10 12 14 10 8 4 8 11 10 10 11 9 1 7 9 13 17 23 23 22 27 25 27 22 26 29 31 33 36
11 16 11 5 2 1 5 4 26 27 24 16 14 13 14 14 14 10 9 7 5 6 6 3 9 6 10 2 4 4 7 5 7 7 10 9 12 13 18 19 19 18 21 25 30 32 34 37 40
6 12 17 5 4 3 2 4 20 15 21 17 15 13 14 14 12 8 8 9 6 6 11 5 6 7 2 4 5 5 6 6 8 9 10 9 10 12 11 13 18 23 26 30 34 37 41 42 43

GFSSGP_700_spd_114.txt.gz
Wind_Speed
17 16 15 13 7 8 12 8 10 4 2 5 10 9 8 11 7 4 4 6 6 3 2 3 7 11 11 10 11 9 8 8 6 5 3 2 1 2 2 3 3 6 7 7 7 6 5 5 5
20 18 18 16 12 17 15 11 9 9 7 3 7 9 11 9 17 12 7 4 6 6 5 1 7 11 11 11 11 10 10 10 7 5 5 3 2 2 3 5 7 7 7 5 4 4 4 3 1
23 21 19 14 19 25 16 11 9 11 9 1 2 4 9 14 14 13 8 5 6 7 8 5 6 11 12 13 11 9 9 8 8 7 5 5 4 3 4 7 8 7 5 3 2 3 5 5 1
23 23 24 21 23 17 19 15 15 10 9 7 7 5 8 11 13 11 9 8 7 9 10 9 9 13 14 13 11 9 11 8 8 7 6 5 5 6 6 7 7 4 2 1 4 4 3 2 1
20 23 19 23 27 23 17 18 14 11 12 10 12 10 10 8 11 13 10 8 8 9 10 12 12 13 13 13 12 10 10 9 8 8 7 6 7 8 7 6 5 2 1 5 5 4 3 1 1
18 18 19 25 25 21 18 18 17 20 17 14 14 12 13 11 11 10 10 7 8 9 10 12 13 15 15 13 11 10 10 10 10 9 8 8 8 8 9 4 1 6 6 7 6 4 1 1 3
15 13 21 22 22 18 16 15 17 16 18 14 18 10 17 12 13 11 10 8 8 10 12 13 14 17 16 13 12 12 11 11 10 10 9 9 9 8 5 5 4 8 7 6 4 3 1 1 3
13 12 14 16 19 20 16 15 15 12 11 17 13 8 12 17 15 12 12 13 8 11 12 15 16 17 17 16 15 14 13 12 11 10 11 12 11 6 6 7 6 6 5 4 2 1 2 4 4
10 10 13 15 13 14 12 10 12 25 22 23 19 16 16 17 20 19 15 12 17 13 13 16 17 17 17 17 16 16 15 13 12 14 13 14 9 6 7 6 6 5 4 3 2 3 4 5 6
8 10 11 13 13 14 14 17 17 20 15 19 21 19 18 17 17 21 21 12 17 18 16 18 20 20 19 18 17 16 15 14 16 16 14 14 11 8 7 6 5 4 4 5 5 5 5 6 7
10 9 13 14 16 16 19 19 17 20 25 22 22 17 21 17 15 19 18 20 14 16 19 22 21 21 20 19 18 18 16 19 18 16 14 14 11 9 8 7 7 6 6 7 7 7 7 7 8
8 12 13 13 14 17 18 19 22 23 23 24 31 30 31 25 19 17 20 20 13 19 20 21 21 21 21 20 19 19 19 21 21 16 14 13 11 10 8 8 7 7 8 8 8 9 9 8 8
8 12 16 16 16 17 18 20 21 22 20 19 20 30 35 36 28 24 19 20 21 19 22 23 23 19 20 21 21 20 21 23 20 17 15 14 12 10 9 9 9 9 9 10 10 10 10 9 9
12 13 13 12 12 16 17 16 19 14 19 15 17 24 32 34 34 28 28 23 25 24 21 22 20 18 20 20 21 21 22 22 19 17 17 15 12 11 11 10 10 11 11 11 11 11 10 10 9
9 7 13 6 10 16 19 20 18 12 15 12 16 19 28 33 33 33 28 22 27 24 24 24 21 19 21 21 21 21 23 22 20 19 17 15 13 12 12 11 12 12 12 13 12 12 10 9 9
13 8 13 13 9 9 12 16 14 11 16 16 15 15 26 27 33 34 29 26 32 29 27 25 22 17 20 22 21 21 22 23 22 20 19 16 15 13 13 13 13 13 13 13 13 12 12 11 10
9 13 15 13 13 13 11 18 12 15 17 19 20 17 20 28 30 34 32 26 29 33 30 28 18 17 20 21 22 21 21 23 23 23 20 18 17 15 14 14 15 15 15 15 15 14 13 12 11
15 16 13 15 14 15 17 19 19 18 18 18 19 23 23 26 25 31 32 27 29 31 31 28 24 21 20 22 23 22 22 23 26 25 23 22 21 19 18 17 17 17 16 15 14 14 14 13 12
16 14 17 15 12 15 13 16 8 13 14 16 19 17 19 28 30 27 32 28 28 29 31 33 29 27 25 22 23 23 21 24 28 29 27 25 25 24 22 21 20 19 17 17 17 16 15 14 14
13 13 15 8 15 7 18 4 8 14 12 12 11 18 24 29 29 30 29 30 25 26 29 32 35 32 27 24 23 21 20 25 28 32 30 29 29 30 29 25 23 21 21 20 19 18 17 16 16
13 13 17 10 11 12 15 3 5 22 12 13 14 15 18 24 30 30 31 29 26 24 25 28 30 30 28 29 27 25 27 27 29 32 35 34 34 36 36 34 30 26 23 21 20 19 19 19 19
11 22 15 5 6 10 20 4 10 26 17 11 14 16 14 18 23 30 28 30 26 21 21 23 27 25 28 31 30 35 31 29 32 35 39 39 43 42 42 41 41 32 30 29 25 22 21 21 21
15 25 3 4 3 5 19 4 12 25 24 22 10 12 11 10 19 28 27 24 22 26 19 17 25 39 31 34 31 35 30 35 38 43 46 39 38 44 40 40 49 47 45 43 32 21 24 23 21
24 15 4 4 4 4 11 9 15 33 26 22 14 7 5 9 15 22 26 19 16 18 24 17 18 22 21 23 25 22 27 25 26 35 36 42 43 46 42 44 41 31 34 24 21 25 24 25 25
22 16 3 2 4 5 11 7 10 27 19 19 19 9 1 6 9 18 22 17 13 13 16 19 20 17 18 21 23 24 28 32 33 34 40 33 41 43 36 40 24 24 26 28 25 25 26 27 28
17 11 5 3 6 6 10 15 15 13 18 11 14 10 10 12 13 18 20 18 16 14 15 20 19 16 13 14 15 25 25 14 18 6 15 26 20 13 12 18 20 29 30 28 28 27 28 29 30
10 10 8 1 3 4 5 18 14 14 15 12 13 11 11 13 15 15 15 15 13 12 13 16 17 16 13 15 8 10 15 3 5 14 12 11 15 11 11 14 23 29 29 29 30 34 31 30 31
9 14 5 4 5 5 7 14 14 16 19 19 17 15 16 12 13 13 11 11 12 11 12 14 14 12 9 6 2 9 16 16 9 7 5 8 15 14 15 19 24 29 29 35 35 35 39 33 32
6 7 6 2 2 4 6 8 16 18 17 15 16 15 11 14 14 15 13 11 9 10 10 10 8 6 7 6 5 10 11 7 8 9 7 10 15 15 19 24 28 30 31 27 25 27 29 30 33
4 6 9 5 3 3 3 3 15 10 11 12 13 11 11 10 11 15 14 10 9 7 7 8 8 11 9 8 7 11 9 7 7 10 9 7 10 10 11 19 22 20 21 24 28 28 31 34 38

GFSSGP_700_spd_117.txt.gz
Wind_Speed
17 15 13 11 7 10 17 15 13 8 7 6 8 8 7 10 7 5 5 3 5 4 3 3 7 11 11 10 9 9 7 7 5 4 3 1 1 1 1 2 5 6 5 6 6 6 6 6 5
19 17 15 10 14 20 18 14 11 9 11 5 5 7 9 9 17 12 6 7 3 5 5 3 5 10 10 10 8 9 8 8 6 6 4 2 1 1 1 3 7 6 5 4 3 3 4 3 2
20 19 14 12 23 25 20 9 11 10 12 6 4 8 8 10 15 15 10 8 7 6 6 5 4 9 12 11 10 10 10 10 8 7 5 4 3 3 3 5 7 6 4 1 3 4 5 4 0
18 20 18 22 25 17 18 17 12 11 8 10 8 7 13 13 13 14 11 10 10 9 9 8 9 10 13 13 12 11 11 9 10 8 6 5 5 4 6 8 6 4 2 2 4 5 5 3 1
16 13 18 22 25 25 21 16 13 11 13 12 12 10 10 13 14 13 11 11 12 11 12 12 12 11 13 13 13 12 12 11 10 9 7 7 6 7 9 6 5 3 2 5 6 6 5 3 1
11 11 20 23 25 23 20 20 19 21 18 16 15 16 15 14 13 13 14 14 12 11 11 11 13 14 15 14 13 12 12 11 10 9 8 8 8 8 8 5 4 4 5 6 7 5 3 1 1
12 13 19 23 24 22 17 15 20 20 19 19 15 11 15 19 13 14 13 15 12 11 10 11 13 16 17 15 14 13 13 12 11 10 10 9 9 9 9 7 6 6 6 5 4 3 1 1 2
10 13 19 19 21 21 16 17 13 14 14 20 17 8 19 25 20 14 15 14 13 11 10 12 14 17 19 17 17 15 14 13 13 11 11 11 11 10 8 7 9 7 6 4 2 1 1 2 3
10 10 14 15 17 17 13 14 14 16 18 11 13 13 17 2 15 17 15 14 13 14 12 11 15 18 20 20 19 17 16 15 14 13 13 12 13 9 10 7 9 5 5 3 2 2 3 4 5
8 10 12 12 11 13 14 15 15 17 16 15 16 14 25 24 16 16 19 18 15 18 17 14 17 18 21 21 19 18 16 15 14 14 16 18 14 9 9 9 8 7 5 4 4 4 5 6 6
6 12 12 13 12 14 16 17 17 18 21 19 18 15 17 23 21 18 21 18 15 17 19 18 21 21 18 22 18 18 16 16 16 17 15 14 14 10 10 10 8 7 6 5 5 6 6 7 7
8 10 10 12 12 14 16 16 18 19 20 20 21 22 22 17 23 19 18 21 26 31 24 21 25 20 21 21 18 18 18 17 20 17 17 14 14 12 10 10 8 7 7 7 7 7 7 7 7
10 9 13 15 16 16 17 18 18 19 19 18 19 22 26 22 23 24 20 20 19 20 19 24 21 27 21 20 20 22 19 20 22 20 17 16 14 12 11 11 9 9 9 9 9 9 9 9 8
10 12 13 13 12 13 14 17 15 13 12 12 14 19 21 25 24 24 30 25 25 29 27 24 28 26 19 22 21 22 21 22 24 21 18 17 15 14 14 12 10 10 10 10 10 10 10 10 9
9 9 9 5 10 12 12 14 15 13 13 12 11 12 14 19 23 26 28 34 25 27 27 26 20 25 26 27 25 21 22 24 23 21 21 18 17 15 15 13 11 11 11 12 12 12 12 12 12
8 7 12 11 9 12 11 15 9 10 12 15 14 14 16 18 19 22 25 31 32 28 32 29 27 28 29 30 27 24 24 24 24 23 21 20 18 17 15 14 13 13 13 13 14 14 14 13 12
5 17 15 13 13 12 12 18 15 14 19 19 17 18 18 17 18 21 22 29 37 32 36 32 35 33 29 27 26 24 25 24 23 23 22 22 21 18 17 15 15 15 15 15 16 16 15 15 13
18 18 15 15 13 13 11 14 14 12 14 14 15 17 17 19 16 16 21 31 36 36 38 41 40 29 26 27 23 24 25 23 24 23 22 22 23 21 21 19 17 17 17 18 17 16 16 15 14
16 17 16 15 8 11 13 10 4 10 10 9 10 10 11 15 18 22 26 29 38 33 41 61 38 35 33 19 22 26 24 24 26 24 23 24 25 25 24 21 21 21 20 20 20 19 18 16 16
16 14 16 9 9 10 19 6 4 12 11 11 13 13 11 15 16 14 23 27 33 26 28 37 40 30 29 35 25 28 27 27 27 24 25 25 27 29 28 26 25 25 25 25 23 21 19 18 16
14 11 20 16 14 9 22 7 5 16 13 14 9 9 10 11 14 16 18 27 28 24 32 28 29 34 28 26 24 25 26 27 25 25 24 26 29 34 33 33 31 31 32 29 26 22 22 21 20
11 22 14 7 8 10 15 3 4 20 19 17 16 13 11 14 16 13 22 23 26 22 21 25 21 29 30 30 25 25 27 25 26 27 26 27 29 33 36 36 37 36 34 30 31 27 29 27 22
13 18 9 5 8 9 16 7 8 24 27 27 21 14 7 9 18 22 14 21 22 24 24 21 20 26 31 28 22 27 27 27 28 31 36 42 40 42 40 45 40 46 44 43 45 41 41 32 26
22 15 10 7 6 2 17 7 9 27 28 25 26 15 10 7 12 20 14 22 17 15 23 20 20 29 27 27 21 27 24 30 32 29 31 33 34 34 42 47 44 36 48 43 42 45 36 39 26
18 17 4 3 5 7 17 5 7 19 26 23 22 19 8 3 8 11 9 18 16 12 12 11 10 22 14 11 17 27 22 30 28 26 31 34 31 35 43 51 36 45 37 35 27 37 32 29 25
11 11 4 2 5 7 10 11 10 20 21 20 18 15 9 7 6 13 16 18 13 12 13 8 10 13 11 8 8 10 11 17 20 15 10 18 26 27 24 15 23 32 28 29 25 29 30 26 26
9 11 7 3 5 6 1 14 9 15 17 17 20 17 9 11 12 12 11 9 9 8 6 5 9 9 8 7 7 5 9 14 1 3 1 4 11 10 11 6 10 14 18 22 27 27 25 29 30
8 12 4 3 4 5 4 10 13 18 19 18 14 16 15 11 14 14 11 10 7 6 6 9 8 8 8 6 4 3 1 4 14 11 4 3 3 4 6 9 10 10 15 23 28 27 29 35 37
6 6 6 4 3 4 7 8 12 13 15 13 12 15 15 14 12 12 11 10 10 9 7 7 6 5 6 7 3 8 12 11 6 5 5 9 11 12 11 11 12 14 16 22 25 31 39 41 39
4 3 6 6 8 6 6 4 11 13 10 11 10 13 12 11 15 14 17 15 14 12 11 12 11 10 11 11 13 12 9 9 9 10 9 11 10 9 10 14 19 23 27 29 32 30 27 30 31

GFSSGP_700_spd_123.txt.gz
Wind_Speed
13 12 14 11 8 5 8 6 6 11 8 12 12 12 8 8 10 8 7 7 4 1 3 2 7 12 13 13 10 8 6 7 6 4 3 2 3 3 5 8 9 10 10 10 9 8 7 7 7
13 14 14 12 7 7 12 8 6 11 9 11 13 18 15 17 12 6 6 7 4 2 1 4 4 9 14 13 11 10 8 8 6 4 3 2 2 2 5 7 8 8 8 7 6 6 6 5 5
11 15 15 8 12 17 16 5 8 10 11 8 8 7 13 16 18 17 14 9 8 5 3 4 6 6 12 12 11 10 8 9 7 5 3 3 2 3 5 7 6 6 5 5 6 6 5 4 3
10 13 12 16 15 10 14 12 19 8 10 10 6 13 13 17 16 16 16 18 14 9 7 7 8 9 11 14 12 13 8 9 8 6 5 4 4 7 7 7 5 4 4 4 6 5 4 3 3
9 13 13 15 15 13 10 15 14 16 20 18 18 13 16 18 16 18 21 20 18 15 12 10 10 11 12 16 15 14 10 10 9 8 6 6 7 9 5 5 4 2 2 4 5 4 2 2 3
9 8 9 13 12 11 18 19 19 18 20 25 18 16 15 19 15 15 17 23 22 18 15 13 13 14 15 17 16 15 12 12 10 8 8 7 9 12 9 6 5 1 3 5 4 2 1 1 3
4 8 12 11 14 15 14 14 18 14 15 22 27 29 20 24 19 20 17 20 25 22 20 16 16 17 18 18 17 16 15 13 12 10 10 10 10 10 9 8 4 1 5 4 3 1 1 0 2
5 9 11 11 11 14 15 16 12 11 16 13 12 21 22 12 20 26 23 22 23 23 21 19 19 18 19 20 19 17 17 14 12 12 11 11 12 13 11 8 3 4 5 4 2 1 2 1 1
5 8 6 6 12 13 15 18 17 12 7 4 10 19 22 21 28 32 26 27 24 25 23 19 21 20 20 21 20 19 18 15 13 13 13 13 14 16 10 6 4 5 4 3 2 2 2 2 3
3 6 5 8 16 20 23 21 19 23 23 14 11 8 19 20 19 21 43 32 25 26 22 16 22 22 23 22 20 18 15 13 13 14 14 15 16 16 11 6 6 5 2 1 2 2 2 2 3
8 11 9 14 19 24 27 25 26 27 29 22 17 13 17 15 16 15 16 29 14 19 21 20 22 26 26 23 22 20 18 15 14 16 16 16 16 15 11 6 6 4 2 1 1 1 3 2 2
14 7 7 11 18 16 17 17 17 19 26 30 28 22 20 17 19 12 14 16 20 25 27 29 18 21 26 24 23 21 20 17 16 18 17 16 15 13 10 8 6 4 3 2 3 4 4 6 1
6 11 10 9 8 14 22 18 20 15 14 13 14 22 31 27 21 19 14 18 19 17 27 19 19 21 21 18 20 19 19 19 18 18 17 16 16 13 10 8 6 5 3 4 5 6 7 9 4
8 7 8 11 8 10 20 19 11 16 10 6 12 18 16 21 29 24 19 16 22 22 28 29 27 23 15 13 21 8 14 18 20 19 18 16 15 11 8 6 6 7 5 6 7 8 8 8 7
10 9 13 6 5 13 21 13 9 13 5 11 14 12 13 12 8 21 31 22 22 25 25 20 18 32 25 22 29 17 13 18 22 20 19 17 14 11 9 10 10 8 8 8 8 9 8 9 11
5 9 14 12 14 14 17 14 13 18 18 16 17 17 17 16 11 11 15 27 22 23 25 24 19 24 26 25 25 25 20 20 23 21 27 22 17 12 9 8 9 9 9 9 8 9 10 11 12
0 13 12 11 8 9 17 11 17 21 23 24 24 24 28 26 20 16 15 19 31 25 24 25 21 24 26 27 25 29 25 24 23 25 32 25 19 13 11 10 10 11 10 10 10 11 13 13 13
11 17 18 22 14 15 12 13 16 21 14 15 23 25 19 26 30 23 17 11 19 31 25 25 25 24 30 28 32 27 24 26 27 26 25 23 20 16 14 13 12 12 12 12 13 14 15 16 16
14 15 18 15 11 12 11 14 18 16 10 18 25 25 22 20 29 31 19 13 19 25 28 23 27 29 27 34 34 31 28 27 27 26 29 28 21 19 16 17 15 14 14 14 16 17 18 19 19
11 12 15 20 8 13 9 19 16 19 17 29 34 29 23 19 28 30 16 19 16 22 24 21 24 24 26 33 40 36 22 27 28 28 27 27 22 19 18 18 17 17 17 17 17 20 22 22 22
13 9 17 13 10 5 4 5 10 17 20 29 28 26 25 19 22 34 23 16 20 13 23 26 31 26 23 26 32 20 23 25 28 30 29 29 20 17 18 19 19 20 22 20 22 23 25 24 24
12 12 6 9 11 3 8 4 13 14 29 31 26 25 22 15 12 33 28 15 10 11 11 15 16 20 19 22 27 27 24 26 30 30 25 22 20 19 19 20 22 22 24 25 27 29 26 24 27
11 17 6 8 8 8 9 5 7 16 28 29 27 26 20 11 3 14 23 23 14 11 6 10 12 11 13 13 20 25 33 26 29 23 20 23 23 23 20 27 25 27 27 30 38 36 27 27 29
15 9 2 2 3 2 7 5 6 20 25 29 28 24 19 9 5 3 19 15 14 10 5 7 8 5 4 4 10 28 32 35 32 29 22 18 18 29 29 25 33 32 36 40 42 38 36 32 30
8 12 5 4 2 4 9 6 7 18 23 24 28 22 17 8 9 13 16 9 11 8 6 5 6 7 6 3 6 22 4 17 17 17 11 11 16 17 23 20 26 29 34 34 33 39 30 34 38
8 11 3 4 0 5 5 5 8 15 26 19 23 20 17 10 9 8 15 14 10 10 5 6 10 6 8 7 11 8 5 9 12 8 6 15 21 22 29 31 30 27 28 24 24 36 37 31 28
2 4 6 1 4 3 1 1 4 20 18 17 20 13 15 13 14 18 16 13 12 9 9 7 7 5 9 5 11 11 9 9 11 17 13 17 18 21 20 19 10 9 15 14 12 13 14 18 17
4 4 2 2 2 3 2 2 11 19 20 20 16 10 11 12 11 13 13 10 9 9 8 8 10 9 10 11 10 8 10 13 14 12 6 4 5 7 2 5 2 4 4 1 5 6 9 10 10
2 3 2 2 2 3 2 4 11 16 17 18 13 11 11 10 10 12 11 12 10 10 11 12 11 10 9 8 10 10 13 14 14 12 6 2 4 5 5 4 2 1 3 4 4 5 7 11 14
7 7 4 3 3 3 4 4 9 14 15 14 12 10 8 10 11 11 12 11 11 10 11 12 13 11 9 9 9 9 11 12 9 5 5 5 5 3 3 6 5 6 10 8 9 9 10 19 22

GFSSGP_700_spd_129.txt.gz
Wind_Speed
15 15 13 10 6 6 7 2 6 3 1 2 3 10 13 14 10 5 8 8 9 8 5 4 7 12 14 14 12 10 10 10 9 7 6 4 4 6 7 9 9 10 9 7 6 5 6 6 6
15 15 13 11 7 10 8 8 7 7 4 4 6 8 14 13 11 10 5 9 8 7 6 4 6 10 13 14 14 14 12 11 10 8 6 5 5 7 9 9 9 9 8 6 6 4 4 4 5
15 13 12 7 12 15 7 5 6 11 6 7 4 9 12 14 16 13 6 8 8 8 7 5 5 8 12 15 16 17 14 12 11 9 7 5 6 7 8 9 9 8 7 6 5 3 2 3 5
12 13 12 14 12 7 9 11 16 13 9 8 8 13 14 13 15 11 11 12 10 12 11 10 9 9 12 16 18 19 16 14 13 10 8 6 6 8 9 9 8 7 6 5 3 3 2 3 5
11 12 15 13 12 10 11 13 14 12 12 9 13 15 19 18 15 15 17 14 13 15 16 16 15 14 13 16 19 19 17 15 14 11 9 8 7 8 9 8 8 6 4 3 3 3 3 3 5
10 11 10 12 11 8 7 9 9 10 13 13 11 11 15 19 23 19 19 21 17 17 19 20 18 18 18 17 19 19 18 16 15 12 11 9 12 10 8 7 6 4 2 3 2 4 4 5 5
9 9 8 8 5 5 9 8 8 7 10 13 15 12 14 19 21 21 21 18 20 20 20 21 21 22 21 21 21 21 21 18 15 14 13 12 14 12 9 7 6 4 3 5 4 4 5 6 7
6 6 5 4 7 8 11 10 11 11 9 9 12 11 14 15 20 25 28 30 25 21 25 25 25 24 25 25 24 25 23 20 17 16 14 15 17 15 11 9 7 3 2 4 3 3 7 7 7
6 5 4 7 9 11 10 13 16 18 17 15 11 11 14 19 19 19 21 24 29 31 29 32 33 31 27 28 28 27 26 22 19 18 16 18 19 17 14 11 7 2 1 2 2 4 6 7 7
1 3 3 6 10 13 13 12 14 16 20 22 20 17 15 13 18 18 19 24 24 20 31 36 33 35 33 34 32 29 28 25 20 18 16 16 15 17 15 12 7 3 1 2 4 7 7 7 7
1 2 3 3 8 10 4 6 11 11 13 17 25 26 21 20 20 18 15 19 19 20 20 30 37 36 44 30 36 32 30 26 21 18 17 16 17 17 15 11 6 3 2 5 6 6 7 7 7
4 4 4 3 1 3 4 9 11 9 13 15 18 20 24 25 25 26 23 20 18 19 19 21 27 44 42 26 35 32 30 25 20 18 17 16 15 16 16 12 7 5 5 6 6 5 5 6 6
4 2 2 4 4 7 6 7 10 10 13 14 15 13 13 14 17 22 23 26 28 23 19 18 26 28 30 30 31 29 28 25 21 18 16 17 18 17 16 12 8 7 7 6 6 5 5 5 5
3 3 3 3 6 8 8 9 12 15 12 14 13 15 16 16 18 19 18 20 25 28 25 19 20 12 28 26 27 28 27 26 23 19 17 18 19 18 17 12 10 10 9 7 6 6 7 6 5
6 9 6 8 6 9 11 11 16 20 15 18 20 17 16 17 20 22 22 22 20 19 25 22 13 11 11 30 29 30 28 25 24 21 18 18 18 20 17 13 12 12 10 7 6 6 6 7 5
4 5 10 9 9 10 11 16 18 15 19 20 21 18 18 19 21 26 29 26 22 18 20 13 16 14 15 25 26 25 27 25 21 23 21 20 20 19 16 14 14 13 9 8 7 6 5 6 6
3 5 8 8 7 10 12 18 17 20 21 21 21 20 18 20 26 31 28 31 26 16 14 18 19 11 12 14 15 22 20 26 18 20 19 20 23 22 17 15 14 13 11 10 9 8 7 6 6
5 9 10 11 12 13 16 18 17 21 22 23 24 29 28 28 25 20 23 27 29 21 17 17 15 10 14 12 9 2 34 22 16 19 19 22 22 18 16 13 13 13 12 11 10 10 9 8 8
9 10 14 12 9 11 8 10 13 17 18 22 26 27 26 28 21 13 18 21 27 21 19 10 17 15 11 11 10 7 14 10 17 23 21 23 24 21 13 13 13 14 13 12 12 12 12 11 11
11 13 13 6 5 10 9 11 14 16 18 21 34 28 28 24 20 13 13 19 21 19 17 14 15 14 11 10 10 11 17 21 19 26 28 21 23 26 23 14 15 17 16 14 14 14 13 12 12
11 14 10 10 8 9 11 14 11 11 15 28 27 28 25 23 17 5 14 19 17 16 13 12 10 11 10 8 9 11 18 24 29 16 29 25 26 26 25 17 15 15 16 15 15 16 15 15 15
11 6 11 10 10 5 6 6 9 11 24 27 25 26 23 17 13 1 21 19 14 13 11 9 5 7 10 10 12 13 15 24 26 20 25 26 27 28 26 20 15 16 17 17 17 18 19 19 19
4 9 13 10 11 8 5 6 4 15 29 27 24 23 17 18 13 5 25 17 14 11 10 9 11 13 14 15 16 18 16 20 19 22 29 20 23 28 19 21 19 19 20 20 20 22 22 21 22
7 8 4 3 4 3 3 3 5 19 28 27 21 20 16 17 15 26 21 18 13 10 7 8 12 13 12 12 14 17 19 18 8 12 21 19 23 24 24 18 18 18 19 20 23 24 24 25 26
5 6 2 2 2 4 5 6 7 18 23 22 20 18 17 10 15 14 14 15 12 10 8 7 10 12 13 13 12 18 16 17 15 18 12 23 23 33 21 25 29 24 26 26 29 29 28 29 28
5 3 3 5 2 4 5 4 6 14 17 18 18 19 19 9 11 8 7 9 10 11 7 9 9 9 7 9 10 15 18 16 9 11 7 19 22 22 17 12 16 22 23 29 26 29 34 31 31
5 3 1 2 1 2 4 6 9 12 12 17 16 15 17 15 8 6 8 8 7 7 7 4 6 4 7 7 1 10 17 15 8 16 20 15 11 22 11 13 14 16 17 25 26 24 31 32 29
8 4 2 2 1 3 5 7 7 10 11 13 13 10 10 10 8 6 5 5 5 5 4 7 6 9 10 10 12 11 6 10 17 15 13 10 9 12 14 14 18 17 18 20 25 26 22 22 18
11 8 5 2 2 3 2 4 3 7 10 10 9 6 6 6 7 7 7 7 8 9 6 5 7 6 6 12 8 7 8 10 15 15 8 9 7 10 10 9 10 11 11 11 13 13 11 13 12
13 11 10 5 4 5 2 5 4 5 8 9 7 4 4 3 5 6 5 6 8 4 7 6 3 5 6 5 4 3 8 8 15 16 10 7 4 7 8 7 7 10 9 12 12 12 17 17 16

GFSSGP_700_spd_135.txt.gz
Wind_Speed
12 11 11 10 7 6 3 4 9 8 3 4 5 4 4 4 2 4 3 4 5 8 6 7 4 7 9 8 7 6 4 4 3 1 1 1 2 4 6 7 8 8 8 7 6 5 6 7 6
11 11 11 10 7 9 4 9 9 11 8 5 4 4 4 5 5 6 7 8 6 8 8 7 7 6 8 9 10 8 6 5 5 3 1 1 2 5 6 8 9 9 7 6 5 5 4 4 4
11 12 11 7 10 10 5 9 11 11 10 9 6 8 5 4 4 4 3 5 8 8 9 9 9 6 6 8 10 10 8 7 6 4 2 2 4 6 8 9 9 8 7 5 4 3 4 5 5
11 11 11 13 10 6 8 10 11 13 12 13 12 8 9 7 3 5 5 8 7 8 10 12 10 10 10 9 11 12 10 9 7 7 4 3 6 9 10 10 9 7 6 4 2 3 4 5 6
10 11 13 11 10 12 12 13 13 14 15 13 12 11 11 12 10 9 7 10 11 7 11 13 13 13 14 13 13 13 13 11 10 8 7 5 7 10 11 11 11 8 6 3 2 2 4 6 7
9 8 9 11 13 12 12 13 13 14 14 15 13 11 11 14 14 14 13 13 13 12 8 12 14 16 16 17 16 16 15 13 12 10 8 7 9 11 12 12 11 8 5 4 4 3 4 5 6
8 9 9 12 11 11 12 12 13 14 15 15 18 14 13 12 13 15 16 15 14 14 14 12 14 20 15 20 19 18 18 16 13 12 11 9 11 13 13 11 11 8 4 4 5 6 6 7 8
8 9 9 11 11 10 9 10 12 15 17 18 17 16 18 15 13 14 15 16 17 17 15 14 12 14 22 22 23 21 20 17 16 15 13 12 14 14 12 11 11 7 4 3 5 7 9 9 9
8 8 8 9 8 7 7 8 10 12 13 16 18 20 21 21 20 19 18 18 17 18 19 17 16 17 18 22 26 27 23 19 18 19 16 15 17 16 14 11 11 7 4 4 6 8 10 9 9
8 6 6 7 8 6 6 8 8 7 9 11 12 15 18 20 22 23 24 24 23 22 20 19 19 19 17 23 25 29 27 26 23 22 20 18 19 19 16 13 12 6 5 7 8 9 10 11 10
5 4 3 2 3 4 4 6 7 4 6 7 9 10 11 12 20 23 23 23 23 24 23 22 18 19 24 26 26 30 38 34 25 26 23 21 22 22 16 15 14 7 5 8 10 11 10 11 12
4 2 2 1 3 4 6 8 9 8 7 10 9 11 12 12 12 20 25 24 23 22 21 22 21 20 21 26 27 29 34 35 16 29 27 24 23 24 21 19 16 10 10 10 11 11 11 10 11
4 3 3 4 7 7 9 9 12 10 12 13 14 16 16 15 17 16 18 24 25 24 23 22 24 22 24 26 26 27 30 37 38 28 33 28 25 25 24 22 18 12 12 13 13 13 12 12 12
3 6 7 7 8 10 11 12 15 13 14 16 17 18 19 19 20 21 21 22 23 22 22 26 26 25 26 28 30 30 28 34 38 40 38 30 28 26 26 25 19 14 14 15 16 15 14 13 13
7 9 10 12 12 14 15 17 17 14 15 16 18 21 22 22 21 23 25 25 25 22 18 21 22 25 26 26 23 25 26 20 34 43 42 31 29 28 27 26 22 16 17 18 17 16 16 14 13
9 8 6 8 13 14 13 17 11 13 14 17 20 24 26 25 24 25 28 31 29 26 21 20 19 23 26 23 22 22 17 12 26 43 36 32 29 29 28 27 24 19 19 19 18 17 16 17 15
6 7 7 7 7 12 12 16 12 13 16 18 21 23 28 29 31 35 37 34 33 34 29 21 21 21 25 23 17 17 22 26 37 36 36 33 29 29 29 28 25 20 20 20 19 19 17 15 15
5 8 8 8 9 14 16 14 12 16 18 23 25 28 33 37 38 34 32 29 32 33 31 27 22 23 22 22 10 4 13 33 29 32 31 34 30 29 28 28 24 21 22 22 21 20 18 18 15
12 11 12 9 13 13 10 12 12 15 19 23 26 32 36 33 32 30 28 25 24 28 29 22 20 18 22 17 14 6 10 23 35 30 31 29 30 29 28 27 24 24 22 21 21 21 20 17 16
14 14 12 11 9 14 14 17 18 17 19 19 28 30 29 24 21 21 19 16 18 17 14 22 22 16 19 14 12 9 8 22 48 39 34 30 28 28 28 26 24 24 24 24 22 21 19 18 16
14 15 13 11 12 14 14 11 1 7 11 21 25 26 27 28 18 11 6 6 8 12 21 23 22 18 18 15 10 8 13 16 40 33 31 32 32 30 29 27 25 26 24 22 21 20 19 16 15
14 11 9 9 11 4 7 5 8 6 11 22 23 23 24 17 12 9 12 10 12 14 21 18 18 14 15 15 12 10 14 19 18 23 27 31 34 29 28 29 27 28 24 22 21 19 18 18 17
12 10 10 11 9 9 7 4 3 4 12 20 20 16 14 16 17 16 12 10 13 13 14 13 9 12 15 14 14 12 9 12 15 25 31 34 32 31 32 29 27 33 30 26 23 21 20 19 18
11 10 11 9 4 3 5 4 4 4 13 17 19 6 10 12 12 14 11 10 8 11 11 8 8 9 8 13 12 11 12 14 19 11 18 27 35 39 22 30 25 26 27 25 24 23 21 20 19
13 8 2 1 2 3 6 6 5 6 11 13 14 5 8 8 7 4 8 9 7 8 7 7 6 8 10 10 12 12 11 15 16 15 7 13 18 21 31 34 30 33 24 23 23 24 22 20 20
14 12 5 4 2 2 6 7 2 5 8 9 9 4 7 4 3 6 5 7 8 6 5 4 3 2 2 4 6 7 10 12 16 17 20 14 15 26 17 33 34 29 29 24 24 23 21 22 22
12 13 10 3 1 2 4 6 8 4 5 5 3 3 4 5 7 6 7 4 3 3 3 6 6 5 3 2 7 9 9 10 9 14 10 11 12 24 22 23 24 29 25 29 31 27 21 23 29
16 8 6 6 3 3 5 8 8 5 4 3 1 1 1 3 5 9 11 10 8 7 5 6 9 7 3 4 2 9 14 10 9 9 11 13 13 15 17 16 23 24 25 25 27 29 32 33 32
21 19 10 6 4 3 2 5 6 4 2 2 4 3 2 3 5 7 10 9 10 9 10 8 9 8 5 9 10 10 16 11 7 8 10 13 14 14 14 17 13 20 15 18 17 18 21 21 22
21 20 19 7 6 6 2 7 8 5 2 1 4 3 4 4 6 8 8 9 8 9 12 12 11 9 8 8 10 14 13 14 12 10 6 6 8 7 7 10 11 11 11 10 11 12 15 15 15